Date StartTime U_cm/s V_cm/s W_cm/s Ustd_cm/s Vstd_cm/s Wstd_cm/s Uvar_(cm/s)^2 Vvar_(cm/s)^2 Wvar_(cm/s)^2 KE_(m/s)^2 TurbulentKE_(m/s)^2 HorizWindSpeed_cm/s FrictionSpeec_cm/s DragCoef SpeedOfSound_m/s SonicTemperature_C Pressure_mb 
11/29/2014  00:00:00     -215.006      -73.906       32.466      200.263      148.164      106.181    40105.426    21952.430    11274.335        6.302        3.667      227.354      117.273        0.266      335.155        5.599      855.873
11/29/2014  00:01:00     -390.233     -186.686      -24.395      209.553      191.511       94.056    43912.663    36676.312     8846.534       13.856        4.472      432.589       93.796        0.047      334.973        5.296      855.825
11/29/2014  00:02:00     -469.272     -156.076      -26.425      232.783      228.908      126.997    54187.989    52398.989    16128.308       18.397        6.136      494.546      123.946        0.063      334.800        5.008      855.936
11/29/2014  00:03:00     -325.404     -248.642       -0.479      234.258      164.868      115.263    54876.804    27181.310    13285.576       13.151        4.767      409.524      113.975        0.077      334.698        4.839      855.913
11/29/2014  00:04:00     -457.454     -185.200        3.872      331.692      207.096      109.065   110019.676    42888.847    11895.073       20.416        8.240      493.521      135.774        0.076      334.623        4.715      855.746
11/29/2014  00:05:00     -604.733     -169.913      -14.881      336.722      285.862      151.111   113381.674    81717.018    22834.416       30.632       10.897      628.150      169.877        0.073      334.565        4.616      855.801
11/29/2014  00:06:00     -429.380     -180.565       22.392      340.682      268.296      138.432   116064.315    71982.515    19163.307       21.230       10.361      465.801      165.840        0.127      334.566        4.621      855.903
11/29/2014  00:07:00     -437.241     -184.728      -18.293      293.621      223.514      103.719    86213.518    49958.665    10757.655       18.626        7.346      474.662      130.583        0.076      334.423        4.383      855.969
11/29/2014  00:08:00     -401.913     -155.630      -14.952      314.908      205.335      113.776    99167.311    42162.638    12945.038       17.010        7.714      430.993      103.233        0.057      334.451        4.429      855.695
11/29/2014  00:09:00     -423.607     -136.017      -19.210      319.510      248.671      120.212   102086.952    61837.404    14450.985       18.831        8.919      444.908      137.506        0.096      334.458        4.442      855.691
11/29/2014  00:10:00     -224.538      -35.903        7.196      176.890      110.836       72.942    31290.110    12284.664     5320.484        5.032        2.445      227.390       70.884        0.097      334.483        4.482      855.772
11/29/2014  00:11:00     -544.116     -142.569      -37.501      181.010      152.387       86.888    32764.472    23221.755     7549.509       19.065        3.177      562.484       82.327        0.021      334.360        4.278      855.736
11/29/2014  00:12:00     -596.982     -277.501      -42.220      293.880      218.168      137.945    86365.235    47597.366    19028.810       29.405        7.650      658.327      146.886        0.050      334.352        4.265      855.646
11/29/2014  00:13:00     -524.078     -296.899      -18.798      280.723      198.773      111.662    78805.482    39510.615    12468.438       24.695        6.539      602.335      117.278        0.038      334.306        4.188      855.673
11/29/2014  00:14:00     -421.865     -209.798      -37.555      264.210      215.304      117.222    69806.794    46355.614    13741.095       17.662        6.495      471.153      114.604        0.059      334.310        4.194      855.669
11/29/2014  00:15:00     -515.863     -247.564      -38.681      299.560      212.818      107.185    89736.080    45291.561    11488.560       23.768        7.326      572.191      124.006        0.047      334.276        4.138      855.691
11/29/2014  00:16:00     -591.536     -113.564      -10.222      290.726      215.641      128.668    84521.451    46501.207    16555.471       25.522        7.379      602.338      161.801        0.072      334.273        4.133      855.666
11/29/2014  00:17:00     -237.918      -86.181       21.220      259.843      213.776      105.680    67518.578    45700.147    11168.293        9.441        6.219      253.045      102.692        0.165      334.407        4.356      855.752
11/29/2014  00:18:00     -277.892     -184.197       -2.609      284.038      164.225      111.842    80677.631    26969.810    12508.578       11.563        6.008      333.396      141.177        0.179      334.485        4.485      855.747
11/29/2014  00:19:00     -175.962       77.808      -24.838      137.052      135.513       51.369    18783.383    18363.795     2638.774        3.870        1.989      192.397       32.537        0.029      334.368        4.292      855.717
11/29/2014  00:20:00     -248.828     -106.718      -36.141      190.906      136.098       58.283    36445.280    18522.731     3396.930        6.648        2.918      270.748       68.924        0.065      334.345        4.254      855.620
11/29/2014  00:21:00     -556.857     -252.745      -30.956      284.573      248.533      119.321    80981.728    61768.474    14237.451       26.593        7.849      611.531      140.267        0.053      334.262        4.115      855.648
11/29/2014  00:22:00     -609.817     -270.462       13.693      382.534      228.514      120.659   146332.388    52218.490    14558.675       32.912       10.655      667.103      153.258        0.053      334.879        5.141      855.668
11/29/2014  00:23:00     -567.854     -254.300      -29.423      240.545      231.161      112.966    57862.040    53435.622    12761.292       25.600        6.203      622.195      116.167        0.035      335.468        6.119      855.741
11/29/2014  00:24:00     -245.658      -68.737       12.332      149.015      113.750       66.964    22205.375    12939.102     4484.158        5.242        1.981      255.094       60.513        0.056      334.988        5.322      855.468
11/29/2014  00:25:00     -384.176     -119.201      -10.718      252.058      143.990       79.209    63533.455    20733.246     6274.004       12.621        4.527      402.244       86.513        0.046      335.218        5.703      855.363
11/29/2014  00:26:00     -480.455     -168.034      -10.850      203.609      131.086       83.086    41456.685    17183.424     6903.266       16.235        3.277      508.992       87.242        0.029      334.730        4.892      855.536
11/29/2014  00:27:00     -199.217     -224.456      -14.027      172.969      148.676       70.795    29918.402    22104.605     5011.961        7.364        2.852      300.113       71.359        0.057      334.560        4.607      855.644
11/29/2014  00:28:00     -159.740      -15.488        0.445      134.860      110.947       69.261    18187.098    12309.170     4797.080        3.052        1.765      160.489       72.442        0.204      334.760        4.942      855.545
11/29/2014  00:29:00     -102.251     -139.103       -7.111      155.605       95.199       57.692    24212.918     9062.896     3328.335        3.322        1.830      172.641       36.648        0.045      334.863        5.115      855.465
11/29/2014  00:30:00     -294.221     -167.441        5.355      201.345      143.380       81.085    40539.937    20557.732     6574.706        9.114        3.384      338.530      104.014        0.094      334.667        4.789      855.515
11/29/2014  00:31:00     -350.808     -221.084       -4.091      258.589      197.571      116.620    66868.043    39034.197    13600.225       14.571        5.975      414.662      149.627        0.130      334.580        4.643      855.430
11/29/2014  00:32:00     -333.687     -110.197      -15.308      172.261      140.862       87.988    29673.774    19841.975     7741.939        9.048        2.863      351.412       85.470        0.059      334.478        4.473      855.430
11/29/2014  00:33:00     -306.215      -64.919      -10.777      132.758      119.610       59.965    17624.651    14306.517     3595.837        6.681        1.776      313.021       70.163        0.050      334.536        4.571      855.349
11/29/2014  00:34:00     -248.790     -190.493        4.138      132.495       98.822       70.403    17554.959     9765.772     4956.645        6.523        1.614      313.343       79.671        0.065      334.566        4.619      855.489
11/29/2014  00:35:00     -229.993     -210.257        8.473      138.223      115.753       66.883    19105.553    13398.688     4473.365        6.707        1.849      311.617       71.573        0.053      334.625        4.717      855.581
11/29/2014  00:36:00     -239.745     -134.471      -13.784      158.273      164.151       94.934    25050.458    26945.578     9012.386        6.837        3.050      274.882       90.190        0.108      334.677        4.802      855.509
11/29/2014  00:37:00     -146.723     -132.180       13.725      125.751      164.084       76.682    15813.359    26923.570     5880.088        4.389        2.431      197.482       54.569        0.076      334.648        4.755      855.401
11/29/2014  00:38:00     -242.167     -160.825        5.385      184.842      165.331       82.093    34166.425    27334.501     6739.240        7.638        3.412      290.705       81.577        0.079      334.457        4.439      855.266
11/29/2014  00:39:00     -360.605     -284.288      -28.262      153.517      166.563       88.151    23567.378    27743.357     7770.582       13.536        2.954      459.190       97.317        0.045      334.418        4.375      855.002
11/29/2014  00:40:00     -198.542     -168.598       -5.938      157.018      144.653       76.640    24654.742    20924.560     5873.703        5.966        2.573      260.469       86.501        0.110      334.469        4.460      854.811
11/29/2014  00:41:00      -98.415      -94.423       11.228      128.968       97.450       56.456    16632.807     9496.459     3187.326        2.402        1.466      136.386       73.548        0.291      334.511        4.530      854.811
11/29/2014  00:42:00     -265.661      -80.895       -1.811      169.532      104.402       59.052    28741.079    10899.856     3487.109        6.012        2.156      277.705       59.950        0.047      334.487        4.488      854.840
11/29/2014  00:43:00     -345.922      -54.199       -2.096      240.559      127.981       75.089    57868.868    16379.251     5638.330       10.123        3.994      350.142       89.841        0.066      334.622        4.712      854.825
11/29/2014  00:44:00     -461.936     -112.990      -21.991      198.787      182.372       92.760    39516.169    33259.675     8604.352       15.399        4.069      475.554       96.683        0.041      334.603        4.681      854.818
11/29/2014  00:45:00     -238.937      -64.310      -12.310      199.669      134.133       73.370    39867.664    17991.721     5383.206        6.230        3.162      247.440       82.144        0.110      334.587        4.654      854.885
11/29/2014  00:46:00     -588.951      -33.242      -38.920      321.195      205.621       97.737   103166.435    42280.117     9552.551       25.221        7.750      589.888      137.178        0.054      334.682        4.812      854.815
11/29/2014  00:47:00     -332.372      -67.644       -6.104      264.589      161.080      102.023    70007.227    25946.838    10408.746       11.070        5.318      339.186      120.548        0.126      334.679        4.807      854.788
11/29/2014  00:48:00     -346.854     -204.776       -7.961      202.658      157.529       88.128    41070.161    24815.333     7766.608       11.796        3.683      402.792      104.793        0.068      334.633        4.730      854.832
11/29/2014  00:49:00     -346.810     -234.038        7.256      256.462      201.567      112.551    65772.835    40629.336    12667.830       14.706        5.954      418.391      131.944        0.099      334.655        4.767      854.784
11/29/2014  00:50:00     -593.496     -327.683      -21.640      210.538      189.084       99.849    44326.424    35752.579     9969.787       27.505        4.502      677.949      100.222        0.022      334.727        4.887      854.789
11/29/2014  00:51:00     -438.860     -137.509      -33.939      192.600      155.144       89.928    37094.774    24069.519     8086.975       14.094        3.463      459.899      102.726        0.050      334.806        5.018      854.782
11/29/2014  00:52:00     -268.921     -153.823       10.861      209.141      182.045       86.250    43739.826    33140.262     7438.976        9.019        4.216      309.806      102.751        0.110      334.924        5.215      854.771
11/29/2014  00:53:00     -304.291     -252.369       13.860      221.959      185.047       86.356    49265.668    34242.409     7457.360       12.370        4.548      395.326       94.444        0.057      335.000        5.342      854.729
11/29/2014  00:54:00     -565.731     -410.284      -45.331      298.010      256.604      139.434    88809.972    65845.773    19441.722       33.223        8.705      698.845      144.368        0.043      334.989        5.323      854.647
11/29/2014  00:55:00     -477.419     -236.901      -17.547      242.722      155.907       94.373    58914.015    24307.086     8906.237       18.822        4.606      532.964       94.233        0.031      334.974        5.297      854.645
11/29/2014  00:56:00     -481.291     -310.246      -19.453      239.147      187.798      115.438    57191.443    35268.201    13325.949       21.701        5.289      572.620      129.191        0.051      335.054        5.432      854.628
11/29/2014  00:57:00     -224.421      -52.060       16.667      161.711      175.808      112.211    26150.541    30908.333    12591.295        6.149        3.483      230.380      101.949        0.196      335.170        5.624      854.599
11/29/2014  00:58:00     -378.670      -85.186       -8.222      208.958      179.352       98.632    43663.494    32167.010     9728.342       11.812        4.278      388.133      113.887        0.086      335.321        5.873      854.459
11/29/2014  00:59:00     -335.049      -49.565       10.189      227.129      162.581      102.588    51587.652    26432.732    10524.287       10.166        4.427      338.695      129.072        0.145      335.323        5.877      854.517
11/29/2014  01:00:00     -345.736      -58.874        2.735      257.125      179.252       98.256    66113.058    32131.405     9654.212       11.543        5.395      350.713      112.050        0.102      335.405        6.014      854.605
11/29/2014  01:01:00     -416.602     -186.254       16.089      290.596      260.617      142.673    84446.149    67921.122    20355.655       19.058        8.636      456.342      171.401        0.141      335.480        6.140      854.487
11/29/2014  01:02:00     -398.140     -456.921       -4.046      358.718      187.505      122.963   128678.442    35157.957    15119.777       27.310        8.948      606.047      152.014        0.063      335.973        6.960      854.737
11/29/2014  01:03:00     -250.705     -233.515      -16.336      165.089      183.501       79.714    27254.343    33672.778     6354.304        9.245        3.364      342.611       82.931        0.059      335.593        6.326      854.868
11/29/2014  01:04:00     -169.802      -75.323      -15.010      163.627      100.748       58.020    26773.840    10150.207     3366.333        3.750        2.015      185.759       72.500        0.152      335.460        6.106      854.800
11/29/2014  01:05:00      -47.590     -145.796       18.203       70.061      111.957       45.905     4908.479    12534.380     2107.289        2.170        0.978      153.366       34.061        0.049      335.320        5.873      854.713
11/29/2014  01:06:00     -205.068     -106.812        4.352      180.500      142.505      111.561    32580.402    20307.714    12445.813        5.939        3.267      231.217      113.504        0.241      335.239        5.737      854.585
11/29/2014  01:07:00     -435.219      -42.467      -23.531      310.443      261.734      116.997    96375.062    68504.435    13688.218       18.513        8.928      437.286      152.660        0.122      335.455        6.097      854.459
11/29/2014  01:08:00     -225.081       24.098      -34.861      126.046      141.417       53.969    15887.476    19998.874     2912.671        4.562        1.940      226.368       36.674        0.026      335.735        6.564      854.350
11/29/2014  01:09:00     -246.915      -56.162       -9.020      301.215      134.754       77.216    90730.578    18158.741     5962.377        8.950        5.743      253.221      113.796        0.202      335.571        6.292      854.466
11/29/2014  01:10:00     -504.797     -169.766      -13.833      326.892      295.949       93.378   106858.126    87585.607     8719.460       24.346       10.158      532.579      112.832        0.045      335.475        6.130      854.424
11/29/2014  01:11:00     -223.042     -150.471       -1.382      278.711      190.480      117.635    77679.651    36282.590    13838.090       10.007        6.390      269.053      153.696        0.326      335.459        6.104      854.456
11/29/2014  01:12:00     -599.883      -99.530      -18.174      334.548      183.609      100.526   111922.400    33712.423    10105.459       26.289        7.787      608.084      123.866        0.041      335.327        5.883      854.455
11/29/2014  01:13:00     -390.280      -42.154       -8.064      202.432      162.600      103.964    40978.672    26438.921    10808.491       11.618        3.911      392.550      102.135        0.068      335.326        5.882      854.350
11/29/2014  01:14:00     -498.474      -67.191      -35.079      238.128      245.178      114.032    56704.718    60112.238    13003.347       19.199        6.491      502.982      117.698        0.055      335.385        5.981      854.440
11/29/2014  01:15:00     -393.626      -95.683       -2.442      320.607      185.693      112.787   102788.598    34482.053    12720.991       15.702        7.500      405.088      142.846        0.124      335.426        6.050      854.377
11/29/2014  01:16:00     -432.014      -40.465      -29.296      275.057      189.019      105.632    75656.187    35728.344    11158.014       15.581        6.127      433.905      132.423        0.093      335.639        6.404      854.274
11/29/2014  01:17:00     -481.329     -240.727      -22.888      270.621      209.997      108.584    73235.718    44098.597    11790.391       20.961        6.456      538.170      132.610        0.061      335.774        6.628      854.439
11/29/2014  01:18:00     -509.632     -214.142      -38.680      247.123      240.078      117.968    61069.694    57637.247    13916.407       21.982        6.631      552.794      121.385        0.048      335.884        6.812      854.435
11/29/2014  01:19:00     -610.346     -362.864      -16.427      283.086      199.378      121.198    80137.617    39751.544    14689.036       31.949        6.729      710.065      131.954        0.035      335.899        6.837      854.453
11/29/2014  01:20:00     -496.232     -231.051      -20.712      272.989      225.827      136.386    74523.026    50997.972    18601.044       22.206        7.206      547.385      147.750        0.073      335.766        6.615      854.520
11/29/2014  01:21:00     -235.891     -119.907       10.472      205.411      170.427      102.099    42193.602    29045.457    10424.174        7.588        4.083      264.617      114.527        0.187      335.759        6.603      854.607
11/29/2014  01:22:00     -650.294     -124.918      -25.985      281.179      247.258      127.109    79061.671    61136.584    16156.819       29.773        7.818      662.183      139.843        0.045      335.615        6.363      854.639
11/29/2014  01:23:00     -487.543     -177.122      -41.852      219.855      176.336       92.461    48336.022    31094.387     8548.975       17.938        4.399      518.720      108.850        0.044      335.583        6.310      854.576
11/29/2014  01:24:00     -622.379      -85.164      -30.699      285.513      219.724      115.638    81517.438    48278.839    13372.196       26.933        7.158      628.179      126.141        0.040      335.525        6.214      854.519
11/29/2014  01:25:00     -422.396     -192.293       -1.279      310.266      190.005      108.343    96264.870    36101.746    11738.101       17.972        7.205      464.106      142.501        0.094      335.494        6.163      854.558
11/29/2014  01:26:00     -324.813     -119.681        4.747      247.498      251.341      105.068    61255.229    63172.455    11039.222       12.763        6.773      346.160      125.046        0.130      335.529        6.221      854.666
11/29/2014  01:27:00     -280.048     -224.245       13.354      245.730      208.303       94.204    60383.036    43390.042     8874.432       12.075        5.632      358.765      107.361        0.090      335.530        6.221      854.638
11/29/2014  01:28:00     -260.166      -83.462        9.142      218.713      229.987       97.553    47835.353    52893.992     9516.632        9.247        5.512      273.226      100.091        0.134      335.578        6.303      854.674
11/29/2014  01:29:00     -344.407      -82.586       -8.312      203.287      176.900       91.454    41325.636    31293.687     8363.820       10.323        4.049      354.170       87.879        0.062      335.516        6.199      854.666
11/29/2014  01:30:00     -408.165     -192.589      -10.510      247.651      174.226      104.140    61330.917    30354.844    10845.194       15.314        5.127      451.319      123.246        0.075      335.442        6.076      854.602
11/29/2014  01:31:00     -435.061      -95.363       -2.665      263.130      198.623      112.878    69237.623    39450.975    12741.464       15.988        6.072      445.390      144.713        0.106      335.404        6.013      854.672
11/29/2014  01:32:00     -529.585     -111.925      -16.187      303.042      228.019      121.144    91834.407    51992.880    14675.975       22.584        7.925      541.283      146.207        0.073      335.437        6.068      854.678
11/29/2014  01:33:00     -470.974     -105.663       -6.452      252.646      155.212       98.079    63829.913    24090.654     9619.581       16.526        4.877      482.681      114.148        0.056      335.371        5.957      854.769
11/29/2014  01:34:00     -316.049      -72.260       -2.480      343.540      172.532      114.980   118019.765    29767.375    13220.301       13.303        8.050      324.205      163.562        0.255      335.355        5.931      854.801
11/29/2014  01:35:00     -553.092     -122.487      -15.711      244.084      217.919       92.966    59576.991    47488.685     8642.647       21.841        5.785      566.493       95.340        0.028      335.197        5.667      854.750
11/29/2014  01:36:00     -391.733     -128.510       -8.707      273.543      161.962      116.681    74825.537    26231.607    13614.557       14.234        5.734      412.273      129.094        0.098      335.190        5.656      854.757
11/29/2014  01:37:00     -405.169     -117.891       -4.631      302.224      162.606       99.800    91339.256    26440.594     9960.016       15.289        6.387      421.972      130.845        0.096      335.143        5.580      854.815
11/29/2014  01:38:00     -278.334      -47.056       13.244      212.152      228.295      106.938    45008.496    52118.607    11435.813        9.419        5.428      282.284      117.046        0.172      335.219        5.707      854.772
11/29/2014  01:39:00     -351.059     -180.324      -14.350      194.468      171.006       94.411    37817.951    29243.024     8913.385       11.595        3.799      394.663       92.562        0.055      335.123        5.546      854.751
11/29/2014  01:40:00     -365.923     -122.263      -13.476      199.648      194.245       89.975    39859.447    37730.983     8095.550       11.734        4.284      385.808       97.786        0.064      335.054        5.431      854.667
11/29/2014  01:41:00     -354.978      -82.356      -27.748      224.501      130.790       71.959    50400.623    17105.986     5178.074       10.311        3.634      364.407       85.096        0.055      335.005        5.350      854.596
11/29/2014  01:42:00     -455.698     -175.529      -37.393      245.459      179.956       94.169    60250.032    32384.314     8867.885       17.067        5.075      488.335      101.677        0.043      334.879        5.140      854.621
11/29/2014  01:43:00     -375.049      -39.325      -15.957      251.474      206.165      113.974    63239.009    42503.802    12990.016       13.057        5.937      377.105      128.524        0.116      334.827        5.054      854.731
11/29/2014  01:44:00     -203.586      -26.273       17.743      181.434      163.319       84.392    32918.306    26673.194     7122.042        5.457        3.336      205.275       89.981        0.192      334.862        5.111      854.770
11/29/2014  01:45:00     -172.816      -22.297       28.716      172.843      135.104       77.834    29874.710    18253.073     6058.070        4.268        2.709      174.249       84.798        0.237      334.846        5.085      854.887
11/29/2014  01:46:00     -442.217     -134.172       -0.811      310.538      176.039      103.225    96433.997    30989.854    10655.348       17.579        6.904      462.124      115.348        0.062      334.846        5.085      854.979
11/29/2014  01:47:00     -173.493      -61.099        8.811      132.092      129.191       70.822    17448.411    16690.196     5015.740        3.652        1.958      183.937       74.714        0.165      334.907        5.187      854.953
11/29/2014  01:48:00     -398.724     -110.562       -9.696      167.670      148.446       71.711    28113.252    22036.116     5142.398       11.328        2.765      413.769       71.931        0.030      334.889        5.156      854.983
11/29/2014  01:49:00     -328.668     -122.915      -17.366      169.784      228.400       81.181    28826.490    52166.383     6590.405       10.549        4.379      350.900       95.159        0.074      334.981        5.309      854.935
11/29/2014  01:50:00     -257.638      -72.068       -6.204      178.481      116.489       68.483    31855.605    13569.629     4689.977        6.085        2.506      267.528       72.712        0.074      334.884        5.150      854.912
11/29/2014  01:51:00     -377.010     -290.849        5.294      309.052      173.374      129.683    95513.361    30058.650    16817.619       18.455        7.119      476.162      152.065        0.102      334.860        5.108      854.984
11/29/2014  01:52:00     -585.821     -201.535      -32.923      200.225      194.139      102.542    40090.098    37689.798    10514.951       23.657        4.415      619.518       94.959        0.023      334.812        5.028      854.928
11/29/2014  01:53:00     -480.160     -249.044      -28.370      200.105      188.958       99.051    40042.130    35705.153     9811.013       18.945        4.278      540.903      101.634        0.035      334.847        5.086      854.849
11/29/2014  01:54:00     -359.998     -157.927      -21.961      228.998      181.365       98.126    52440.179    32893.424     9628.672       12.497        4.748      393.115      114.638        0.085      334.930        5.225      854.842
11/29/2014  01:55:00     -272.711     -142.610       -3.185      189.987      153.880       94.565    36095.060    23679.140     8942.631        8.170        3.436      307.748       91.288        0.088      334.967        5.287      854.797
11/29/2014  01:56:00     -306.459      -89.739       -4.235      175.646      147.190       68.037    30851.344    21664.899     4629.031        7.956        2.857      319.328       75.326        0.056      335.053        5.430      854.738
11/29/2014  01:57:00     -336.678     -192.031       -9.127      180.292      169.379       79.453    32505.359    28689.162     6312.813       10.890        3.375      387.593       89.146        0.053      335.030        5.393      854.712
11/29/2014  01:58:00     -375.217     -127.350      -17.066      183.440      217.011       90.812    33650.232    47093.712     8246.734       12.313        4.450      396.239      100.101        0.064      335.066        5.452      854.767
11/29/2014  01:59:00     -558.366     -254.037      -15.154      201.526      135.083       84.398    40612.539    18247.509     7123.040       22.125        3.299      613.439       94.660        0.024      335.208        5.687      854.760
11/29/2014  02:00:00     -245.737     -131.145      -15.764      155.673      129.547       70.476    24233.927    16782.413     4966.877        6.190        2.299      278.542       68.722        0.061      335.318        5.869      854.719
11/29/2014  02:01:00     -287.203     -192.105      -11.959      146.717      120.970       82.484    21525.772    14633.775     6803.604        8.124        2.148      345.528       81.189        0.055      335.221        5.707      854.645
11/29/2014  02:02:00     -313.099      -85.599       -1.472      258.359      168.111      100.590    66749.162    28261.443    10118.263       10.522        5.256      324.589      120.714        0.138      335.287        5.817      854.628
11/29/2014  02:03:00     -505.119     -112.347       -8.980      224.111      175.045      100.676    50225.945    30640.764    10135.716       17.941        4.550      517.462      117.733        0.052      335.273        5.794      854.676
11/29/2014  02:04:00     -369.007     -127.205       -9.940      181.869      156.288       80.616    33076.473    24425.856     6499.002       10.821        3.200      390.317       71.790        0.034      335.267        5.783      854.771
11/29/2014  02:05:00     -286.524      -44.411      -35.478       99.404      145.809       51.963     9881.124    21260.126     2700.199        5.958        1.692      289.945       25.078        0.007      335.150        5.591      854.718
11/29/2014  02:06:00     -256.837      -52.417       -6.972      198.598      132.946       74.296    39441.357    17674.619     5519.862        6.569        3.132      262.131       98.990        0.143      335.183        5.645      854.629
11/29/2014  02:07:00     -183.466     -147.458        3.994      173.604      120.368       74.754    30138.234    14488.436     5588.215        5.281        2.511      235.380      100.273        0.181      335.231        5.723      854.658
11/29/2014  02:08:00     -168.421     -118.648        6.354      125.268      113.039       59.142    15692.171    12777.806     3497.826        3.722        1.598      206.017       58.533        0.081      335.178        5.637      854.706
11/29/2014  02:09:00     -320.595      -87.814      -14.433      179.069      114.125       70.528    32065.820    13024.562     4974.155        8.037        2.503      332.404       74.144        0.050      335.161        5.609      854.624
11/29/2014  02:10:00     -264.316     -112.294       -6.691      150.345      113.182       69.046    22603.742    12810.122     4767.385        6.134        2.009      287.181       74.255        0.067      335.328        5.885      854.587
11/29/2014  02:11:00     -280.233      -97.684      -10.489      140.077       95.715       57.406    19621.623     9161.345     3295.459        6.012        1.604      296.771       61.454        0.043      335.299        5.836      854.652
11/29/2014  02:12:00     -281.353      -68.734      -13.046      109.346       91.938       54.037    11956.641     8452.660     2920.011        5.369        1.166      289.627       55.972        0.037      335.171        5.627      854.639
11/29/2014  02:13:00     -106.820     -180.598       -0.642       84.567       95.803       44.732     7151.631     9178.126     2000.966        3.118        0.917      209.824       42.954        0.042      335.183        5.644      854.550
11/29/2014  02:14:00      -41.780      -72.015       19.478       91.046       92.582       57.373     8289.398     8571.442     3291.629        1.373        1.008       83.257       55.457        0.444      335.184        5.648      854.524
11/29/2014  02:15:00     -113.710      -72.596      -15.025       91.281       57.831       42.359     8332.296     3344.383     1794.257        1.595        0.674      134.908       43.213        0.103      335.191        5.658      854.591
11/29/2014  02:16:00      -54.886     -169.286        3.318       87.657       64.651       43.102     7683.787     4179.696     1857.754        2.270        0.686      177.961       35.652        0.040      335.274        5.797      854.580
11/29/2014  02:17:00     -221.634     -230.651      -16.757      150.183       98.916       68.650    22554.957     9784.464     4712.816        6.982        1.853      319.877       52.536        0.027      335.320        5.871      854.551
11/29/2014  02:18:00     -184.452     -130.098       -7.073      120.539       86.347       58.053    14529.743     7455.827     3370.093        3.817        1.268      225.716       45.874        0.041      335.295        5.831      854.545
11/29/2014  02:19:00      -64.660      -10.684        1.707       75.807       48.015       41.238     5746.694     2305.446     1700.601        0.702        0.488       65.537       40.600        0.384      335.279        5.805      854.496
11/29/2014  02:20:00     -105.757      -34.233       -7.238       48.800       43.813       24.622     2381.429     1919.616      606.237        0.866        0.245      111.159       16.985        0.023      335.295        5.832      854.465
11/29/2014  02:21:00      -21.531     -197.535       13.400       63.960      113.170       48.635     4090.856    12807.405     2365.335        2.946        0.963      198.705       49.886        0.063      335.448        6.086      854.659
11/29/2014  02:22:00     -179.021     -125.887        2.602      108.631       95.027       53.619    11800.734     9030.122     2875.031        3.580        1.185      218.852       58.207        0.071      335.440        6.071      854.638
11/29/2014  02:23:00      -75.310     -122.352        3.717       65.908       58.972       33.879     4343.850     3477.674     1147.813        1.481        0.448      143.672       33.148        0.053      335.406        6.018      854.544
11/29/2014  02:24:00     -253.683     -145.259      -19.174       84.944       59.804       40.887     7215.555     3576.519     1671.748        4.914        0.623      292.327       39.296        0.018      335.433        6.061      854.596
11/29/2014  02:25:00     -195.115     -124.828       -2.856      120.041       87.784       63.158    14409.756     7706.052     3988.979        3.988        1.305      231.629       60.731        0.069      335.406        6.015      854.708
11/29/2014  02:26:00     -212.262     -107.705        4.178      156.156       87.336       53.639    24384.713     7627.628     2877.189        4.577        1.744      238.025       47.739        0.040      335.486        6.150      854.704
11/29/2014  02:27:00     -234.854      -35.616       -8.327      120.742      143.689       49.348    14578.539    20646.446     2435.240        4.707        1.883      237.540       57.359        0.058      335.603        6.344      854.736
11/29/2014  02:28:00       -2.185       68.777       73.187       67.154       81.684       64.957     4509.632     6672.212     4219.357        1.274        0.770       68.812       46.484        0.456      335.641        6.410      854.768
11/29/2014  02:29:00      -65.953       45.821       34.949       59.214       46.180       68.624     3506.265     2132.611     4709.292        0.901        0.517       80.308       52.208        0.423      335.833        6.730      854.680
11/29/2014  02:30:00      -42.047      -18.678       10.873       92.285      110.146       46.962     8516.568    12132.156     2205.451        1.254        1.143       46.009       50.959        1.227      335.878        6.804      854.591
11/29/2014  02:31:00      -79.354     -117.018        0.038       68.767      111.451       30.273     4728.958    12421.337      916.435        1.902        0.903      141.387       30.409        0.046      335.843        6.745      854.650
11/29/2014  02:32:00     -119.419      -53.822      -13.321       49.207       55.735       27.273     2421.298     3106.350      743.828        1.180        0.314      130.987       15.555        0.014      335.743        6.581      854.673
11/29/2014  02:33:00       69.983       44.029       38.592       75.863       54.730       27.777     5755.164     2995.427      771.536        0.892        0.476       82.681       29.001        0.123      335.742        6.579      854.588
11/29/2014  02:34:00      104.003       62.859        8.887       60.893       53.781       38.430     3707.986     2892.431     1476.896        1.146        0.404      121.524       18.414        0.023      335.748        6.589      854.355
11/29/2014  02:35:00       30.957       -4.162       -6.672       31.402       33.738       26.450      986.093     1138.225      699.597        0.192        0.141       31.235       19.231        0.379      335.706        6.519      854.306
11/29/2014  02:36:00       26.481       28.484        3.060       33.169       30.467       24.536     1100.209      928.219      601.999        0.208        0.132       38.892       14.031        0.130      335.705        6.519      854.355
11/29/2014  02:37:00       39.041       59.686      -12.416       22.455       42.021       20.469      504.234     1765.789      418.966        0.396        0.134       71.320       20.534        0.083      335.708        6.522      854.355
11/29/2014  02:38:00        5.006      120.732      -24.883       25.249       47.854       21.375      637.520     2289.977      456.901        0.930        0.169      120.836       24.856        0.042      335.677        6.471      854.300
11/29/2014  02:39:00        5.489      200.927      -36.766       46.124       65.614       24.993     2127.422     4305.231      624.666        2.440        0.353      201.002       34.398        0.029      335.801        6.674      854.186
11/29/2014  02:40:00       26.528      164.988      -18.928       50.059       72.328       36.678     2505.890     5231.302     1345.281        1.868        0.454      167.107       40.821        0.060      335.691        6.491      854.069
11/29/2014  02:41:00        8.868      117.211       -9.231       37.345       67.617       36.882     1394.615     4572.074     1360.294        1.061        0.366      117.546       37.508        0.102      335.933        6.895      854.131
11/29/2014  02:42:00       35.849       44.843       13.115       41.752       43.353       31.708     1743.223     1879.477     1005.373        0.405        0.231       57.412       28.886        0.253      335.913        6.863      854.173
11/29/2014  02:43:00       68.695       91.219       -3.181       55.201       51.989       30.582     3047.132     2702.857      935.247        0.987        0.334      114.192       25.813        0.051      335.944        6.914      854.038
11/29/2014  02:44:00      108.990       70.524        7.821       75.374       42.136       41.776     5681.185     1775.422     1745.275        1.306        0.460      129.817       23.476        0.033      335.948        6.922      853.924
11/29/2014  02:45:00       -0.399       68.448       -7.734       56.415       44.813       29.336     3182.597     2008.250      860.589        0.540        0.303       68.449       30.651        0.201      335.920        6.874      853.999
11/29/2014  02:46:00       44.847       77.789        8.526       58.332       53.890       40.357     3402.605     2904.125     1628.720        0.803        0.397       89.790       32.535        0.131      335.925        6.882      854.075
11/29/2014  02:47:00       73.943       78.324       45.411       56.553       28.747       38.062     3198.261      826.367     1448.742        0.957        0.274      107.714       36.190        0.113      335.824        6.716      854.040
11/29/2014  02:48:00       15.851       33.291       71.258       44.753       50.490       31.274     2002.859     2549.253      978.034        0.598        0.277       36.872       35.160        0.909      335.868        6.788      853.968
11/29/2014  02:49:00        2.638      -25.607       24.858       35.320       25.373       23.785     1247.490      643.811      565.717        0.187        0.123       25.743       15.489        0.362      335.840        6.741      854.025
11/29/2014  02:50:00       61.496      103.701        7.180       38.512       49.123       35.280     1483.183     2413.076     1244.696        0.986        0.257      120.564       32.312        0.072      335.711        6.528      854.072
11/29/2014  02:51:00       27.570      168.293      -13.085       44.719       77.278       35.942     1999.778     5971.946     1291.814        1.926        0.463      170.536       41.172        0.058      335.782        6.643      854.005
11/29/2014  02:52:00       47.046       45.088       21.636       59.020       48.833       34.725     3483.385     2384.675     1205.818        0.589        0.354       65.163       23.523        0.130      335.772        6.627      854.056
11/29/2014  02:53:00      102.575       55.624       43.130       52.671       59.632       50.938     2774.227     3555.971     2594.713        1.220        0.446      116.686       42.235        0.131      335.823        6.714      854.064
11/29/2014  02:54:00       84.601       51.072       11.731       71.840       42.105       37.577     5160.938     1772.871     1412.037        0.912        0.417       98.821       34.214        0.120      335.844        6.748      853.988
11/29/2014  02:55:00       91.654       10.342      -10.531      121.531       98.656       46.332    14769.721     9733.068     2146.643        1.763        1.332       92.236       25.836        0.078      335.854        6.764      854.009
11/29/2014  02:56:00      -80.568       42.469      -10.113       69.614       44.462       37.320     4846.161     1976.870     1392.798        0.830        0.411       91.076       43.543        0.229      335.959        6.939      854.061
11/29/2014  02:57:00       13.938       -1.329       -2.368       72.096       82.932       26.611     5197.768     6877.694      708.167        0.649        0.639       14.002       17.443        1.552      335.771        6.626      854.060
11/29/2014  02:58:00      101.833      -30.906       11.034       46.866       76.785       41.784     2196.422     5896.011     1745.914        1.064        0.492      106.420       30.994        0.085      335.846        6.752      853.986
11/29/2014  02:59:00       45.997       -9.929       38.720      101.214      135.093       77.638    10244.289    18250.099     6027.734        1.911        1.726       47.056       79.959        2.887      335.962        6.944      853.908
11/29/2014  03:00:00      -12.599        9.233       52.014       91.509      101.036       66.721     8373.871    10208.215     4451.732        1.299        1.152       15.620       65.639       17.659      336.006        7.018      854.054
11/29/2014  03:01:00      235.253      -74.937       91.015      260.167      333.733      166.136    67686.983   111378.020    27601.060       13.791       10.333      246.900      230.784        0.874      335.865        6.780      854.056
11/29/2014  03:02:00      334.520     -179.561      117.133      265.679      410.181      223.818    70585.533   168248.233    50094.687       22.334       14.446      379.666      274.326        0.522      335.812        6.692      853.774
11/29/2014  03:03:00      172.944     -148.186       90.972      178.315      278.263      164.495    31796.293    77430.115    27058.649        9.819        6.814      227.747      191.729        0.709      335.802        6.676      853.756
11/29/2014  03:04:00      213.536     -228.083       31.245      171.245      286.875      150.640    29324.801    82297.093    22692.386       11.643        6.716      312.441      194.457        0.387      335.776        6.632      853.798
11/29/2014  03:05:00      417.541     -367.173      -48.627      245.266      298.163      153.296    60155.461    88901.221    23499.695       24.200        8.628      556.019      195.875        0.124      335.758        6.600      853.809
11/29/2014  03:06:00      215.090     -166.948       55.223      206.248      346.469      180.454    42538.154   120041.072    32563.653       13.612        9.757      272.278      225.940        0.689      335.990        6.989      853.920
11/29/2014  03:07:00       71.390      -41.610      186.006      211.376      345.489      217.315    44679.745   119362.784    47225.855       12.630       10.563       82.631      271.513       10.797      336.271        7.459      854.023
11/29/2014  03:08:00       81.318      -20.290      106.090      126.208      186.480      159.694    15928.484    34774.930    25502.225        4.723        3.810       83.812      140.996        2.830      335.973        6.961      854.095
11/29/2014  03:09:00       79.617       98.929      181.102      122.900      192.413      102.550    15104.486    37022.950    10516.433        5.577        3.132      126.987      115.677        0.830      335.904        6.844      854.102
11/29/2014  03:10:00      133.036       23.194      126.136      128.168      166.732      107.096    16427.010    27799.541    11469.474        4.491        2.785      135.043      106.007        0.616      335.920        6.872      854.100
11/29/2014  03:11:00      128.936       99.893      180.376      141.641      167.078      100.160    20062.274    27914.935    10031.949        5.856        2.900      163.105      118.709        0.530      335.911        6.856      854.033
11/29/2014  03:12:00      138.932      -34.282      113.637      141.521      206.293      128.504    20028.129    42556.842    16513.318        5.623        3.955      143.099      131.876        0.849      336.082        7.143      854.145
11/29/2014  03:13:00       42.567      107.436        2.811       55.799       60.371       43.573     3113.491     3644.693     1898.649        1.101        0.433      115.561       35.831        0.096      336.142        7.245      854.106
11/29/2014  03:14:00       63.211       43.635       -1.715       80.769       93.867       44.625     6523.551     8811.066     1991.398        1.161        0.866       76.809       17.620        0.053      336.051        7.093      854.085
11/29/2014  03:15:00        5.353     -136.469        4.766       78.718       79.623       44.448     6196.481     6339.860     1975.608        1.659        0.726      136.574       33.507        0.060      336.154        7.264      854.101
11/29/2014  03:16:00      -32.587      -26.940      -18.657       52.636       85.966       38.930     2770.530     7390.177     1515.519        0.690        0.584       42.281       26.134        0.382      336.136        7.235      854.147
11/29/2014  03:17:00     -100.223       -1.828      -15.700       69.900       59.370       29.755     4885.949     3524.831      885.348        0.979        0.465      100.239       20.967        0.044      336.258        7.438      854.141
11/29/2014  03:18:00       32.964       59.724       43.970       37.850       45.590       32.428     1432.588     2078.428     1051.558        0.557        0.228       68.217       22.510        0.109      336.056        7.100      853.990
11/29/2014  03:19:00       38.768       20.440        9.266       28.793       41.617       28.494      829.015     1731.962      811.931        0.269        0.169       43.827       20.454        0.218      336.187        7.320      853.952
11/29/2014  03:20:00       59.242       39.235       10.930       29.797       19.055       26.982      887.886      363.110      728.002        0.357        0.099       71.056       16.343        0.053      336.164        7.281      854.020
11/29/2014  03:21:00       -3.992       61.797       89.759       29.641       36.448       26.689      878.588     1328.472      712.322        0.740        0.146       61.926       21.026        0.115      336.237        7.404      854.025
11/29/2014  03:22:00       -2.126       25.565       55.083       30.972       30.757       24.508      959.272      945.991      600.640        0.310        0.125       25.653       23.018        0.805      336.224        7.382      854.139
11/29/2014  03:23:00       76.538     -111.195        4.420       88.380      102.153       74.990     7811.094    10435.139     5623.498        2.105        1.193      134.990       72.807        0.291      336.176        7.301      854.207
11/29/2014  03:24:00      154.956     -140.786      -13.771       98.432      140.556       85.637     9688.903    19756.090     7333.709        4.039        1.839      209.361       96.999        0.215      336.149        7.256      854.238
11/29/2014  03:25:00       45.064      146.486      178.669       75.828       87.202       64.381     5749.810     7604.124     4144.905        3.645        0.875      153.261       45.262        0.087      336.191        7.324      854.231
11/29/2014  03:26:00       74.431     -101.692        2.930      112.303      154.679       65.308    12611.960    23925.631     4265.111        2.834        2.040      126.021       58.896        0.218      336.082        7.141      854.203
11/29/2014  03:27:00      109.717     -146.682       24.976      142.250      187.069      101.858    20235.041    34994.925    10375.086        4.988        3.280      183.176      125.920        0.473      336.111        7.191      854.291
11/29/2014  03:28:00       10.045       28.031       70.353       62.542      129.314       96.296     3911.520    16722.073     9272.861        1.787        1.495       29.777       97.482       10.717      336.157        7.268      854.316
11/29/2014  03:29:00      182.495      218.404      214.348      144.716      143.957      117.347    20942.710    20723.499    13770.292        9.118        2.772      284.614       87.240        0.094      336.063        7.111      854.034
11/29/2014  03:30:00      147.633        8.913       98.408      151.068      171.456       85.233    22821.636    29397.050     7264.716        4.551        2.974      147.902       72.286        0.239      336.026        7.048      853.849
11/29/2014  03:31:00       -2.248      -44.894       16.941       79.020       81.524       44.302     6244.223     6646.125     1962.701        0.858        0.743       44.950       23.938        0.284      336.062        7.111      853.926
11/29/2014  03:32:00      144.480        3.157       84.634      150.762      126.891      102.310    22729.192    16101.205    10467.286        3.866        2.465      144.515       96.218        0.443      336.068        7.120      854.018
11/29/2014  03:33:00      112.855       60.982       90.080       86.845      133.805       79.468     7542.106    17903.886     6315.089        2.816        1.588      128.277       87.450        0.465      336.007        7.018      853.802
11/29/2014  03:34:00       48.516     -145.901       13.292       82.640      116.242       46.544     6829.322    13512.172     2166.369        2.316        1.125      153.756       47.196        0.094      336.110        7.191      853.902
11/29/2014  03:35:00      136.485        3.300       93.710      127.891      162.737       97.249    16356.069    26483.359     9457.425        3.985        2.615      136.525      105.123        0.593      336.099        7.170      854.028
11/29/2014  03:36:00      149.562      122.717      169.046      162.571      140.280      110.775    26429.489    19678.474    12271.041        6.218        2.919      193.464      127.756        0.436      336.086        7.148      853.956
11/29/2014  03:37:00      219.440     -179.472       28.476      137.637      249.489      122.909    18944.000    62244.952    15106.643        8.872        4.815      283.486      165.811        0.342      336.010        7.021      853.913
11/29/2014  03:38:00       89.989     -119.867       34.893      110.536      144.819      103.684    12218.110    20972.495    10750.281        3.380        2.197      149.887      108.197        0.521      336.026        7.048      854.037
11/29/2014  03:39:00       69.151     -108.448        4.020       87.936      126.868       75.142     7732.698    16095.506     5646.294        2.301        1.474      128.619       74.677        0.337      336.141        7.242      854.136
11/29/2014  03:40:00      -21.130      -62.591       40.422       96.384       57.502       59.035     9289.869     3306.470     3485.159        1.104        0.804       66.061       42.455        0.413      336.125        7.217      854.069
11/29/2014  03:41:00      -79.856     -145.717       -3.134       98.235       80.036       52.934     9650.193     6405.823     2802.051        2.324        0.943      166.164       43.396        0.068      336.225        7.381      854.044
11/29/2014  03:42:00       42.271      -97.480       24.771       72.911      121.163       57.914     5316.041    14680.431     3353.981        1.762        1.168      106.251       76.231        0.515      336.203        7.346      854.044
11/29/2014  03:43:00       15.046       38.997       17.154       73.386       70.263       51.793     5385.453     4936.832     2682.509        0.752        0.650       41.799       27.880        0.445      336.059        7.107      853.971
11/29/2014  03:44:00       21.593       61.787       -1.693       50.546       28.579       37.739     2554.925      816.780     1424.246        0.454        0.240       65.451       28.238        0.186      336.056        7.102      853.897
11/29/2014  03:45:00      -87.287       79.611      -17.435       41.416       36.397       20.080     1715.253     1324.733      403.193        0.885        0.172      118.139        8.238        0.005      336.206        7.352      853.903
11/29/2014  03:46:00       48.276      100.116       -2.303       51.525       42.442       26.815     2654.786     1801.309      719.060        0.877        0.259      111.148       30.559        0.076      336.045        7.083      853.940
11/29/2014  03:47:00      111.516       70.624        2.565       68.249       50.047       29.038     4657.985     2504.752      843.191        1.272        0.400      131.998       19.796        0.022      335.994        6.997      853.961
11/29/2014  03:48:00     -108.430       17.974      -12.320       92.732       78.298       46.400     8599.310     6130.554     2152.992        1.455        0.844      109.909       46.606        0.180      336.224        7.381      853.866
11/29/2014  03:49:00      -60.770      -39.135       32.197      121.961      101.217       51.508    14874.509    10244.850     2653.073        1.701        1.389       72.281       61.118        0.715      336.107        7.185      853.749
11/29/2014  03:50:00       48.467        4.535       13.845       76.124       51.777       30.374     5794.858     2680.876      922.581        0.598        0.470       48.678       23.250        0.228      335.980        6.975      853.639
11/29/2014  03:51:00      -41.474      -12.136       14.984       41.167       49.133       34.809     1694.736     2414.013     1211.647        0.371        0.266       43.213       29.659        0.471      336.112        7.195      853.663
11/29/2014  03:52:00      -89.332     -111.473        6.243       71.520       78.140       33.348     5115.101     6105.905     1112.106        1.639        0.617      142.851       35.334        0.061      336.169        7.289      853.718
11/29/2014  03:53:00      -90.446      -21.347       10.014       95.406       53.739       33.107     9102.323     2887.896     1096.057        1.091        0.654       92.931       45.629        0.241      336.133        7.229      853.775
11/29/2014  03:54:00     -292.543     -116.732      -12.328      110.431       78.210       47.153    12195.116     6116.767     2223.425        5.994        1.027      314.973       42.912        0.019      336.109        7.185      853.875
11/29/2014  03:55:00     -206.821     -112.915      -38.344       74.659       76.939       38.987     5573.961     5919.578     1519.958        3.500        0.651      235.637       43.112        0.033      336.174        7.295      853.875
11/29/2014  03:56:00      -62.182       86.717       -5.185       99.756       61.140       47.550     9951.335     3738.102     2261.045        1.368        0.798      106.707       48.902        0.210      336.184        7.315      853.767
11/29/2014  03:57:00       82.918     -135.355       42.073      144.286      231.484      120.781    20818.381    53585.011    14588.083        5.796        4.450      158.734      151.938        0.916      336.289        7.486      853.688
11/29/2014  03:58:00       65.402      -14.621       91.220      125.303      162.443      107.852    15700.777    26387.850    11631.992        3.326        2.686       67.016      129.021        3.706      336.161        7.275      853.701
11/29/2014  03:59:00      -26.928       45.125      -11.943       71.698       86.582       47.023     5140.601     7496.471     2211.121        0.887        0.742       52.549       40.857        0.604      336.220        7.375      853.883
11/29/2014  04:00:00      -52.017        9.245       -7.369      133.133      173.382       56.769    17724.265    30061.412     3222.733        2.692        2.550       52.832       36.121        0.467      336.233        7.396      853.932
11/29/2014  04:01:00       14.689      -38.250       38.074       77.951      142.204       49.768     6076.327    20222.046     2476.874        1.595        1.439       40.974       71.539        3.048      336.308        7.521      853.926
11/29/2014  04:02:00       70.605        5.105       34.619       65.129      151.578       77.156     4241.845    22975.874     5952.991        1.968        1.659       70.790       92.721        1.716      336.341        7.577      853.747
11/29/2014  04:03:00        6.159      -52.571       29.680       42.888       83.165       52.992     1839.354     6916.370     2808.100        0.762        0.578       52.930       43.149        0.665      336.304        7.515      853.638
11/29/2014  04:04:00       38.126        9.779       12.931      102.379       58.063       45.178    10481.484     3371.261     2041.091        0.880        0.795       39.360       13.380        0.116      336.278        7.472      853.674
11/29/2014  04:05:00     -280.206      -21.427      -37.763      157.362      123.911       54.193    24762.648    15353.947     2936.884        6.172        2.153      281.024       49.801        0.031      336.322        7.542      853.824
11/29/2014  04:06:00      -88.552       10.023      -20.416       76.936      100.203       50.454     5919.138    10040.602     2545.638        1.343        0.925       89.117       44.665        0.251      336.380        7.642      853.879
11/29/2014  04:07:00     -192.924       12.570      -21.286       56.838       65.269       34.380     3230.560     4260.012     1181.960        2.325        0.434      193.333       34.596        0.032      336.490        7.825      853.710
11/29/2014  04:08:00      -90.692       15.013        0.971       76.831       45.623       35.172     5902.962     2081.424     1237.082        0.883        0.461       91.926       36.151        0.155      336.386        7.652      853.599
11/29/2014  04:09:00       -7.073      -13.622       -1.255       57.131       80.499       31.908     3263.973     6480.095     1018.140        0.550        0.538       15.349       20.763        1.830      336.218        7.372      853.647
11/29/2014  04:10:00      -39.680      -71.989       16.512       88.540      111.999       57.959     7839.308    12543.853     3359.211        1.538        1.187       82.200       66.219        0.649      336.358        7.605      853.750
11/29/2014  04:11:00     -182.833      -78.768        5.999      130.675       86.819       46.462    17075.865     7537.576     2158.700        3.321        1.339      199.079       38.411        0.037      336.314        7.529      853.861
11/29/2014  04:12:00     -158.540     -213.435      -26.854      109.939      137.844       59.633    12086.474    19001.009     3556.079        5.302        1.732      265.874       48.418        0.033      336.354        7.596      853.843
11/29/2014  04:13:00     -149.957     -124.386       15.995      171.305      124.951       66.623    29345.319    15612.815     4438.685        4.380        2.470      194.830       73.667        0.143      336.327        7.552      853.776
11/29/2014  04:14:00      -20.116      -25.498       32.884       67.772       70.119       45.829     4592.989     4916.620     2100.279        0.687        0.580       32.478       43.115        1.762      336.368        7.622      853.704
11/29/2014  04:15:00     -123.535       38.485       -5.505       70.567       51.780       33.743     4979.717     2681.118     1138.559        1.278        0.440      129.390       37.759        0.085      336.514        7.867      853.736
11/29/2014  04:16:00      -78.943      -19.894        1.837       80.436       65.741       35.191     6469.892     4321.910     1238.406        0.933        0.602       81.411       47.393        0.339      336.564        7.950      853.719
11/29/2014  04:17:00       16.070       39.973       -0.340       79.863       46.555       35.895     6378.170     2167.347     1288.427        0.584        0.492       43.082       44.461        1.065      336.412        7.696      853.651
11/29/2014  04:18:00       46.604       18.824       21.037      107.601       98.753       54.125    11577.980     9752.251     2929.550        1.361        1.213       50.262       52.058        1.073      336.433        7.730      853.631
11/29/2014  04:19:00       70.898      -82.943       20.165      105.876      162.373       69.629    11209.736    26364.976     4848.249        2.736        2.121      109.115       72.631        0.443      336.457        7.770      853.571
11/29/2014  04:20:00       64.524     -184.278       37.335       98.263      183.625       68.842     9655.621    33718.299     4739.263        4.380        2.406      195.247       51.946        0.071      336.500        7.841      853.541
11/29/2014  04:21:00       88.658     -104.015       36.983      111.453      135.074       94.069    12421.754    18244.947     8849.019        2.977        1.976      136.672       83.656        0.375      336.460        7.774      853.477
11/29/2014  04:22:00      149.059      -84.656       81.932      155.927      250.301      148.950    24313.104    62650.360    22186.131        7.260        5.457      171.421      176.360        1.058      336.446        7.748      853.425
11/29/2014  04:23:00      148.604      -95.334       71.353      134.412      196.009      119.793    18066.508    38419.544    14350.397        5.354        3.542      176.555      120.483        0.466      336.538        7.905      853.328
11/29/2014  04:24:00      148.357      122.179      147.738      173.360      157.678      126.515    30053.848    24862.462    16005.972        6.483        3.546      192.191      121.089        0.397      336.778        8.305      853.165
11/29/2014  04:25:00      118.898      -91.954       76.668      146.685      217.044      122.599    21516.533    47108.261    15030.631        5.605        4.183      150.307      137.549        0.837      336.806        8.354      853.240
11/29/2014  04:26:00      176.663      -82.848       74.420      106.817      124.738       86.966    11409.806    15559.550     7563.156        3.907        1.727      195.124       77.295        0.157      336.799        8.342      853.301
11/29/2014  04:27:00       18.343      138.135       15.596      228.663      117.757       87.045    52286.847    13866.815     7576.909        4.668        3.687      139.348      117.403        0.710      336.676        8.138      853.284
11/29/2014  04:28:00       81.255      -19.643        1.823       57.652       71.056       35.166     3323.771     5049.011     1236.630        0.830        0.480       83.596       25.511        0.093      336.676        8.137      853.342
11/29/2014  04:29:00     -119.234      -72.259        0.429      118.809       55.847       30.322    14115.619     3118.872      919.439        1.879        0.908      139.421       45.456        0.106      336.645        8.085      853.407
11/29/2014  04:30:00     -146.423     -116.536        6.438      117.563       74.293       48.763    13820.947     5519.507     2377.783        2.839        1.086      187.137       61.714        0.109      336.566        7.952      853.459
11/29/2014  04:31:00     -124.059      -30.379       -2.457       92.013       93.025       45.503     8466.351     8653.608     2070.537        1.775        0.960      127.724       29.626        0.054      336.548        7.922      853.645
11/29/2014  04:32:00      -62.322      119.595       50.845      164.277      130.648      134.013    26986.986    17068.804    17959.562        4.138        3.101      134.859      119.418        0.784      336.591        7.993      853.688
11/29/2014  04:33:00      -66.260     -120.292      -22.490      150.069      115.479       57.118    22520.840    13335.508     3262.438        2.923        1.956      137.334       45.422        0.109      336.623        8.048      853.561
11/29/2014  04:34:00      -86.820      -37.891       18.438       68.418       70.422       41.534     4680.988     4959.272     1725.079        1.034        0.568       94.729       32.933        0.121      336.532        7.896      853.450
11/29/2014  04:35:00     -129.193       13.612      -12.265       70.553       70.113       34.139     4977.716     4915.796     1165.500        1.404        0.553      129.908       17.746        0.019      336.621        8.047      853.397
11/29/2014  04:36:00       14.395      -33.032       13.585       40.709       42.579       32.127     1657.223     1812.976     1032.153        0.299        0.225       36.032       22.473        0.389      336.464        7.782      853.439
11/29/2014  04:37:00        0.507       17.378       35.428       49.417       80.793       29.351     2442.059     6527.521      861.497        0.569        0.492       17.385       22.781        1.717      336.487        7.822      853.560
11/29/2014  04:38:00     -142.933       -9.758      -11.073       51.481       96.110       35.656     2650.297     9237.133     1271.327        1.690        0.658      143.265       16.945        0.014      336.543        7.915      853.564
11/29/2014  04:39:00     -148.685      -29.226      -20.553       77.387       84.728       39.185     5988.795     7178.763     1535.477        1.904        0.735      151.530       43.692        0.083      336.636        8.070      853.620
11/29/2014  04:40:00     -125.166      -82.473       -3.338       80.712       83.966       38.718     6514.404     7050.208     1499.084        1.877        0.753      149.894       36.969        0.061      336.568        7.957      853.682
11/29/2014  04:41:00      -29.606      -22.160       -5.383       77.029       48.507       40.583     5933.496     2352.968     1646.972        0.566        0.497       36.981       37.011        1.002      336.574        7.967      853.729
11/29/2014  04:42:00       73.192       39.375       35.570       57.892       46.696       53.567     3351.487     2180.503     2869.419        0.829        0.420       83.111       48.622        0.342      336.584        7.986      853.678
11/29/2014  04:43:00       33.366       60.200       58.932       40.331       35.613       29.374     1626.620     1268.284      862.823        0.598        0.188       68.828       16.267        0.056      336.539        7.909      853.640
11/29/2014  04:44:00        9.028     -127.955        1.711       67.110      161.632       50.973     4503.703    26124.998     2598.207        2.484        1.661      128.274       50.495        0.155      336.544        7.917      853.699
11/29/2014  04:45:00       29.096      -54.595       33.796       75.304       76.812       51.309     5670.625     5900.058     2632.653        0.958        0.710       61.864       45.642        0.544      336.482        7.812      853.772
11/29/2014  04:46:00     -155.982      -98.573       -3.083       77.610       66.386       48.640     6023.274     4407.132     2365.827        2.342        0.640      184.519       44.254        0.058      336.526        7.886      853.847
11/29/2014  04:47:00      -59.246      -45.171        5.019       76.442       41.878       38.444     5843.323     1753.788     1477.956        0.732        0.454       74.501       44.149        0.351      336.514        7.868      853.836
11/29/2014  04:48:00     -172.455     -133.795       -7.127      108.629       66.199       42.065    11800.351     4382.320     1769.473        3.282        0.898      218.270       53.149        0.059      336.522        7.879      853.810
11/29/2014  04:49:00     -231.801     -148.788       -8.433       86.867       54.963       37.210     7545.863     3020.961     1384.598        4.394        0.598      275.444       38.121        0.019      336.540        7.907      853.831
11/29/2014  04:50:00     -107.598      -52.438        3.638       79.057       66.874       46.486     6249.999     4472.127     2160.943        1.361        0.644      119.696       40.750        0.116      336.508        7.857      853.883
11/29/2014  04:51:00      -64.155      -77.893      -12.023       61.269       33.254       31.567     3753.846     1105.850      996.472        0.809        0.293      100.912       34.721        0.118      336.515        7.870      853.851
11/29/2014  04:52:00      -19.627     -104.831        3.906       43.111       33.910       18.278     1858.521     1149.915      334.069        0.737        0.167      106.652       10.555        0.010      336.545        7.920      853.838
11/29/2014  04:53:00      -25.253       -4.608       12.256       36.888       36.322       21.457     1360.729     1319.308      460.391        0.197        0.157       25.670       11.122        0.188      336.532        7.898      853.868
11/29/2014  04:54:00      -13.698      -76.787       15.377       35.809       34.495       27.413     1282.307     1189.932      751.454        0.477        0.161       78.000       22.841        0.086      336.587        7.990      853.981
11/29/2014  04:55:00      131.505     -112.384      -33.630       58.147       76.896       40.700     3381.025     5912.932     1656.477        2.100        0.548      172.985       48.831        0.080      336.536        7.902      854.009
11/29/2014  04:56:00       60.915      -51.801       22.993       81.504       99.255       47.369     6642.841     9851.518     2243.814        1.283        0.937       79.962       60.301        0.569      336.577        7.970      853.924
11/29/2014  04:57:00       38.439      -24.163      101.957      113.055      144.041       99.554    12781.541    20747.681     9911.091        2.794        2.172       45.403      107.409        5.596      336.478        7.805      853.812
11/29/2014  04:58:00       56.415      -96.706       34.937       92.862      121.485       74.383     8623.289    14758.537     5532.874        2.133        1.446      111.958       64.336        0.330      336.454        7.765      853.825
11/29/2014  04:59:00       14.691      -84.819      -12.468       56.885       65.454       47.520     3235.910     4284.203     2258.176        0.867        0.489       86.082       38.498        0.200      336.524        7.883      853.878
11/29/2014  05:00:00      -38.995      -51.010       15.541       53.990       42.466       32.776     2914.893     1803.397     1074.283        0.508        0.290       64.208       24.610        0.147      336.558        7.940      853.937
11/29/2014  05:01:00       12.395      -58.116        0.346       80.837       74.028       51.071     6534.646     5480.183     2608.254        0.907        0.731       59.423       32.357        0.297      336.569        7.959      853.931
11/29/2014  05:02:00      -22.500     -122.013       -8.790       90.470       62.959       53.523     8184.854     3963.818     2864.708        1.524        0.751      124.070       38.061        0.094      336.630        8.061      853.878
11/29/2014  05:03:00      -42.272      -94.946       -8.270       63.065       78.937       36.993     3977.176     6231.037     1368.507        1.122        0.579      103.931       31.441        0.092      336.641        8.079      853.835
11/29/2014  05:04:00      -60.375     -100.653      -30.356       84.070      107.260       39.967     7067.774    11504.716     1597.327        1.743        1.008      117.372       41.805        0.127      336.564        7.950      853.747
11/29/2014  05:05:00      -28.332       -7.314       17.276       50.733       39.616       30.527     2573.864     1569.460      931.924        0.311        0.254       29.261       27.068        0.856      336.575        7.971      853.662
11/29/2014  05:06:00      -20.684      -21.583       -7.880       35.447       26.167       16.087     1256.463      684.714      258.798        0.158        0.110       29.894       11.728        0.154      336.636        8.072      853.652
11/29/2014  05:07:00      -60.629      -46.577       -0.027       95.056       55.809       33.223     9035.664     3114.609     1103.757        0.955        0.663       76.455       35.657        0.218      336.669        8.127      853.703
11/29/2014  05:08:00      -55.102      -92.540       33.118       90.984      132.924       48.297     8278.115    17668.828     2332.622        2.048        1.414      107.703       65.072        0.365      336.624        8.050      853.790
11/29/2014  05:09:00      -48.496      -35.911        2.845       46.360       52.170       35.105     2149.295     2721.715     1232.377        0.488        0.305       60.345       34.251        0.322      336.661        8.116      853.800
11/29/2014  05:10:00       92.955     -122.278        2.571       62.364       94.214       51.417     3889.230     8876.367     2643.745        1.950        0.770      153.598       60.912        0.157      336.712        8.197      853.790
11/29/2014  05:11:00     -113.608      -42.338       -8.202      111.095       50.429       34.362    12342.119     2543.119     1180.723        1.541        0.803      121.240       42.124        0.121      336.706        8.187      853.777
11/29/2014  05:12:00      -96.864      -91.239        9.806       77.730       62.670       36.495     6041.934     3927.579     1331.917        1.455        0.565      133.068       30.705        0.053      336.599        8.010      853.782
11/29/2014  05:13:00      -54.885      -67.458      -19.581       21.852       31.262       16.351      477.526      977.285      267.349        0.483        0.086       86.966        8.033        0.009      336.552        7.930      853.784
11/29/2014  05:14:00      -37.375      -66.249       -9.147       34.944       32.404       23.446     1221.098     1050.017      549.730        0.434        0.141       76.065       19.982        0.069      336.681        8.148      853.783
11/29/2014  05:15:00     -169.517     -136.183       -1.834       95.481       80.593       43.738     9116.695     6495.185     1913.045        3.240        0.876      217.444       47.564        0.048      336.657        8.105      853.803
11/29/2014  05:16:00     -157.629      -89.181       -0.825       91.368       78.518       42.364     8348.052     6165.007     1794.746        2.455        0.815      181.108       46.105        0.065      336.702        8.180      853.835
11/29/2014  05:17:00     -107.679      -71.303        0.104       57.387       59.939       38.947     3293.285     3592.694     1516.862        1.254        0.420      129.147       32.099        0.062      336.684        8.152      853.879
11/29/2014  05:18:00      -45.669      -71.439        0.008       27.647       33.647       21.331      764.382     1132.126      455.017        0.477        0.118       84.789       14.286        0.028      336.737        8.240      853.880
11/29/2014  05:19:00      -29.913      -28.367        4.924       34.305       24.040       19.534     1176.821      577.928      381.575        0.193        0.107       41.225       16.897        0.168      336.760        8.281      853.898
11/29/2014  05:20:00      -57.168      -50.546        5.798       53.954       36.768       21.829     2911.062     1351.893      476.524        0.530        0.237       76.309       19.662        0.066      336.767        8.291      853.913
11/29/2014  05:21:00      -81.196      -90.079       -7.138       27.035       35.925       16.832      730.914     1290.596      283.308        0.853        0.115      121.272        7.214        0.004      336.767        8.292      853.909
11/29/2014  05:22:00      -40.855      -60.427        8.310       25.011       53.376       22.810      625.569     2849.024      520.314        0.469        0.200       72.943       30.101        0.170      336.756        8.273      853.871
11/29/2014  05:23:00       33.088       25.034        7.841       21.761       21.542       27.827      473.531      464.042      774.329        0.175        0.086       41.491       10.612        0.065      336.773        8.301      853.853
11/29/2014  05:24:00      -12.310      -20.633        4.922       23.299       37.653       16.475      542.838     1417.723      271.435        0.142        0.112       24.026        8.765        0.133      336.747        8.260      853.875
11/29/2014  05:25:00      -50.419     -117.388       -2.975       24.365       77.671       25.339      593.651     6032.805      642.049        1.180        0.363      127.757       17.381        0.019      336.976        8.638      853.884
11/29/2014  05:26:00      -22.870      -67.720       21.654       29.668       51.016       23.855      880.168     2602.610      569.068        0.481        0.203       71.477       18.462        0.067      336.942        8.579      853.822
11/29/2014  05:27:00      -10.658      103.466      116.589       28.572       63.917       47.421      816.342     4085.418     2248.711        1.578        0.358      104.014       43.999        0.179      336.773        8.300      853.759
11/29/2014  05:28:00       56.128       86.609       85.608       76.160       65.128       49.569     5800.393     4241.597     2457.093        1.524        0.625      103.206       44.503        0.186      336.727        8.223      853.723
11/29/2014  05:29:00       97.148      126.337      139.860       89.667       78.369       49.303     8040.086     6141.772     2430.797        3.078        0.831      159.370       48.566        0.093      336.621        8.044      853.671
11/29/2014  05:30:00       80.789      183.359      183.577       94.253       88.400       64.702     8883.544     7814.571     4186.330        4.736        1.044      200.368       66.896        0.111      336.656        8.100      853.609
11/29/2014  05:31:00      116.353      149.646      149.110       79.665       72.087       51.702     6346.535     5196.530     2673.130        3.619        0.711      189.558       41.322        0.048      336.622        8.044      853.604
11/29/2014  05:32:00      115.876       90.123      100.920       73.195       68.988       53.528     5357.535     4759.397     2865.220        2.236        0.649      146.797       43.104        0.086      336.604        8.017      853.635
11/29/2014  05:33:00       90.879      112.708       96.122       89.350       69.607       71.734     7983.473     4845.098     5145.769        2.408        0.899      144.783       59.101        0.167      336.647        8.088      853.623
11/29/2014  05:34:00       43.180       -2.079       37.371       43.794       64.970       47.550     1917.958     4221.111     2261.019        0.583        0.420       43.230       49.703        1.322      336.617        8.040      853.621
11/29/2014  05:35:00       44.076      -42.220       13.441       49.556       31.518       28.279     2455.785      993.360      799.676        0.408        0.212       61.034       12.282        0.040      336.710        8.196      853.614
11/29/2014  05:36:00       74.105       24.645       34.706       60.227       63.141       34.320     3627.344     3986.752     1177.841        0.805        0.440       78.095       36.919        0.223      336.691        8.164      853.580
11/29/2014  05:37:00       91.648       56.544       16.963       61.393       44.077       24.934     3769.044     1942.803      621.706        0.911        0.317      107.688       22.241        0.043      336.561        7.948      853.535
11/29/2014  05:38:00       35.375       66.528       -5.921       30.221       49.166       27.700      913.287     2417.282      767.264        0.490        0.205       75.348       22.979        0.093      336.546        7.922      853.540
11/29/2014  05:39:00      -12.192      117.566      -24.965       40.122       33.374       17.583     1609.814     1113.845      309.161        0.881        0.152      118.197       13.602        0.013      336.707        8.190      853.594
11/29/2014  05:40:00       23.222      114.783      -19.928       39.723       52.518       25.779     1577.880     2758.173      664.567        0.956        0.250      117.109       27.139        0.054      336.714        8.202      853.600
11/29/2014  05:41:00       15.426      134.454      -13.504       31.987       70.989       30.572     1023.197     5039.438      934.663        1.275        0.350      135.336       33.131        0.060      336.660        8.111      853.534
11/29/2014  05:42:00       18.917       66.949       -7.141       25.444       31.119       20.651      647.413      968.400      426.456        0.347        0.102       69.571       16.362        0.055      336.695        8.170      853.542
11/29/2014  05:43:00       18.138       49.667       -8.011       24.919       22.323       16.794      620.941      498.310      282.033        0.213        0.070       52.875       13.906        0.069      336.635        8.070      853.577
11/29/2014  05:44:00      -40.353       42.388       -3.128       46.822       27.636       19.012     2192.300      763.726      361.443        0.338        0.166       58.524       27.557        0.222      336.642        8.081      853.588
11/29/2014  05:45:00       21.252       52.202       -0.645       43.566       22.702       15.079     1898.015      515.391      227.366        0.291        0.132       56.362       11.329        0.040      336.592        7.998      853.642
11/29/2014  05:46:00      142.274       79.515       33.018       43.741       37.762       30.517     1913.295     1425.962      931.307        1.596        0.214      162.987       19.747        0.015      336.615        8.037      853.679
11/29/2014  05:47:00       66.086       34.986        3.826       45.561       47.837       30.349     2075.771     2288.347      921.056        0.544        0.264       74.775       12.699        0.029      336.840        8.412      853.685
11/29/2014  05:48:00        1.150       65.570       -4.790       18.961       28.190       19.150      359.511      794.697      366.724        0.292        0.076       65.580        7.654        0.014      336.834        8.403      853.681
11/29/2014  05:49:00      -13.493      -28.751       -7.068       30.131       40.739       13.266      907.847     1659.669      175.982        0.190        0.137       31.760       11.731        0.136      336.846        8.422      853.727
11/29/2014  05:50:00      -76.745      -93.465       -9.495       99.403       58.960       28.637     9880.865     3476.278      820.053        1.444        0.709      120.936       41.358        0.117      336.715        8.202      853.804
11/29/2014  05:51:00      -83.578      -54.752       13.234       95.098       85.298       53.703     9043.641     7275.741     2884.042        1.468        0.960       99.916       59.305        0.352      336.721        8.213      853.842
11/29/2014  05:52:00     -109.395      -68.554       12.851       90.174       42.489       34.956     8131.296     1805.345     1221.894        1.399        0.558      129.101       45.298        0.123      336.678        8.142      853.911
11/29/2014  05:53:00      -56.562      -29.460        6.517       71.594       34.743       25.371     5125.667     1207.097      643.682        0.554        0.349       63.775       20.568        0.104      336.747        8.257      853.949
11/29/2014  05:54:00      -49.501      -42.783       -1.104       79.882       38.324       23.213     6381.154     1468.717      538.831        0.633        0.419       65.428       19.883        0.092      336.823        8.385      853.976
11/29/2014  05:55:00      -56.350      -29.469        8.784       59.824       59.759       36.632     3578.909     3571.101     1341.937        0.630        0.425       63.591       36.431        0.328      336.771        8.297      853.975
11/29/2014  05:56:00      -57.000      -24.816        6.851       60.892       37.947       25.039     3707.858     1439.975      626.941        0.484        0.289       62.168       24.586        0.156      336.763        8.285      854.008
11/29/2014  05:57:00     -100.644      -50.549        1.164       55.770       30.444       25.451     3110.280      926.821      647.732        0.868        0.234      112.625       19.943        0.031      336.727        8.224      854.064
11/29/2014  05:58:00     -157.704      -77.648        3.871       70.208       64.031       37.865     4929.122     4099.999     1433.787        2.069        0.523      175.783       36.938        0.044      336.680        8.143      854.104
11/29/2014  05:59:00     -175.512     -130.589       -6.423      102.077       79.438       48.545    10419.758     6310.351     2356.644        3.349        0.954      218.765       45.351        0.043      336.777        8.302      854.147
11/29/2014  06:00:00     -142.541     -110.497        0.924       92.194       92.070       47.065     8499.764     8476.948     2215.079        2.586        0.960      180.354       48.494        0.072      336.760        8.277      854.207
11/29/2014  06:01:00     -113.895     -123.589       -2.884       79.585       75.716       47.984     6333.722     5732.969     2302.491        2.131        0.718      168.066       51.739        0.095      336.756        8.270      854.240
11/29/2014  06:02:00     -219.830     -154.248       -3.195      148.796       70.893       65.714    22140.219     5025.770     4318.288        5.180        1.574      268.548       73.970        0.076      336.780        8.308      854.261
11/29/2014  06:03:00     -300.477     -125.554       -7.498       93.776       88.203       44.424     8793.918     7779.713     1973.459        6.232        0.927      325.654       34.773        0.011      336.788        8.322      854.311
11/29/2014  06:04:00     -263.194     -160.909        0.668      136.683      106.049       59.863    18682.302    11246.369     3583.606        6.433        1.676      308.484       65.761        0.045      336.715        8.201      854.370
11/29/2014  06:05:00     -282.375     -215.199      -19.789      151.268       87.897       64.034    22881.963     7725.838     4100.382        8.057        1.735      355.030       58.630        0.027      336.694        8.165      854.420
11/29/2014  06:06:00     -221.299     -136.733        3.805       93.509       97.696       52.433     8743.902     9544.508     2749.184        4.436        1.052      260.133       50.870        0.038      336.669        8.124      854.491
11/29/2014  06:07:00     -258.753     -243.667      -15.993      135.431      100.210       50.400    18341.535    10041.981     2540.202        7.875        1.546      355.424       46.894        0.017      336.552        7.928      854.515
11/29/2014  06:08:00     -292.195     -218.807       -2.754      146.497      129.223       72.728    21461.443    16698.649     5289.405        8.835        2.172      365.041       86.489        0.056      336.439        7.737      854.526
11/29/2014  06:09:00     -158.525     -189.158      -12.672       80.415       75.163       46.599     6466.648     5649.431     2171.431        3.768        0.714      246.802       34.104        0.019      336.427        7.716      854.549
11/29/2014  06:10:00      -77.373     -161.489        4.139       63.968       61.307       41.283     4091.883     3758.568     1704.251        2.082        0.478      179.068       37.382        0.044      336.452        7.761      854.531
11/29/2014  06:11:00      -63.595     -117.317       -4.399       97.172       89.696       60.791     9442.432     8045.298     3695.504        1.950        1.059      133.445       55.646        0.174      336.422        7.712      854.497
11/29/2014  06:12:00      -67.690      -75.286       -4.978       27.451       46.274       30.595      753.575     2141.238      936.055        0.705        0.192      101.242       31.348        0.096      336.506        7.853      854.471
11/29/2014  06:13:00      -30.920      -21.291       -1.850       58.788       58.673       30.307     3456.059     3442.574      918.505        0.461        0.391       37.541       33.832        0.812      336.378        7.640      854.433
11/29/2014  06:14:00      -97.819     -149.713       -3.043       74.541       89.926       44.183     5556.341     8086.716     1952.157        2.379        0.780      178.837       37.581        0.044      336.355        7.597      854.444
11/29/2014  06:15:00     -115.073      -53.281        0.066       73.617       51.986       31.617     5419.530     2702.529      999.648        1.260        0.456      126.809       30.508        0.058      336.302        7.511      854.473
11/29/2014  06:16:00      -47.397      -64.355       12.288       75.632       53.092       33.543     5720.139     2818.805     1125.135        0.810        0.483       79.925       37.048        0.215      336.251        7.427      854.471
11/29/2014  06:17:00     -115.626       -4.539      -19.846       43.543       49.441       31.272     1895.969     2444.456      977.914        0.955        0.266      115.716       19.290        0.028      336.187        7.321      854.442
11/29/2014  06:18:00     -173.423     -111.940        3.351       91.971       78.927       42.615     8458.587     6229.393     1816.079        2.956        0.825      206.413       39.536        0.037      336.135        7.231      854.444
11/29/2014  06:19:00     -161.818      -54.185       -1.341       92.055       82.226       44.219     8474.052     6761.166     1955.323        2.315        0.860      170.649       45.644        0.072      336.081        7.141      854.456
11/29/2014  06:20:00      -82.544      -71.761        0.163       56.258       46.596       26.761     3165.008     2171.208      716.141        0.901        0.303      109.376       32.678        0.089      336.094        7.164      854.462
11/29/2014  06:21:00      -64.514      -49.151        3.965       59.548       32.411       20.908     3545.961     1050.467      437.152        0.581        0.252       81.104       20.685        0.065      336.093        7.163      854.460
11/29/2014  06:22:00      -59.043     -124.252       -3.017       40.037       28.156       19.247     1602.989      792.759      370.454        1.085        0.138      137.567       13.570        0.010      336.171        7.294      854.451
11/29/2014  06:23:00      -37.771     -102.518        3.364       24.170       61.013       14.360      584.195     3722.586      206.206        0.823        0.226      109.255       17.265        0.025      336.099        7.174      854.432
11/29/2014  06:24:00      -85.559     -103.385        2.422       43.654       39.562       23.478     1905.631     1565.184      551.215        1.102        0.201      134.197       23.294        0.030      336.138        7.238      854.403
11/29/2014  06:25:00      -44.369      -59.629       -5.065       27.528       28.064       18.081      757.771      787.568      326.938        0.371        0.094       74.326       16.994        0.052      336.181        7.310      854.372
11/29/2014  06:26:00      -65.951      -51.489       -7.517       27.144       28.241       17.621      736.807      797.546      310.500        0.445        0.092       83.670       10.320        0.015      336.190        7.325      854.341
11/29/2014  06:27:00      -37.900      -33.107        7.012       28.029       27.792       18.903      785.636      772.400      357.342        0.225        0.096       50.324       16.922        0.113      336.113        7.196      854.303
11/29/2014  06:28:00      -56.742      -45.668       13.023       56.728       44.740       29.225     3218.028     2001.686      854.072        0.577        0.304       72.837       31.797        0.191      336.080        7.141      854.275
11/29/2014  06:29:00      -48.250      -32.290       -1.588       34.881       30.692       16.767     1216.697      941.972      281.135        0.291        0.122       58.058       17.838        0.094      336.117        7.202      854.264
11/29/2014  06:30:00      -43.450      -37.370       -4.327       20.735       15.835       10.495      429.945      250.761      110.141        0.205        0.040       57.310       10.002        0.030      336.052        7.093      854.233
11/29/2014  06:31:00     -100.085      -40.089       -1.861       53.133       29.010       17.862     2823.150      841.586      319.051        0.780        0.199      107.815       12.938        0.014      335.982        6.979      854.195
11/29/2014  06:32:00     -129.707      -52.313        4.538       36.949       35.828       24.712     1365.212     1283.662      610.704        1.142        0.163      139.859       20.872        0.022      335.885        6.817      854.174
11/29/2014  06:33:00     -100.677      -56.626       -0.159       53.671       41.313       30.487     2880.563     1706.782      929.435        0.943        0.276      115.509       26.468        0.053      335.926        6.884      854.168
11/29/2014  06:34:00     -104.721      -87.403        6.178       65.422       52.595       33.175     4280.079     2766.278     1100.558        1.339        0.407      136.403       36.082        0.070      335.924        6.880      854.168
11/29/2014  06:35:00     -185.611      -15.612       -1.570       84.605       69.511       40.981     7158.003     4831.763     1679.418        2.418        0.683      186.267       45.194        0.059      336.070        7.122      854.156
11/29/2014  06:36:00      -83.230      -23.785       -5.129       44.824       37.179       24.012     2009.221     1382.251      576.553        0.574        0.198       86.561       17.738        0.042      335.983        6.980      854.158
11/29/2014  06:37:00      -92.680      -71.942       -3.169       38.155       38.615       21.863     1455.775     1491.080      477.973        0.860        0.171      117.325       23.423        0.040      335.940        6.907      854.189
11/29/2014  06:38:00     -110.814      -76.329      -17.243       60.500       54.797       38.517     3660.281     3002.661     1483.584        1.327        0.407      134.558       34.948        0.067      335.957        6.935      854.227
11/29/2014  06:39:00     -144.398     -131.880       -1.218       67.304       52.231       33.754     4529.826     2728.124     1139.349        2.332        0.420      195.559       34.423        0.031      335.950        6.923      854.246
11/29/2014  06:40:00     -132.734     -114.650       -3.344       64.594       46.849       27.968     4172.336     2194.807      782.200        1.896        0.357      175.394       26.660        0.023      335.908        6.852      854.229
11/29/2014  06:41:00      -78.153      -82.640        7.985       48.972       57.330       24.689     2398.257     3286.776      609.541        0.965        0.315      113.742       22.672        0.040      335.862        6.779      854.176
11/29/2014  06:42:00      -93.540      -65.959       -6.131       36.530       36.790       24.646     1334.427     1353.540      607.411        0.822        0.165      114.456       20.407        0.032      335.841        6.744      854.110
11/29/2014  06:43:00      -70.740      -27.156       -1.797       30.258       19.897       15.419      915.568      395.900      237.744        0.365        0.077       75.774       14.739        0.038      335.810        6.693      854.064
11/29/2014  06:44:00      -49.388      -57.709       -1.047       28.312       35.950       17.016      801.583     1292.419      289.542        0.408        0.119       75.957       16.632        0.048      335.841        6.744      854.057
11/29/2014  06:45:00      -76.594      -91.060       -5.897       34.900       31.676       22.687     1218.011     1003.367      514.711        0.846        0.137      118.990       20.160        0.029      335.849        6.757      854.062
11/29/2014  06:46:00      -63.107      -20.288        6.220       47.002       36.484       27.262     2209.199     1331.073      743.219        0.436        0.214       66.288       25.925        0.153      335.845        6.751      854.068
11/29/2014  06:47:00      -46.432      -54.942        3.128       39.145       57.035       19.399     1532.362     3252.944      376.314        0.517        0.258       71.934       20.626        0.082      335.879        6.807      854.072
11/29/2014  06:48:00      -33.655     -127.820       -1.898       48.039       43.471       27.848     2307.699     1889.760      775.538        1.122        0.249      132.177       21.661        0.027      335.929        6.889      854.116
11/29/2014  06:49:00      -72.755      -66.184       -3.316       51.226       51.340       25.554     2624.071     2635.760      653.007        0.780        0.296       98.355       27.907        0.081      335.872        6.794      854.168
11/29/2014  06:50:00      -91.736     -108.013       -0.395       57.524       54.615       28.194     3309.057     2982.848      794.915        1.358        0.354      141.712       29.355        0.043      335.830        6.722      854.232
11/29/2014  06:51:00      -64.200     -104.713       -2.809       63.385       53.300       33.672     4017.609     2840.883     1133.814        1.154        0.400      122.827       30.692        0.062      335.869        6.789      854.300
11/29/2014  06:52:00     -100.823     -171.703       -7.433       66.895       55.387       29.363     4474.889     3067.684      862.206        2.405        0.420      199.116       29.095        0.021      335.801        6.673      854.327
11/29/2014  06:53:00      -30.972      -79.048       11.386       56.040       61.482       31.041     3140.517     3780.013      963.561        0.761        0.394       84.899       25.750        0.092      335.841        6.743      854.303
11/29/2014  06:54:00      -56.183      -75.451       -4.836       48.702       64.373       31.581     2371.861     4143.871      997.351        0.819        0.376       94.071       23.258        0.061      335.966        6.951      854.225
11/29/2014  06:55:00        4.240      -32.497       23.968       51.148       41.407       47.555     2616.068     1714.572     2261.482        0.412        0.330       32.773       24.597        0.563      335.811        6.694      854.069
11/29/2014  06:56:00       17.328       -0.160       58.526       41.927       66.824       48.872     1757.834     4465.390     2388.463        0.617        0.431       17.329       43.490        6.299      335.731        6.561      853.911
11/29/2014  06:57:00       52.566      -51.137       81.271       70.287      117.331       83.228     4940.305    13766.657     6926.901        1.880        1.282       73.337       85.297        1.353      335.754        6.596      853.772
11/29/2014  06:58:00      181.028     -187.194      -25.569      102.329       98.346       77.734    10471.282     9671.941     6042.553        4.732        1.309      260.409       73.384        0.079      335.767        6.616      853.747
11/29/2014  06:59:00       22.124      -83.155       10.646       68.086       91.085       61.459     4635.637     8296.393     3777.168        1.211        0.835       86.048       42.325        0.242      335.779        6.642      853.795
11/29/2014  07:00:00     -112.229      -49.088       -7.688       50.373       44.370       27.467     2537.422     1968.708      754.439        1.016        0.263      122.495        8.025        0.004      335.897        6.835      853.942
11/29/2014  07:01:00     -104.531      -17.145       -0.667       54.133       41.637       23.950     2930.421     1733.616      573.607        0.823        0.262      105.928       17.564        0.027      335.797        6.669      854.036
11/29/2014  07:02:00     -129.196      -84.599       -7.224       58.471       46.257       29.234     3418.845     2139.747      854.655        1.516        0.321      154.430       29.444        0.036      335.753        6.596      854.078
11/29/2014  07:03:00     -170.389      -71.854        2.442       76.573       56.677       30.170     5863.386     3212.289      910.233        2.209        0.499      184.920       37.976        0.042      335.714        6.530      854.128
11/29/2014  07:04:00     -165.327      -53.156        5.908       79.775       46.247       32.703     6363.989     2138.743     1069.462        1.988        0.479      173.662       39.335        0.051      335.705        6.514      854.130
11/29/2014  07:05:00     -123.186      -57.281        1.004       71.988       51.634       31.333     5182.229     2666.101      981.728        1.364        0.442      135.852       31.631        0.054      335.716        6.534      854.095
11/29/2014  07:06:00     -115.588      -51.697       10.307       69.038       55.322       34.639     4766.217     3060.514     1199.857        1.258        0.451      126.622       30.516        0.058      335.707        6.520      854.054
11/29/2014  07:07:00     -182.287     -102.894       -9.341       41.164       52.692       30.283     1694.496     2776.462      917.039        2.464        0.269      209.322       23.970        0.013      335.675        6.466      854.034
11/29/2014  07:08:00     -209.503     -163.467      -10.674       73.698       70.120       45.079     5431.343     4916.760     2032.153        4.155        0.619      265.731       40.964        0.024      335.623        6.377      854.053
11/29/2014  07:09:00     -234.950     -111.588      -14.374       87.521       92.242       36.841     7659.981     8508.497     1357.246        4.269        0.876      260.103       31.477        0.015      335.612        6.359      854.030
11/29/2014  07:10:00     -159.783     -172.239      -11.261      116.602      102.728       57.651    13595.946    10553.024     3323.655        4.139        1.374      234.940       64.521        0.075      335.584        6.313      853.972
11/29/2014  07:11:00     -158.078      -89.463        0.156      110.730       82.157       43.246    12261.168     6749.830     1870.208        2.693        1.044      181.638       48.825        0.072      335.580        6.309      853.970
11/29/2014  07:12:00     -178.785     -142.697        9.680      122.225       86.000       68.418    14938.944     7396.005     4681.057        3.971        1.351      228.750       71.544        0.098      335.553        6.260      854.034
11/29/2014  07:13:00     -243.584     -163.765        6.009      161.471       99.044       56.095    26072.768     9809.686     3146.598        6.260        1.951      293.517       62.355        0.045      335.535        6.230      854.117
11/29/2014  07:14:00     -184.415     -165.972       -8.215       93.803       76.135       49.758     8798.913     5796.477     2475.901        3.934        0.854      248.104       46.144        0.035      335.529        6.220      854.215
11/29/2014  07:15:00     -210.574     -120.638       -4.060      100.736       98.374       52.760    10147.834     9677.480     2783.611        4.076        1.130      242.682       59.230        0.060      335.548        6.251      854.266
11/29/2014  07:16:00     -189.829     -135.722        3.009       73.033       77.773       42.180     5333.880     6048.659     1779.189        3.381        0.658      233.357       38.351        0.027      335.582        6.308      854.337
11/29/2014  07:17:00     -230.484     -190.447      -17.842       96.749      102.848       54.765     9360.427    10577.780     2999.192        5.632        1.147      298.986       46.807        0.025      335.599        6.336      854.374
11/29/2014  07:18:00     -211.755     -155.884       -4.383       95.662       80.504       52.795     9151.267     6480.863     2787.317        4.379        0.921      262.945       51.580        0.038      335.585        6.313      854.344
11/29/2014  07:19:00     -285.240     -145.698        6.755      158.256      121.125       69.815    25045.044    14671.330     4874.139        7.360        2.230      320.296       74.246        0.054      335.607        6.350      854.313
11/29/2014  07:20:00     -250.418     -163.352       -3.564      134.597      100.759       64.428    18116.451    10152.440     4151.009        6.091        1.621      298.987       64.676        0.047      335.600        6.339      854.313
11/29/2014  07:21:00     -231.311     -194.728        4.127      126.878      123.854       62.202    16098.082    15339.854     3869.058        6.337        1.765      302.363       59.477        0.039      335.585        6.314      854.266
11/29/2014  07:22:00     -249.238     -168.711      -18.306       97.090      116.562       59.881     9426.524    13586.607     3585.723        5.875        1.330      300.970       47.984        0.025      335.613        6.359      854.169
11/29/2014  07:23:00     -145.724     -134.895       12.639      122.973       94.199       64.331    15122.426     8873.507     4138.428        3.386        1.407      198.575       63.733        0.103      335.596        6.333      854.073
11/29/2014  07:24:00     -127.108     -107.536       21.226      134.216      103.713       61.639    18014.018    10756.479     3799.397        3.036        1.628      166.494       66.789        0.161      335.570        6.290      854.035
11/29/2014  07:25:00      -81.198      -59.950       21.324       68.116       63.046       34.144     4639.834     3974.814     1165.828        1.021        0.489      100.931       37.066        0.135      335.556        6.267      853.987
11/29/2014  07:26:00     -151.709     -132.434        4.676      134.253       90.544       55.666    18023.930     8198.141     3098.752        3.494        1.466      201.381       62.921        0.098      335.529        6.222      853.859
11/29/2014  07:27:00     -265.083     -173.574      -12.586       86.080       73.301       37.481     7409.680     5373.052     1404.801        5.737        0.709      316.854       23.514        0.006      335.528        6.219      853.765
11/29/2014  07:28:00     -240.556     -153.625       -6.865      108.048       68.237       49.645    11674.439     4656.300     2464.637        5.015        0.940      285.426       51.969        0.033      335.509        6.187      853.825
11/29/2014  07:29:00     -203.844     -161.814       -0.491      105.095       92.007       56.512    11044.889     8465.359     3193.556        4.522        1.135      260.262       62.187        0.057      335.482        6.141      853.915
11/29/2014  07:30:00     -194.097     -119.203        8.688      127.835       90.999       52.749    16341.850     8280.826     2782.440        3.968        1.370      227.779       55.985        0.060      335.470        6.122      853.933
11/29/2014  07:31:00     -157.789     -147.915        2.314      106.483       87.060       56.905    11338.591     7579.406     3238.163        3.446        1.108      216.278       59.511        0.076      335.504        6.179      853.937
11/29/2014  07:32:00     -196.857     -102.537       12.259      105.704       73.994       49.466    11173.302     5475.057     2446.907        3.425        0.955      221.961       54.573        0.060      335.493        6.160      853.937
11/29/2014  07:33:00     -102.369     -132.772        6.377       84.550       70.665       44.455     7148.739     4993.537     1976.281        2.113        0.706      167.654       41.793        0.062      335.505        6.182      853.915
11/29/2014  07:34:00     -204.785     -120.761       -8.849       65.959       74.771       46.533     4350.595     5590.670     2165.275        3.435        0.605      237.739       37.668        0.025      335.459        6.103      853.886
11/29/2014  07:35:00     -168.684     -110.892        1.144       66.772       83.288       44.634     4458.436     6936.965     1992.210        2.707        0.669      201.870       42.393        0.044      335.473        6.128      853.896
11/29/2014  07:36:00     -179.670     -132.729        6.623      105.302       86.103       51.409    11088.482     7413.646     2642.881        3.554        1.057      223.379       55.626        0.062      335.463        6.111      853.892
11/29/2014  07:37:00     -212.288     -102.818      -13.322       68.688       57.655       38.067     4718.035     3324.070     1449.069        3.265        0.475      235.877       34.113        0.021      335.443        6.076      853.818
11/29/2014  07:38:00     -105.366      -55.876       -4.189       49.003       41.733       27.256     2401.337     1741.650      742.911        0.956        0.244      119.265       25.601        0.046      335.431        6.059      853.778
11/29/2014  07:39:00     -174.827      -83.936       -8.693       39.663       48.396       28.958     1573.153     2342.206      838.564        2.122        0.238      193.932       16.283        0.007      335.482        6.145      853.842
11/29/2014  07:40:00     -142.820      -93.752        5.300       97.394       72.977       48.626     9485.495     5325.646     2364.460        2.319        0.859      170.842       52.169        0.093      335.477        6.136      853.943
11/29/2014  07:41:00     -251.639     -148.843      -10.964       82.019      100.460       54.318     6727.135    10092.198     2950.412        5.268        0.988      292.364       48.414        0.027      335.514        6.195      853.975
11/29/2014  07:42:00     -171.942     -132.876      -13.053       90.390       74.119       43.910     8170.391     5493.596     1928.117        3.149        0.780      217.302       45.889        0.045      335.519        6.205      854.014
11/29/2014  07:43:00     -223.252     -130.939        4.180      119.351      105.766       48.721    14244.662    11186.520     2373.734        4.740        1.390      258.817       54.043        0.044      335.536        6.233      854.097
11/29/2014  07:44:00     -108.336     -143.594       -1.520      117.789       73.166       47.089    13874.155     5353.283     2217.348        2.690        1.072      179.878       53.885        0.090      335.563        6.279      854.105
11/29/2014  07:45:00      -56.411      -50.303       -0.099       55.995       48.999       29.025     3135.459     2400.939      842.432        0.604        0.319       75.582       23.686        0.098      335.707        6.520      854.012
11/29/2014  07:46:00     -142.882     -150.136       -9.918       64.402       64.442       35.715     4147.580     4152.796     1275.571        2.631        0.479      207.259       35.021        0.029      335.653        6.429      854.094
11/29/2014  07:47:00      -15.221     -107.292       -6.079       67.433       49.009       35.718     4547.269     2401.919     1275.788        1.000        0.411      108.367       29.946        0.076      335.640        6.408      854.046
11/29/2014  07:48:00      -26.431      -56.117       -6.788       52.543       75.882       26.178     2760.794     5758.047      685.271        0.655        0.460       62.030       27.869        0.202      335.633        6.396      853.871
11/29/2014  07:49:00     -150.159      -65.550        1.317       72.113       55.090       29.117     5200.221     3034.884      847.804        1.796        0.454      163.843       29.160        0.032      335.671        6.460      853.946
11/29/2014  07:50:00      -74.710     -115.482       -0.205       65.591       49.197       32.145     4302.158     2420.326     1033.295        1.334        0.388      137.542       34.642        0.063      335.632        6.396      853.943
11/29/2014  07:51:00       24.017     -107.765       -6.007       60.907       65.393       45.920     3709.624     4276.189     2108.631        1.116        0.505      110.409       27.783        0.063      335.635        6.399      853.946
11/29/2014  07:52:00       67.404      -29.437       27.327       75.333       56.129       45.253     5674.996     3150.446     2047.819        0.851        0.544       73.552       55.747        0.574      335.548        6.256      853.980
11/29/2014  07:53:00        9.651     -110.280        0.207       57.068       81.627       56.866     3256.722     6663.033     3233.714        1.270        0.658      110.701       53.089        0.230      335.626        6.385      854.000
11/29/2014  07:54:00       19.363       25.153       67.892       47.268       58.976       53.538     2234.300     3478.210     2866.284        0.710        0.429       31.743       47.342        2.224      335.607        6.354      853.992
11/29/2014  07:55:00       71.151      -76.205       35.206       79.264      123.286       80.811     6282.842    15199.453     6530.349        2.006        1.401      104.257       96.254        0.852      335.620        6.373      853.962
11/29/2014  07:56:00       78.934      -63.002       24.555       84.141       93.289       72.858     7079.703     8702.852     5308.355        1.594        1.055      100.994       67.260        0.444      335.642        6.410      853.954
11/29/2014  07:57:00       29.070      -86.341       42.240       58.976      129.092       83.297     3478.204    16664.739     6938.352        1.858        1.354       91.103       89.314        0.961      335.697        6.502      853.964
11/29/2014  07:58:00       87.735     -159.856      -28.609      117.115      102.046       48.562    13715.859    10413.347     2358.282        3.027        1.324      182.350       72.260        0.157      335.788        6.651      854.024
11/29/2014  07:59:00       27.270        7.490       48.036       60.911       71.570       63.360     3710.102     5122.304     4014.513        0.797        0.642       28.280       32.880        1.352      335.705        6.518      854.002
11/29/2014  08:00:00        5.829      -64.024        8.502       99.092       84.541       65.834     9819.159     7147.144     4334.133        1.275        1.065       64.289       46.930        0.533      335.724        6.548      854.000
11/29/2014  08:01:00      -41.009      -17.404       20.782       42.822       44.710       30.275     1833.725     1999.027      916.584        0.358        0.237       44.549       14.241        0.102      335.751        6.595      854.024
11/29/2014  08:02:00       17.746      -16.014       48.183       54.542       57.942       39.459     2974.870     3357.294     1556.989        0.539        0.394       23.903       30.784        1.659      335.760        6.608      854.041
11/29/2014  08:03:00      -24.502      -35.319       44.879       43.752       51.122       41.329     1914.206     2613.448     1708.122        0.505        0.312       42.986       40.121        0.871      335.746        6.585      854.070
11/29/2014  08:04:00       11.075        9.271       58.992       27.279       51.536       33.505      744.169     2655.966     1122.611        0.410        0.226       14.443       17.016        1.388      335.770        6.625      854.089
11/29/2014  08:05:00        3.633       28.395       86.634       45.580       74.844       50.301     2077.533     5601.630     2530.212        0.927        0.510       28.626       51.390        3.223      335.753        6.596      854.081
11/29/2014  08:06:00       34.628       11.368       88.981       67.891       99.727       74.613     4609.149     9945.557     5567.072        1.468        1.006       36.446       63.271        3.014      335.794        6.663      854.072
11/29/2014  08:07:00       27.375      -83.950       32.370       70.787      105.925       88.345     5010.772    11220.099     7804.916        1.644        1.202       88.301       77.026        0.761      335.828        6.720      854.054
11/29/2014  08:08:00       99.748     -104.878       23.351       98.852      123.914       71.242     9771.785    15354.566     5075.413        2.584        1.510      144.738       72.254        0.249      335.858        6.771      854.056
11/29/2014  08:09:00        2.281     -104.730       21.275       75.055      100.404       63.474     5633.293    10081.040     4028.944        1.558        0.987      104.755       67.517        0.415      335.904        6.846      854.143
11/29/2014  08:10:00       28.473      -59.417       66.347       77.101       98.041       71.538     5944.525     9611.943     5117.677        1.470        1.034       65.887       59.993        0.829      335.916        6.868      854.196
11/29/2014  08:11:00       20.241       38.994      111.787       74.854       99.126       65.640     5603.088     9825.877     4308.659        1.708        0.987       43.935       43.668        0.988      335.904        6.847      854.185
11/29/2014  08:12:00       55.453      -28.517       80.100       75.231      103.619       64.967     5659.765    10736.881     4220.752        1.546        1.031       62.356       55.102        0.781      335.888        6.822      854.177
11/29/2014  08:13:00       84.916     -161.845      -18.968       87.137      111.202       80.778     7592.942    12365.802     6525.092        3.012        1.324      182.769       78.268        0.183      335.963        6.944      854.205
11/29/2014  08:14:00       64.717     -113.787       -7.569       74.608      100.694       64.123     5566.357    10139.333     4111.766        1.850        0.991      130.903       62.270        0.226      335.991        6.990      854.293
11/29/2014  08:15:00       25.371      -64.899       -4.541       61.116       46.435       34.785     3735.126     2156.168     1209.971        0.599        0.355       69.682       23.640        0.115      336.094        7.165      854.360
11/29/2014  08:16:00       26.620      -56.476       11.984       72.166       47.948       32.141     5207.924     2298.995     1033.045        0.629        0.427       62.435       18.613        0.089      336.037        7.070      854.404
11/29/2014  08:17:00        6.272      130.250      141.683       41.970       69.581       57.928     1761.477     4841.569     3355.671        2.352        0.498      130.401       61.384        0.222      335.838        6.737      854.391
11/29/2014  08:18:00       18.368       17.324       77.073       60.425      102.350       62.763     3651.121    10475.500     3939.140        1.232        0.903       25.249       74.198        8.636      335.880        6.808      854.396
11/29/2014  08:19:00      166.128     -125.017      -14.249       99.621      123.478       83.272     9924.433    15246.748     6934.275        3.776        1.605      207.913       89.188        0.184      335.701        6.508      854.430
11/29/2014  08:20:00       16.307      158.820      209.369       71.536      110.126       60.150     5117.440    12127.755     3618.046        4.509        1.043      159.655       66.100        0.171      335.765        6.613      854.413
11/29/2014  08:21:00       77.052      -33.298       45.461       75.058      125.085       79.792     5633.747    15646.318     6366.696        1.837        1.382       83.939       93.149        1.231      335.850        6.756      854.364
11/29/2014  08:22:00       74.145      -28.867       30.666       55.064       87.519       58.952     3031.994     7659.608     3475.389        1.072        0.708       79.566       68.518        0.742      335.892        6.828      854.344
11/29/2014  08:23:00       13.598       19.906       28.091       86.321       57.800       40.725     7451.371     3340.841     1658.487        0.691        0.623       24.107       36.884        2.341      335.887        6.819      854.356
11/29/2014  08:24:00       20.716      -17.208       16.992       32.494       54.649       26.175     1055.834     2986.463      685.129        0.287        0.236       26.931       30.032        1.244      336.041        7.076      854.391
11/29/2014  08:25:00       77.052      -63.760       38.039       82.833      109.771       63.142     6861.386    12049.688     3986.974        1.717        1.145      100.012       76.409        0.584      335.961        6.941      854.380
11/29/2014  08:26:00       23.296        7.243       50.478       49.447       83.322       51.240     2445.000     6942.540     2625.526        0.758        0.601       24.397       53.571        4.822      335.881        6.811      854.317
11/29/2014  08:27:00       27.142       61.937       96.562       61.518       52.088       39.973     3784.456     2713.199     1597.820        1.099        0.405       67.623       35.930        0.282      335.851        6.759      854.264
11/29/2014  08:28:00       53.602       15.250       48.188       57.157       80.574       53.785     3266.881     6492.097     2892.816        0.904        0.633       55.729       57.972        1.082      335.820        6.707      854.228
11/29/2014  08:29:00      108.658      -19.383       78.257      113.972      155.706       82.804    12989.506    24244.388     6856.568        3.119        2.205      110.374      104.644        0.899      335.783        6.643      854.227
11/29/2014  08:30:00      157.565     -109.230       44.664      143.328      169.485       80.355    20542.866    28725.077     6456.883        4.723        2.786      191.723      114.596        0.357      335.766        6.617      854.290
11/29/2014  08:31:00      154.908      -62.329       64.247      148.058      181.882      117.833    21921.286    33081.151    13884.575        5.043        3.444      166.978      139.258        0.696      335.737        6.568      854.273
11/29/2014  08:32:00       11.811       96.730      155.192       60.418       98.408       69.215     3650.302     9684.067     4790.727        2.585        0.906       97.448       67.027        0.473      335.759        6.605      854.277
11/29/2014  08:33:00       55.927      -21.564       74.900       67.438      166.673      104.373     4547.938    27779.859    10893.803        2.620        2.161       59.941      122.339        4.166      335.791        6.658      854.279
11/29/2014  08:34:00       -3.371       50.850      101.216       63.608       77.854       78.996     4045.924     6061.196     6240.342        1.459        0.817       50.961       62.194        1.489      335.765        6.616      854.282
11/29/2014  08:35:00      190.525     -281.158      -33.945      121.790      124.718       83.380    14832.746    15554.551     6952.269        7.691        1.867      339.632       76.682        0.051      335.708        6.518      854.286
11/29/2014  08:36:00      166.167     -183.950       -9.996       88.310       96.539       75.893     7798.581     9319.776     5759.673        4.221        1.144      247.889       76.881        0.096      335.716        6.532      854.370
11/29/2014  08:37:00      165.710      -42.931       67.770      122.879      140.882       95.557    15099.315    19847.688     9131.223        3.898        2.204      171.181       86.829        0.257      335.725        6.549      854.316
11/29/2014  08:38:00       14.153       78.607      146.485      111.867      171.955      117.194    12514.196    29568.444    13734.349        4.182        2.791       79.871      128.139        2.574      335.747        6.584      854.277
11/29/2014  08:39:00      174.449       31.989      112.906      188.645      225.651      150.590    35587.096    50918.555    22677.375        7.667        5.459      177.358      146.972        0.687      335.862        6.775      854.145
11/29/2014  08:40:00      292.205     -236.508      -31.116      162.378      199.832      115.513    26366.640    39932.792    13343.214       11.095        3.982      375.925      145.120        0.149      335.759        6.604      854.231
11/29/2014  08:41:00       36.088       23.833      116.408       93.839      131.192       66.035     8805.793    17211.468     4360.661        2.289        1.519       43.247       85.231        3.884      335.785        6.649      854.246
11/29/2014  08:42:00      168.239      -97.410       55.726      133.537      134.726      102.624    17832.264    18150.978    10531.757        4.370        2.326      194.404      101.885        0.275      335.760        6.604      854.217
11/29/2014  08:43:00      105.823     -196.594        3.565      115.751      168.302       89.044    13398.303    28325.654     7928.807        4.975        2.483      223.267       95.425        0.183      335.774        6.628      854.272
11/29/2014  08:44:00      102.301     -125.013       65.915      124.320      215.804      124.744    15455.482    46571.445    15561.071        5.400        3.879      161.536      150.916        0.873      335.731        6.558      854.314
11/29/2014  08:45:00       71.129      -87.587       52.987       97.200      194.399      114.382     9447.838    37790.841    13083.141        3.792        3.016      112.830      127.703        1.281      335.775        6.631      854.309
11/29/2014  08:46:00      150.727        4.205      130.525      195.690      225.881      139.429    38294.428    51022.217    19440.582        7.424        5.438      150.786      175.516        1.355      335.708        6.518      854.243
11/29/2014  08:47:00      213.171     -202.839       23.781      151.230      204.746      119.286    22870.532    41921.102    14229.065        8.307        3.951      294.255      131.447        0.200      335.695        6.498      854.216
11/29/2014  08:48:00      146.902       -3.437      145.479      206.291      314.287      197.885    42555.967    98776.236    39158.288       11.159        9.025      146.942      250.846        2.914      335.695        6.497      854.201
11/29/2014  08:49:00      240.495     -219.902       15.124      174.533      187.617       85.613    30461.792    35199.965     7329.648        8.969        3.650      325.875       97.639        0.090      335.693        6.493      854.202
11/29/2014  08:50:00      348.352     -329.460      -28.160      185.119      241.106      139.335    34268.867    58132.214    19414.176       17.123        5.591      479.472      131.312        0.075      335.699        6.504      854.061
11/29/2014  08:51:00      162.729     -171.415       12.109      119.347      197.508      100.051    14243.736    39009.406    10010.109        5.962        3.163      236.356      104.008        0.194      335.725        6.548      854.065
11/29/2014  08:52:00      109.812      -92.419       77.489      145.570      164.587      130.104    21190.720    27089.031    16926.924        4.589        3.260      143.526      109.252        0.579      335.731        6.557      854.132
11/29/2014  08:53:00      116.150     -100.549       81.817      155.218      202.465      111.785    24092.493    40991.961    12495.793        5.392        3.879      153.626      127.789        0.692      335.771        6.625      854.248
11/29/2014  08:54:00      257.160     -239.834       29.034      224.911      253.688      137.515    50584.992    64357.599    18910.485       12.915        6.693      351.641      185.484        0.278      335.741        6.575      854.203
11/29/2014  08:55:00      203.324     -324.874       17.132      190.085      253.522      136.130    36132.454    64273.160    18531.496       13.303        5.947      383.254      159.500        0.173      335.828        6.718      854.135
11/29/2014  08:56:00      101.365     -129.143       55.598      144.211      177.567      108.162    20796.831    31530.024    11699.123        4.702        3.201      164.173      123.921        0.570      335.899        6.837      854.231
11/29/2014  08:57:00       93.538     -222.188       10.656      168.139      203.199      115.955    28270.639    41289.894    13445.677        7.060        4.150      241.074      116.454        0.233      335.930        6.891      854.282
11/29/2014  08:58:00      151.182     -298.627        4.669      122.731      148.341       82.567    15062.962    22004.948     6817.262        7.796        2.194      334.715       75.292        0.051      336.030        7.055      854.318
11/29/2014  08:59:00      -13.526      -20.640      113.490       95.633      159.639      111.495     9145.699    25484.519    12431.107        3.027        2.353       24.677      112.754       20.877      335.977        6.968      854.319
11/29/2014  09:00:00       92.754     -305.418      -44.596      145.390      155.171       93.395    21138.214    24078.115     8722.671        7.889        2.697      319.192       87.386        0.075      336.014        7.027      854.292
11/29/2014  09:01:00      -95.161      -72.665        3.529      144.811      137.073       63.665    20970.127    18789.090     4053.237        2.907        2.191      119.732       61.283        0.262      336.633        8.063      854.310
11/29/2014  09:02:00     -157.956     -131.784       18.519      132.621       89.158       60.344    17588.383     7949.208     3641.433        3.591        1.459      205.711       63.171        0.094      336.633        8.064      854.229
11/29/2014  09:03:00     -160.887     -166.093      -38.760      155.999      117.468       63.065    24335.631    13798.750     3977.200        4.853        2.106      231.239       58.554        0.064      336.447        7.751      854.316
11/29/2014  09:04:00      -65.940      -49.696       18.062       65.411       68.014       36.239     4278.663     4625.908     1313.279        0.868        0.511       82.570       28.019        0.115      336.377        7.637      854.435
11/29/2014  09:05:00       29.645      -47.466       14.594       85.060       97.850       55.051     7235.205     9574.641     3030.591        1.159        0.992       55.963       56.784        1.030      336.291        7.493      854.443
11/29/2014  09:06:00       32.502        5.753       56.203       88.002      127.972       71.946     7744.295    16376.907     5176.164        1.677        1.465       33.007       80.382        5.931      336.112        7.193      854.359
11/29/2014  09:07:00      105.971     -145.527       -1.311       82.389       87.126       51.947     6787.977     7591.009     2698.442        2.474        0.854      180.023       45.767        0.065      336.134        7.230      854.319
11/29/2014  09:08:00      123.777     -134.905       53.831      108.518      192.744       95.512    11776.061    37150.286     9122.495        4.722        2.902      183.085      118.058        0.416      336.097        7.167      854.238
11/29/2014  09:09:00       34.670     -110.612       48.497      130.372      164.730      101.478    16996.761    27135.986    10297.727        3.510        2.722      115.918      104.539        0.813      336.056        7.098      854.229
11/29/2014  09:10:00       33.799      -58.879        7.029       70.802       88.022       63.880     5012.943     7747.857     4080.692        1.075        0.842       67.890       59.096        0.758      336.113        7.196      854.311
11/29/2014  09:11:00     -146.992     -105.579       -9.485       95.432       73.992       51.653     9107.345     5474.804     2668.053        2.504        0.863      180.979       43.090        0.057      336.102        7.177      854.412
11/29/2014  09:12:00     -232.593     -167.693        8.670      149.490      126.681       66.585    22347.277    16048.047     4433.539        6.255        2.141      286.741       79.331        0.077      335.968        6.953      854.471
11/29/2014  09:13:00      105.875     -160.670       21.716       94.010      117.942       74.433     8837.833    13910.316     5540.245        3.289        1.414      192.417       78.079        0.165      336.129        7.220      854.446
11/29/2014  09:14:00        2.316       14.715       51.152       34.248       69.641       50.735     1172.903     4849.910     2574.063        0.572        0.430       14.896       50.835       11.645      336.094        7.165      854.331
11/29/2014  09:15:00       -6.186      -19.385       15.890       78.335       58.410       48.854     6136.299     3411.675     2386.748        0.630        0.597       20.348       48.980        5.794      336.131        7.227      854.331
11/29/2014  09:16:00       94.532       24.648       54.682      106.696      127.891      102.035    11383.934    16356.036    10411.207        2.533        1.908       97.693      102.256        1.096      335.999        7.007      854.350
11/29/2014  09:17:00       49.345       37.679       32.590       46.493       58.001       45.669     2161.641     3364.141     2085.648        0.626        0.381       62.086       27.080        0.190      336.022        7.044      854.345
11/29/2014  09:18:00       50.296       20.833       32.697       73.965       71.731       32.536     5470.842     5145.357     1058.615        0.785        0.584       54.440       34.991        0.413      336.086        7.151      854.282
11/29/2014  09:19:00       53.805       36.205       31.469       52.988       58.833       41.041     2807.723     3461.311     1684.367        0.657        0.398       64.852       36.388        0.315      336.053        7.095      854.252
11/29/2014  09:20:00       54.494       42.533       -1.136       43.404       91.821       44.008     1883.944     8431.183     1936.687        0.851        0.613       69.128       28.736        0.173      335.996        7.000      854.193
11/29/2014  09:21:00      152.580     -101.594      123.232      217.577      320.735      201.961    47339.728   102871.159    40788.046       11.986        9.550      183.309      233.114        1.617      336.305        7.514      854.139
11/29/2014  09:22:00      225.064     -187.245        4.765      170.924      227.529      164.638    29215.028    51769.582    27105.785        9.689        5.405      292.770      170.190        0.338      335.985        6.981      854.129
11/29/2014  09:23:00      206.708      -71.046       60.330      150.176      183.538      123.857    22552.790    33686.029    15340.457        6.148        3.579      218.577      132.945        0.370      335.965        6.947      854.104
11/29/2014  09:24:00      146.979       67.829      152.648      169.024      167.623      116.302    28569.166    28097.594    13526.203        5.984        3.510      161.876      129.999        0.645      335.985        6.980      853.894
11/29/2014  09:25:00      115.506     -248.465        7.423      172.534      175.718       92.368    29767.913    30876.714     8531.837        7.214        3.459      274.001       98.268        0.129      336.073        7.128      854.026
11/29/2014  09:26:00     -168.664     -141.092        6.733      149.925      120.365       66.914    22477.369    14487.834     4477.432        4.491        2.072      219.897       63.766        0.084      336.141        7.242      854.332
11/29/2014  09:27:00      -74.054      -25.872       14.998       96.018       98.091       55.068     9219.473     9621.889     3032.493        1.412        1.094       78.443       45.683        0.339      336.178        7.304      854.475
11/29/2014  09:28:00       -7.162       14.372       34.539       63.045       65.142       39.655     3974.623     4243.461     1572.503        0.562        0.490       16.058       42.790        7.101      336.249        7.424      854.445
11/29/2014  09:29:00       28.287       49.610       62.327       63.032       59.416       44.023     3973.051     3530.312     1937.983        0.829        0.472       57.108       35.306        0.382      336.236        7.403      854.343
11/29/2014  09:30:00       42.750      114.641      167.657       98.685      134.769       90.592     9738.726    18162.574     8206.986        3.959        1.805      122.352      102.284        0.699      336.202        7.342      854.203
11/29/2014  09:31:00      150.363     -150.157       26.237       92.469      160.377       66.636     8550.604    25720.738     4440.316        4.227        1.936      212.500       78.796        0.137      336.191        7.324      854.131
11/29/2014  09:32:00       31.232      -62.664       30.239       56.607      134.916       56.123     3204.338    18202.261     3149.756        1.518        1.228       70.016       70.752        1.021      336.273        7.462      854.128
11/29/2014  09:33:00      140.046      -51.616       44.813      154.148      115.905       74.118    23761.507    13434.030     5493.469        3.348        2.134      149.255       45.555        0.093      336.242        7.409      854.111
11/29/2014  09:34:00      -92.537      -45.429        3.131      102.278       67.603       49.666    10460.782     4570.223     2466.750        1.406        0.875      103.087       46.755        0.206      336.254        7.431      854.201
11/29/2014  09:35:00      -91.729     -114.488       -2.776       71.394       67.841       54.213     5097.034     4602.378     2939.070        1.708        0.632      146.703       20.092        0.019      336.307        7.519      854.390
11/29/2014  09:36:00      -77.841      -56.618       -1.257      101.330       56.024       44.653    10267.849     3138.720     1993.890        1.233        0.770       96.254       46.814        0.237      336.256        7.434      854.440
11/29/2014  09:37:00       18.813      -19.111       16.735       69.458       42.219       38.451     4824.386     1782.465     1478.500        0.454        0.404       26.817       35.262        1.729      336.320        7.541      854.361
11/29/2014  09:38:00      -16.929      -70.873        0.466       70.102       79.291       42.681     4914.270     6287.028     1821.689        0.916        0.651       72.867       25.736        0.125      336.459        7.775      854.315
11/29/2014  09:39:00      -50.872      -16.434       14.462       58.668       41.962       30.568     3441.941     1760.769      934.382        0.460        0.307       53.461       29.992        0.315      336.390        7.660      854.386
11/29/2014  09:40:00      -51.282      -58.793        4.321       86.864       66.340       44.455     7545.301     4400.968     1976.263        1.001        0.696       78.016       40.454        0.269      336.377        7.637      854.430
11/29/2014  09:41:00      104.057     -122.649       -7.426       61.712       75.190       51.371     3808.371     5653.515     2639.004        1.901        0.605      160.843       33.097        0.042      336.460        7.774      854.422
11/29/2014  09:42:00        9.785       33.331       66.541       38.354       63.490       45.448     1471.066     4030.976     2065.556        0.660        0.378       34.737       42.816        1.519      336.430        7.724      854.290
11/29/2014  09:43:00       30.819       47.520      108.989       82.925      104.071       84.667     6876.602    10830.826     7168.576        1.998        1.244       56.639       95.601        2.849      336.373        7.628      854.162
11/29/2014  09:44:00      119.207     -105.738       23.189       69.802      119.125       46.414     4872.301    14190.721     2154.287        2.357        1.061      159.345       46.692        0.086      336.381        7.643      854.135
11/29/2014  09:45:00       91.752       75.165       60.232       73.337       56.538       56.215     5378.362     3196.556     3160.174        1.471        0.587      118.609       33.354        0.079      336.365        7.616      854.134
11/29/2014  09:46:00      128.643      107.844       49.733       67.300       50.887       51.580     4529.299     2589.520     2660.452        2.021        0.489      167.867       43.356        0.067      336.356        7.600      854.100
11/29/2014  09:47:00      -44.673      -26.852       34.924      105.020      102.003       63.646    11029.125    10404.683     4050.761        1.471        1.274       52.122       77.434        2.207      336.505        7.853      854.227
11/29/2014  09:48:00     -236.809     -109.732        3.837      100.181       83.943       56.361    10036.164     7046.361     3176.586        4.419        1.013      260.997       48.594        0.035      336.488        7.819      854.343
11/29/2014  09:49:00       -0.486      -62.913        2.827       57.143       45.418       37.804     3265.379     2062.820     1429.158        0.536        0.338       62.915       29.694        0.223      336.638        8.075      854.381
11/29/2014  09:50:00      -75.221       10.015        7.019       42.031       48.075       37.992     1766.605     2311.238     1443.393        0.566        0.276       75.885       36.187        0.227      336.590        7.994      854.422
11/29/2014  09:51:00      -78.171      -54.103       12.342       51.024       72.363       31.175     2603.407     5236.466      971.902        0.900        0.441       95.067       27.590        0.084      336.577        7.973      854.476
11/29/2014  09:52:00     -156.743     -151.400      -12.399       60.680       50.702       38.904     3682.014     2570.698     1513.556        2.770        0.388      217.923       32.034        0.022      336.446        7.750      854.528
11/29/2014  09:53:00     -218.822      -63.551      -33.091       67.188       46.153       30.485     4514.170     2130.138      929.343        3.029        0.379      227.864       34.433        0.023      336.316        7.532      854.545
11/29/2014  09:54:00     -190.471        0.288      -23.902       66.835       42.067       36.119     4466.918     1769.614     1304.576        2.219        0.377      190.471       39.190        0.042      336.318        7.536      854.510
11/29/2014  09:55:00     -179.390       14.757      -26.042       45.867       49.242       33.731     2103.766     2424.790     1137.797        1.937        0.283      179.996       18.746        0.011      336.430        7.726      854.400
11/29/2014  09:56:00     -156.687       74.530       -8.276       76.743       51.585       36.408     5889.515     2661.002     1325.531        2.002        0.494      173.510       32.519        0.035      336.504        7.850      854.363
11/29/2014  09:57:00     -132.635      -53.199       -6.697       92.797       74.956       29.661     8611.343     5618.476      879.777        1.779        0.755      142.906       30.359        0.045      336.537        7.905      854.367
11/29/2014  09:58:00     -144.881      -72.457      -17.283       89.712       56.066       26.310     8048.280     3143.349      692.195        1.921        0.594      161.989       22.340        0.019      336.570        7.960      854.390
11/29/2014  09:59:00       -9.553       57.282      -10.668       34.295       34.044       20.616     1176.121     1158.987      425.013        0.312        0.138       58.073       10.275        0.031      336.760        8.278      854.357
11/29/2014  10:00:00       -1.358       43.473       62.617       27.921       48.191       53.575      779.570     2322.326     2870.310        0.589        0.299       43.494       44.187        1.032      336.786        8.322      854.289
11/29/2014  10:01:00      -14.965       34.823       47.667       38.334       58.728       53.587     1469.475     3448.965     2871.549        0.575        0.389       37.902       51.133        1.820      336.618        8.043      854.308
11/29/2014  10:02:00        1.134      -43.159       13.683       43.163       29.115       25.299     1863.032      847.672      640.049        0.270        0.168       43.174       10.669        0.061      336.787        8.326      854.382
11/29/2014  10:03:00      -17.000      -38.393       -0.660       28.828       40.785       25.354      831.079     1663.425      642.832        0.245        0.157       41.988       16.391        0.152      336.755        8.270      854.369
11/29/2014  10:04:00      -55.055      -33.589      -11.904       44.491       35.087       15.609     1979.436     1231.109      243.645        0.388        0.173       64.492       12.379        0.037      336.661        8.113      854.342
11/29/2014  10:05:00      -27.048      -44.668       10.148       61.641       31.661       28.550     3799.603     1002.450      815.126        0.422        0.281       52.219       20.694        0.157      336.803        8.352      854.388
11/29/2014  10:06:00     -104.936      -41.480        1.520       57.612       34.202       25.290     3319.089     1169.747      639.576        0.893        0.256      112.837       27.502        0.059      336.638        8.075      854.347
11/29/2014  10:07:00      -35.264       39.946       -1.552       37.069       51.212       23.063     1374.144     2622.656      531.900        0.368        0.226       53.284       24.777        0.216      336.624        8.050      854.191
11/29/2014  10:08:00      -11.112       33.565      -14.341       31.360       42.028       11.236      983.437     1766.349      126.238        0.217        0.144       35.357        7.200        0.041      336.654        8.101      854.070
11/29/2014  10:09:00      -20.755      -33.347        6.138       29.083       24.267       22.216      845.797      588.886      493.551        0.175        0.096       39.278       14.314        0.133      336.702        8.182      854.067
11/29/2014  10:10:00      -53.996      -49.293        4.096       36.049       20.616       19.000     1299.509      425.012      360.995        0.372        0.104       73.112       18.361        0.063      336.639        8.079      854.113
11/29/2014  10:11:00      -53.084      -72.303      -11.565       34.619       30.907       25.507     1198.443      955.235      650.631        0.549        0.140       89.697       20.477        0.052      336.749        8.261      854.161
11/29/2014  10:12:00       52.777     -122.688      -28.027       81.464       84.211       67.055     6636.355     7091.470     4496.429        1.842        0.911      133.558       53.522        0.161      337.058        8.774      854.187
11/29/2014  10:13:00      -96.444     -163.276      -15.532       74.516       77.612       41.468     5552.604     6023.561     1719.612        2.475        0.665      189.632       21.628        0.013      337.045        8.750      854.224
11/29/2014  10:14:00     -153.653     -124.156       -5.819       75.267       62.147       39.644     5665.052     3862.208     1571.657        2.508        0.555      197.545       32.423        0.027      336.756        8.269      854.300
11/29/2014  10:15:00     -250.713      -49.328      -12.736       75.324       65.244       38.321     5673.714     4256.735     1468.517        3.842        0.570      255.520       37.288        0.021      336.610        8.024      854.323
11/29/2014  10:16:00     -141.145      -31.775       -1.719       76.923       56.496       35.681     5917.083     3191.794     1273.101        1.566        0.519      144.678       28.461        0.039      336.648        8.091      854.250
11/29/2014  10:17:00       22.836       50.845        5.158       31.042       43.964       32.855      963.625     1932.840     1079.445        0.355        0.199       55.738       20.613        0.137      336.661        8.115      854.090
11/29/2014  10:18:00      -11.079       -9.799      -19.666       19.075       20.022        6.914      363.873      400.880       47.797        0.071        0.041       14.791        8.329        0.317      336.633        8.067      854.048
11/29/2014  10:19:00      -44.089      -28.996       -4.465       83.426       42.054       17.739     6959.931     1768.562      314.666        0.592        0.452       52.769       13.288        0.063      336.740        8.246      854.042
11/29/2014  10:20:00      -13.946      -82.856       -4.743       76.750       51.528       38.431     5890.506     2655.094     1476.965        0.855        0.501       84.021       28.800        0.117      336.952        8.599      854.074
11/29/2014  10:21:00       63.225      -56.081        2.293       50.060       66.430       34.378     2506.039     4412.936     1181.845        0.762        0.405       84.513       31.893        0.142      337.060        8.779      854.041
11/29/2014  10:22:00       22.657       -0.723       28.840       36.606       42.142       27.236     1340.000     1775.944      741.826        0.260        0.193       22.669       27.599        1.482      337.095        8.837      854.014
11/29/2014  10:23:00      -82.277      -35.460        7.116       63.685       46.065       28.997     4055.777     2121.940      840.809        0.755        0.351       89.593       30.645        0.117      337.187        8.992      854.091
11/29/2014  10:24:00      -98.732      -42.071        6.990       82.857       63.513       31.381     6865.250     4033.839      984.787        1.172        0.594      107.322       32.509        0.092      337.019        8.708      854.140
11/29/2014  10:25:00     -183.884      -50.779       -7.439       55.223       66.261       33.020     3049.607     4390.574     1090.287        2.249        0.427      190.767       23.410        0.015      336.913        8.530      854.163
11/29/2014  10:26:00     -192.865       11.900      -15.501       52.728       46.932       29.801     2780.278     2202.658      888.123        2.172        0.294      193.232       26.992        0.020      336.997        8.673      854.149
11/29/2014  10:27:00     -108.622      -50.599        5.919       52.684       39.170       32.943     2775.584     1534.310     1085.270        0.989        0.270      119.829       28.579        0.057      336.739        8.244      854.127
11/29/2014  10:28:00      -24.537       -1.628        5.738       34.744       23.860       25.092     1207.112      569.322      629.624        0.152        0.120       24.590       25.748        1.096      336.966        8.623      854.117
11/29/2014  10:29:00      -58.342      -51.651      -13.900       63.760       25.212       23.158     4065.304      635.624      536.284        0.575        0.262       77.921       24.779        0.101      336.746        8.255      854.080
11/29/2014  10:30:00     -122.255      -40.122      -12.185       45.350       25.628       20.657     2056.627      656.807      426.698        0.992        0.157      128.670       17.574        0.019      336.678        8.142      854.068
11/29/2014  10:31:00      -68.109       -9.222        3.326       75.645       40.822       26.704     5722.156     1666.476      713.088        0.642        0.405       68.731       35.119        0.261      336.717        8.209      854.048
11/29/2014  10:32:00      100.360      107.843       98.890       68.846       53.368       50.086     4739.795     2848.183     2508.564        2.079        0.505      147.317       44.554        0.091      336.965        8.617      853.952
11/29/2014  10:33:00      110.822       74.636       67.712       85.260       74.082       62.875     7269.253     5488.188     3953.309        1.957        0.836      133.611       46.635        0.122      337.084        8.817      853.880
11/29/2014  10:34:00       -7.821      -87.394       -9.515       38.629       63.834       27.464     1492.190     4074.812      754.264        0.705        0.316       87.743       17.034        0.038      337.265        9.123      853.941
11/29/2014  10:35:00      -27.686      -34.193        6.944       37.809       39.782       21.985     1429.539     1582.624      483.353        0.274        0.175       43.996       12.326        0.078      337.322        9.218      853.992
11/29/2014  10:36:00      -65.445      -23.649        8.206       51.064       35.558       23.627     2607.553     1264.360      558.213        0.467        0.222       69.587       24.853        0.128      337.075        8.806      854.007
11/29/2014  10:37:00       22.885       11.748       22.492       39.832       38.609       29.562     1586.595     1490.617      873.910        0.256        0.198       25.724       17.590        0.468      337.037        8.740      853.950
11/29/2014  10:38:00       -9.987       83.388        2.911       48.023       41.655       28.997     2306.178     1735.107      840.814        0.597        0.244       83.984       33.226        0.157      336.834        8.401      853.858
11/29/2014  10:39:00     -129.430       39.469      -23.099       50.523       58.659       28.055     2552.562     3440.832      787.109        1.281        0.339      135.314       18.270        0.018      336.968        8.627      853.861
11/29/2014  10:40:00     -132.234       42.915      -16.242       32.437       44.248       28.295     1052.177     1957.914      800.598        1.170        0.191      139.024       13.309        0.009      337.170        8.963      853.923
11/29/2014  10:41:00     -133.351      -53.947       -8.259       46.998       49.557       31.325     2208.851     2455.888      981.281        1.320        0.282      143.850       17.596        0.015      336.893        8.499      853.983
11/29/2014  10:42:00     -122.076      -65.751       -5.564       83.258       54.109       35.465     6931.939     2927.763     1257.745        1.518        0.556      138.657       42.151        0.092      336.880        8.476      854.029
11/29/2014  10:43:00     -166.927      -64.821       -7.230       55.672       40.002       20.706     3099.404     1600.127      428.756        1.862        0.256      179.071       17.124        0.009      336.804        8.350      854.044
11/29/2014  10:44:00      -88.403      -48.790       -4.827       53.936       31.023       21.546     2909.070      962.411      464.213        0.728        0.217      100.973       23.803        0.056      336.826        8.389      854.009
11/29/2014  10:45:00     -105.426      -50.196       -3.530       35.746       30.885       20.335     1277.773      953.913      413.497        0.815        0.132      116.766       19.654        0.028      336.854        8.436      854.005
11/29/2014  10:46:00      -96.820      -36.628       -7.678       24.227       29.767       17.031      586.939      886.068      290.069        0.627        0.088      103.516        9.554        0.009      336.995        8.670      854.004
11/29/2014  10:47:00     -125.119      -29.044       -8.433       47.738       38.797       25.928     2278.952     1505.198      672.244        1.051        0.223      128.446       26.783        0.043      337.170        8.964      854.017
11/29/2014  10:48:00     -102.091      -23.268      -10.878       31.736       18.772       15.650     1007.195      352.393      244.931        0.634        0.080      104.709       14.837        0.020      337.000        8.676      853.994
11/29/2014  10:49:00      -48.110      -44.141       -4.087        8.663       17.256       14.733       75.041      297.756      217.061        0.243        0.029       65.292       10.386        0.025      336.995        8.669      853.947
11/29/2014  10:50:00      -46.342        8.354       -0.307       21.939       47.076       14.413      481.305     2216.150      207.747        0.256        0.145       47.088        9.751        0.043      337.068        8.791      853.908
11/29/2014  10:51:00     -168.858       77.132      -20.708       79.808       36.852       36.316     6369.307     1358.044     1318.852        2.197        0.452      185.640       40.669        0.048      337.183        8.983      853.881
11/29/2014  10:52:00     -145.506      134.580      -37.393       49.363       63.788       36.522     2436.719     4068.960     1333.861        2.426        0.392      198.201       30.520        0.024      337.102        8.849      853.882
11/29/2014  10:53:00      -80.636      137.095      -14.670       62.295       45.082       35.856     3880.635     2032.381     1285.656        1.635        0.360      159.050       23.915        0.023      337.133        8.901      853.858
11/29/2014  10:54:00     -110.095       -7.717      -10.855       62.572       68.698       22.019     3915.300     4719.372      484.833        1.071        0.456      110.365       19.446        0.031      337.196        9.006      853.849
11/29/2014  10:55:00     -108.919      -59.309        1.498       49.724       27.559       25.891     2472.495      759.498      670.369        0.964        0.195      124.020       18.720        0.023      337.082        8.814      853.858
11/29/2014  10:56:00      -24.840      -42.015        4.497       19.705       18.204       13.335      388.297      331.372      177.811        0.165        0.045       48.809        8.773        0.032      337.148        8.927      853.867
11/29/2014  10:57:00      -22.488      -66.875        7.055       20.916       33.872       11.244      437.474     1147.324      126.417        0.337        0.086       70.554       11.958        0.029      337.350        9.265      853.819
11/29/2014  10:58:00       39.325       46.737       47.197       31.896       19.559       23.960     1017.378      382.567      574.071        0.397        0.099       61.080       21.217        0.121      337.342        9.252      853.767
11/29/2014  10:59:00       32.548       35.676        5.723       30.749       17.138       25.104      945.479      293.719      630.234        0.212        0.093       48.292       15.180        0.099      337.527        9.561      853.732
11/29/2014  11:00:00       41.146      -17.779        8.376       39.510       52.026       29.795     1561.032     2706.741      887.759        0.362        0.258       44.823       25.943        0.335      337.621        9.719      853.665
11/29/2014  11:01:00       53.697       22.639       15.124       44.383       40.842       35.154     1969.886     1668.070     1235.809        0.425        0.244       58.274       27.761        0.227      337.587        9.661      853.624
11/29/2014  11:02:00       52.399       23.884       19.967       50.001       61.976       39.715     2500.063     3841.076     1577.259        0.581        0.396       57.585       25.650        0.198      337.610        9.701      853.616
11/29/2014  11:03:00       26.015       15.855       10.198       30.750       31.235       32.638      945.568      975.652     1065.256        0.201        0.149       30.466       22.246        0.533      337.651        9.770      853.644
11/29/2014  11:04:00        2.844        0.875       29.784       24.404       27.994       20.406      595.538      783.658      416.424        0.135        0.090        2.976       15.965       28.784      337.704        9.859      853.640
11/29/2014  11:05:00       10.675       24.536       65.976       27.052       51.136       38.994      731.810     2614.857     1520.539        0.497        0.243       26.757       35.388        1.749      337.653        9.772      853.616
11/29/2014  11:06:00       40.770      -70.926       13.744       40.667       61.569       37.350     1653.789     3790.696     1395.048        0.686        0.342       81.808       37.148        0.206      337.633        9.738      853.618
11/29/2014  11:07:00       39.487      -49.691       15.070       51.470       55.903       35.697     2649.128     3125.154     1274.288        0.565        0.352       63.470       40.844        0.414      337.667        9.796      853.650
11/29/2014  11:08:00       34.225      -95.023       -9.936       35.875       38.173       25.906     1287.047     1457.186      671.115        0.686        0.171      100.998       17.850        0.031      337.604        9.689      853.698
11/29/2014  11:09:00       50.610      -89.950      -23.753       34.379       22.067       20.733     1181.890      486.940      429.848        0.666        0.105      103.210       13.078        0.016      337.577        9.646      853.702
11/29/2014  11:10:00      -22.639       -1.349       11.498       22.269       25.962       27.256      495.890      674.043      742.889        0.128        0.096       22.679       23.298        1.055      337.610        9.698      853.681
11/29/2014  11:11:00       24.628       -8.291       20.389       34.008       28.455       35.453     1156.517      809.689     1256.929        0.216        0.161       25.987       26.685        1.054      337.640        9.749      853.650
11/29/2014  11:12:00       37.216       17.520       33.292       36.331       41.912       30.912     1319.910     1756.622      955.546        0.342        0.202       41.134       27.541        0.448      337.610        9.700      853.597
11/29/2014  11:13:00       26.670       17.847       38.506       29.437       27.751       26.262      866.560      770.137      689.715        0.242        0.116       32.091       19.195        0.358      337.667        9.796      853.572
11/29/2014  11:14:00      -18.280      -61.145      -10.388       52.302       39.627       21.736     2735.534     1570.325      472.437        0.448        0.239       63.819       23.848        0.140      337.760        9.952      853.607
11/29/2014  11:15:00      -17.935      -58.349       -9.070       48.902       28.163       34.319     2391.365      793.148     1177.776        0.408        0.218       61.043       24.416        0.160      337.812       10.037      853.636
11/29/2014  11:16:00      -11.954      -53.785        6.452       33.621       42.411       24.519     1130.371     1798.712      601.183        0.330        0.177       55.097       23.070        0.175      337.812       10.039      853.625
11/29/2014  11:17:00       -1.464      -76.298      -16.777       49.911       32.000       29.289     2491.062     1023.997      857.873        0.524        0.219       76.312       19.671        0.066      337.760        9.951      853.609
11/29/2014  11:18:00        6.780      -36.661       15.400       25.647       55.389       31.066      657.789     3067.973      965.112        0.316        0.235       37.283       32.570        0.763      337.812       10.040      853.564
11/29/2014  11:19:00        0.491       37.681       66.311       29.285       33.771       25.898      857.594     1140.494      670.722        0.424        0.133       37.684       20.554        0.298      337.723        9.889      853.497
11/29/2014  11:20:00       -2.679       49.465       67.347       29.823       30.772       30.465      889.424      946.893      928.095        0.488        0.138       49.538       20.823        0.177      337.683        9.823      853.457
11/29/2014  11:21:00       31.098       12.938       38.863       33.267       36.666       30.251     1106.690     1344.396      915.121        0.300        0.168       33.682       30.988        0.846      337.710        9.868      853.447
11/29/2014  11:22:00       30.005       -5.158       22.845       25.547       28.300       23.383      652.667      800.907      546.783        0.172        0.100       30.445       22.499        0.546      337.778        9.983      853.468
11/29/2014  11:23:00       47.531       16.891       40.386       47.300       35.902       35.381     2237.326     1288.962     1251.799        0.448        0.239       50.443       38.412        0.580      337.814       10.043      853.469
11/29/2014  11:24:00       -3.013       75.735       99.017       38.168       50.392       26.810     1456.766     2539.339      718.763        1.013        0.236       75.794       28.705        0.143      337.824       10.058      853.431
11/29/2014  11:25:00        3.588       13.960       48.142       40.252       49.311       25.597     1620.188     2431.562      655.186        0.362        0.235       14.414       14.375        0.995      337.875       10.143      853.450
11/29/2014  11:26:00       26.650      -78.255       -2.273       40.939       31.124       33.136     1675.978      968.695     1098.017        0.529        0.187       82.669       28.904        0.122      337.912       10.206      853.550
11/29/2014  11:27:00       18.012        4.595       25.617       27.692       55.756       36.539      766.822     3108.701     1335.111        0.311        0.261       18.589       39.341        4.479      337.927       10.231      853.574
11/29/2014  11:28:00       22.482       37.714       57.392       25.265       23.651       16.175      638.305      559.391      261.642        0.334        0.073       43.906       15.540        0.125      337.852       10.106      853.532
11/29/2014  11:29:00        9.611       46.279       -4.076       42.174       29.314       23.726     1778.633      859.291      562.931        0.273        0.160       47.267       23.608        0.249      337.774        9.974      853.480
11/29/2014  11:30:00      -40.217       24.574        2.821       42.697       33.693       23.694     1823.011     1135.198      561.429        0.287        0.176       47.131       16.228        0.119      337.886       10.163      853.464
11/29/2014  11:31:00     -155.236      -25.241      -14.767       41.030       43.550       19.767     1683.449     1896.643      390.734        1.446        0.199      157.274       14.340        0.008      338.040       10.421      853.498
11/29/2014  11:32:00     -194.060       33.465      -13.748       72.929       52.996       39.877     5318.625     2808.615     1590.181        2.434        0.486      196.924       26.970        0.019      338.167       10.633      853.504
11/29/2014  11:33:00      -54.023      160.567      -19.278       54.260       58.074       27.309     2944.100     3372.536      745.786        1.807        0.353      169.411       28.249        0.028      337.794       10.010      853.453
11/29/2014  11:34:00     -101.946       -6.158      -18.446      107.350      103.549       21.435    11523.959    10722.498      459.464        1.673        1.135      102.132       26.133        0.065      337.837       10.081      853.505
11/29/2014  11:35:00     -317.784     -120.669       -7.611      133.121       92.257       56.026    17721.122     8511.440     3138.909        7.248        1.469      339.923       43.232        0.016      337.848       10.095      853.548
11/29/2014  11:36:00     -433.637     -159.072       -7.573      192.379      150.831       79.483    37009.668    22750.085     6317.473       13.973        3.304      461.893       77.017        0.028      338.065       10.460      853.495
11/29/2014  11:37:00     -260.383       36.157      -23.397      137.538      116.506       49.795    18916.618    13573.733     2479.544        5.231        1.748      262.882       51.934        0.039      338.156       10.613      853.568
11/29/2014  11:38:00       39.928       61.262       22.177       53.455       38.429       43.073     2857.471     1476.785     1855.249        0.601        0.309       73.125       27.236        0.139      338.104       10.528      853.510
11/29/2014  11:39:00      -20.063       35.127       74.938       21.579       47.578       26.484      465.640     2263.622      701.422        0.534        0.172       40.453       27.121        0.449      338.130       10.574      853.479
11/29/2014  11:40:00       75.622       81.760      121.089       98.201       84.917       57.661     9643.430     7210.875     3324.755        2.362        1.009      111.370       58.176        0.273      338.114       10.543      853.452
11/29/2014  11:41:00      297.082      139.053       75.115       84.617       59.226       69.316     7160.026     3507.681     4804.704        6.435        0.774      328.015       44.595        0.018      338.046       10.428      853.362
11/29/2014  11:42:00      177.637      187.472      143.683      143.974       97.258      111.928    20728.419     9459.155    12527.872        6.502        2.136      258.265      112.858        0.191      338.036       10.411      853.297
11/29/2014  11:43:00       41.550      145.237      152.360       54.432       74.784       53.080     2962.826     5592.607     2817.529        2.870        0.569      151.063       50.345        0.111      338.162       10.624      853.277
11/29/2014  11:44:00       22.539      -43.402       54.489       47.412      112.408       66.506     2247.885    12635.525     4423.004        1.233        0.965       48.905       82.260        2.829      338.133       10.576      853.289
11/29/2014  11:45:00      111.143     -191.602      -24.097       53.623       35.688       30.222     2875.424     1273.603      913.362        2.735        0.253      221.505       30.063        0.018      338.145       10.593      853.303
11/29/2014  11:46:00      101.992     -175.964      -20.110       50.011       41.461       20.590     2501.067     1719.047      423.951        2.321        0.232      203.385       20.117        0.010      338.113       10.542      853.347
11/29/2014  11:47:00      -58.034     -130.776       -2.398       66.808       75.653       40.916     4463.310     5723.405     1674.127        1.617        0.593      143.074       25.435        0.032      338.155       10.614      853.421
11/29/2014  11:48:00      -55.634      -61.666       14.957       59.202       38.708       32.451     3504.845     1498.339     1053.085        0.659        0.303       83.053       16.786        0.041      338.133       10.576      853.465
11/29/2014  11:49:00     -150.974     -175.776      -17.152       93.638       72.358       43.129     8768.056     5235.680     1860.087        3.492        0.793      231.712       35.503        0.023      337.988       10.332      853.489
11/29/2014  11:50:00     -130.524     -114.223       -6.218       57.832       59.352       28.660     3344.587     3522.689      821.404        1.890        0.384      173.445       23.967        0.019      337.972       10.304      853.472
11/29/2014  11:51:00      -74.631     -119.652       -6.276       54.032       53.367       28.854     2919.473     2848.040      832.538        1.326        0.330      141.019       29.808        0.045      337.977       10.316      853.431
11/29/2014  11:52:00     -138.461      -73.038       -4.875       48.919       31.761       20.937     2393.104     1008.753      438.363        1.418        0.192      156.544       11.787        0.006      337.980       10.320      853.433
11/29/2014  11:53:00     -164.199      -77.792        0.056       46.328       43.859       28.023     2146.272     1923.636      785.287        1.893        0.243      181.695       24.082        0.018      337.965       10.296      853.459
11/29/2014  11:54:00     -112.190      -67.173        3.179       51.061       33.341       29.013     2607.196     1111.650      841.767        1.083        0.228      130.762       19.293        0.022      337.965       10.295      853.478
11/29/2014  11:55:00      -94.607      -44.292        0.274       40.231       32.203       15.946     1618.573     1037.045      254.261        0.691        0.145      104.462       16.002        0.023      337.977       10.315      853.455
11/29/2014  11:56:00       -9.392      -50.492       -3.053       19.140       19.185       14.903      366.327      368.068      222.095        0.180        0.048       51.358        6.293        0.015      338.001       10.357      853.380
11/29/2014  11:57:00      -23.204       -1.514      -14.158       34.470       30.394       21.592     1188.182      923.816      466.210        0.166        0.129       23.253       22.440        0.931      338.006       10.365      853.320
11/29/2014  11:58:00       17.222       42.066       50.289       31.001       32.258       32.343      961.084     1040.579     1046.079        0.382        0.152       45.455       26.531        0.341      338.080       10.487      853.279
11/29/2014  11:59:00       24.805       36.166       49.272       31.573       57.567       38.433      996.833     3313.955     1477.117        0.507        0.289       43.856       42.253        0.928      338.047       10.434      853.251
11/29/2014  12:00:00       72.295      -74.559       14.998       38.538       38.832       40.954     1485.210     1507.961     1677.251        0.784        0.234      103.853       28.948        0.078      338.037       10.419      853.262
11/29/2014  12:01:00       -1.803       44.654       64.424       20.556       37.355       29.479      422.558     1395.360      869.005        0.442        0.134       44.690       23.071        0.266      338.098       10.519      853.270
11/29/2014  12:02:00       13.004       45.012       62.871       34.405       39.648       30.852     1183.689     1571.993      951.866        0.493        0.185       46.853       28.398        0.367      338.108       10.536      853.253
11/29/2014  12:03:00       63.041      -60.510       18.153       44.137       70.407       39.627     1948.070     4957.089     1570.333        0.822        0.424       87.382       46.710        0.286      338.056       10.449      853.240
11/29/2014  12:04:00       10.254       34.982       63.635       29.771       45.236       29.669      886.332     2046.262      880.264        0.459        0.191       36.454       30.315        0.692      338.092       10.509      853.235
11/29/2014  12:05:00       20.934       -6.308       49.706       47.861       87.605       62.496     2290.689     7674.694     3905.688        0.841        0.694       21.864       54.278        6.163      338.093       10.511      853.188
11/29/2014  12:06:00       74.292       29.480       69.635       85.090       84.699       57.400     7240.293     7173.911     3294.789        1.447        0.885       79.927       67.638        0.716      338.049       10.435      853.123
11/29/2014  12:07:00       69.387     -135.921       -7.012       79.721       63.551       36.039     6355.419     4038.698     1298.824        1.751        0.585      152.608       31.512        0.043      338.089       10.502      853.094
11/29/2014  12:08:00       55.125      -52.756       22.876       45.723       55.254       35.359     2090.630     3052.950     1250.276        0.637        0.320       76.301       29.874        0.153      338.156       10.616      853.132
11/29/2014  12:09:00       56.042     -129.908      -16.271       65.065       39.876       24.530     4233.466     1590.089      601.719        1.335        0.321      141.480       30.393        0.046      338.124       10.561      853.196
11/29/2014  12:10:00       16.002      -40.873       10.329       50.803       32.659       34.552     2580.906     1066.610     1193.819        0.344        0.242       43.894       21.645        0.243      338.267       10.804      853.227
11/29/2014  12:11:00       52.909      -31.471       27.700       63.444       64.061       61.859     4025.182     4103.873     3826.554        0.825        0.598       61.561       43.034        0.489      338.242       10.760      853.224
11/29/2014  12:12:00       19.972        3.498       79.908       52.364       95.109       62.917     2742.036     9045.667     3958.542        1.127        0.787       20.276       70.242       12.002      338.149       10.605      853.221
11/29/2014  12:13:00       38.251      -29.686       48.365       45.256       72.706       53.780     2048.064     5286.168     2892.276        0.745        0.511       48.419       45.671        0.890      338.177       10.652      853.178
11/29/2014  12:14:00        8.747      -32.930       29.401       36.206       71.432       37.372     1310.887     5102.477     1396.689        0.492        0.391       34.071       38.708        1.291      338.215       10.715      853.106
11/29/2014  12:15:00       66.304     -109.761       32.947      110.334      150.721       88.662    12173.636    22716.943     7860.934        3.013        2.138      128.232      119.477        0.868      338.171       10.639      853.066
11/29/2014  12:16:00      123.929     -119.285      -14.319       74.126      104.826       72.885     5494.721    10988.400     5312.257        2.579        1.090      172.009       69.203        0.162      338.080       10.487      853.056
11/29/2014  12:17:00      113.218     -108.468      -16.362      101.707      119.990       84.430    10344.272    14397.587     7128.427        2.835        1.594      156.792       80.753        0.265      338.073       10.475      853.080
11/29/2014  12:18:00       50.075      -56.217       22.318       39.799       58.650       41.273     1583.933     3439.845     1703.449        0.645        0.336       75.285       38.201        0.257      338.169       10.638      853.113
11/29/2014  12:19:00       39.270      -38.786       10.253       45.292       57.234       29.136     2051.408     3275.705      848.922        0.466        0.309       55.195       31.666        0.329      338.200       10.690      853.116
11/29/2014  12:20:00       37.402       34.891       51.365       44.320       25.233       24.606     1964.306      636.694      605.473        0.423        0.160       51.150       14.953        0.085      338.184       10.664      853.113
11/29/2014  12:21:00       -2.576       23.615       20.036       21.962       27.287       24.527      482.327      744.593      601.583        0.140        0.091       23.755       12.463        0.275      338.298       10.854      853.150
11/29/2014  12:22:00     -187.092      -27.621       -4.953       67.680       54.466       35.630     4580.622     2966.560     1269.470        2.230        0.441      189.120       35.461        0.035      338.225       10.729      853.195
11/29/2014  12:23:00     -100.269      -35.364        6.289       65.376       42.248       25.286     4274.061     1784.864      639.405        0.902        0.335      106.323       30.176        0.081      338.294       10.848      853.178
11/29/2014  12:24:00     -177.400       -5.996      -21.044       59.931       53.699       27.459     3591.714     2883.556      754.001        1.959        0.361      177.501       28.319        0.025      338.292       10.842      853.135
11/29/2014  12:25:00     -185.082      -34.532      -19.129       24.985       23.847       22.224      624.265      568.685      493.915        1.875        0.084      188.276       15.008        0.006      338.168       10.634      853.154
11/29/2014  12:26:00     -130.279      -12.450      -13.873       42.876       51.306       29.164     1838.314     2632.337      850.559        1.132        0.266      130.872       21.710        0.028      338.431       11.078      853.172
11/29/2014  12:27:00      -23.052      -72.317        3.946       43.287       52.046       26.034     1873.756     2708.812      677.745        0.552        0.263       75.902       21.977        0.084      338.206       10.699      853.176
11/29/2014  12:28:00       15.104      -37.826       12.276       25.927       38.795       15.395      672.233     1505.042      236.998        0.211        0.121       40.729        5.199        0.016      338.203       10.696      853.146
11/29/2014  12:29:00       66.141       58.576       -5.089       36.236       44.387       30.976     1313.073     1970.222      959.520        0.604        0.212       88.350       23.673        0.072      338.193       10.679      853.067
11/29/2014  12:30:00       51.502       87.160       -4.932       53.651       43.738       38.153     2878.409     1913.011     1455.629        0.826        0.312      101.239       32.662        0.104      338.170       10.640      853.007
11/29/2014  12:31:00       32.093      139.791      -27.725       28.088       29.422       17.768      788.912      865.683      315.702        1.165        0.099      143.428       16.926        0.014      338.070       10.470      853.005
11/29/2014  12:32:00       -2.766       79.684      -19.155       16.074       37.083       10.487      258.358     1375.112      109.976        0.423        0.087       79.732       12.808        0.026      338.073       10.476      853.010
11/29/2014  12:33:00      -46.117        4.640      -12.942       48.535       37.016       13.131     2355.667     1370.163      172.422        0.311        0.195       46.350       21.549        0.216      338.212       10.710      853.026
11/29/2014  12:34:00      -92.702       95.221      -23.579       32.268       26.055       20.847     1041.214      678.842      434.578        1.019        0.108      132.894       21.331        0.026      338.181       10.660      853.034
11/29/2014  12:35:00      -84.662      108.429      -24.310       32.334       40.148       23.764     1045.502     1611.891      564.731        1.137        0.161      137.566       18.851        0.019      338.318       10.887      853.028
11/29/2014  12:36:00      -93.621      158.140      -14.211       94.495      147.811       52.010     8929.345    21847.983     2705.013        3.372        1.674      183.775       39.775        0.047      338.292       10.842      853.036
11/29/2014  12:37:00     -162.683        4.318      -16.182      105.742      106.083       46.516    11181.411    11253.704     2163.718        2.567        1.230      162.741       45.149        0.077      338.343       10.928      853.017
11/29/2014  12:38:00     -130.942      128.534      -23.564      102.746       57.187       46.917    10556.784     3270.308     2201.213        2.512        0.801      183.485       44.619        0.059      338.380       10.990      852.983
11/29/2014  12:39:00      -93.900      -51.422       -0.488       69.362       62.295       44.333     4811.074     3880.687     1965.429        1.106        0.533      107.058       44.259        0.171      338.395       11.016      852.946
11/29/2014  12:40:00     -150.386       55.875       -7.687       67.851       65.277       34.731     4603.789     4261.148     1206.254        1.793        0.504      160.431       27.249        0.029      338.696       11.522      852.927
11/29/2014  12:41:00     -111.477      -26.184      -23.199       82.627       71.492       34.351     6827.270     5111.131     1179.996        1.338        0.656      114.511       17.327        0.023      338.426       11.067      852.922
11/29/2014  12:42:00      -35.313       17.706       29.763       69.824       47.547       41.500     4875.423     2260.735     1722.258        0.565        0.443       39.503       34.589        0.767      338.497       11.189      852.884
11/29/2014  12:43:00     -127.852      -42.304        4.613      118.482      102.619       56.504    14037.926    10530.705     3192.707        2.295        1.388      134.669       48.925        0.132      338.479       11.158      852.905
11/29/2014  12:44:00     -202.863      -32.281        3.666      138.226      125.987       64.054    19106.395    15872.767     4102.858        4.064        1.954      205.416       63.652        0.096      338.669       11.475      852.908
11/29/2014  12:45:00     -336.392      -67.560      -25.768       82.503       86.845       59.941     6806.734     7542.074     3592.960        6.816        0.897      343.109       51.976        0.023      338.432       11.077      852.896
11/29/2014  12:46:00     -236.501     -110.153       -1.451      116.654      114.826       44.672    13608.089    13185.098     1995.571        4.842        1.439      260.896       41.317        0.025      338.541       11.261      852.861
11/29/2014  12:47:00     -207.708     -146.879        4.367      136.592      121.715       67.360    18657.270    14814.624     4537.326        5.136        1.900      254.394       74.530        0.086      338.517       11.219      852.824
11/29/2014  12:48:00     -279.067      -61.913      -32.463       63.589       65.794       38.943     4043.563     4328.883     1516.582        4.633        0.494      285.852       25.431        0.008      338.606       11.367      852.776
11/29/2014  12:49:00     -238.846      -50.756       -2.399      141.843       82.207       58.418    20119.577     6757.947     3412.651        4.495        1.515      244.179       58.249        0.057      338.735       11.586      852.766
11/29/2014  12:50:00     -268.133      -49.192       -8.742      102.335      107.464       65.510    10472.380    11548.606     4291.608        5.035        1.316      272.608       60.207        0.049      338.748       11.607      852.788
11/29/2014  12:51:00     -207.615      -54.854        0.951      102.668       81.050       48.922    10540.677     6569.181     2393.371        3.280        0.975      214.739       50.070        0.054      338.693       11.516      852.769
11/29/2014  12:52:00     -167.819       23.802        4.911       87.697       74.077       39.888     7690.831     5487.381     1591.016        2.176        0.738      169.498       40.632        0.057      339.004       12.040      852.696
11/29/2014  12:53:00     -164.608      -34.877        3.876      120.078      102.555       47.424    14418.638    10517.624     2249.016        2.775        1.359      168.262       49.155        0.085      338.975       11.990      852.660
11/29/2014  12:54:00     -203.655      -88.646      -10.064      125.031      118.099       60.710    15632.684    13947.389     3685.672        4.134        1.663      222.111       55.000        0.061      338.887       11.841      852.695
11/29/2014  12:55:00     -400.886     -242.396      -28.710      208.110      185.267       71.719    43309.588    34323.851     5143.652       15.152        4.139      468.472       84.519        0.033      338.904       11.870      852.725
11/29/2014  12:56:00     -283.414     -434.632      -17.526      193.780      188.454       80.485    37550.798    35514.756     6477.769       17.452        3.977      518.872       98.075        0.036      338.783       11.666      852.772
11/29/2014  12:57:00     -126.255      -77.875       -5.403      136.932      106.437       50.614    18750.390    11328.891     2561.820        2.733        1.632      148.340       60.133        0.164      338.837       11.758      852.760
11/29/2014  12:58:00     -404.073      -90.479       -6.962      204.583      241.269       89.805    41854.214    58210.628     8064.868       13.980        5.406      414.079       87.944        0.045      338.969       11.978      852.693
11/29/2014  12:59:00     -254.082     -347.727      -25.992      168.316      211.973       77.539    28330.292    44932.679     6012.335       13.270        3.964      430.664       66.784        0.024      338.649       11.441      852.648
11/29/2014  13:00:00     -243.842     -361.011       -3.881      224.807      147.895       95.090    50538.206    21873.018     9042.121       13.561        4.073      435.647       93.029        0.046      338.653       11.448      852.765
11/29/2014  13:01:00     -554.846     -370.345      -26.299      229.490      190.346       93.842    52665.671    36231.480     8806.293       27.168        4.885      667.090       95.746        0.021      338.609       11.374      852.718
11/29/2014  13:02:00     -310.786     -307.014        0.174      153.322      208.135       72.322    23507.729    43320.224     5230.526       13.144        3.603      436.859       67.345        0.024      338.728       11.574      852.736
11/29/2014  13:03:00     -152.912     -264.472      -10.275       83.088      115.230       57.913     6903.655    13278.037     3353.920        5.848        1.177      305.495       37.765        0.015      338.697       11.521      852.723
11/29/2014  13:04:00     -184.248     -241.876       -5.372       80.134      103.872       56.499     6421.406    10789.351     3192.148        5.644        1.020      304.058       50.854        0.028      338.754       11.617      852.781
11/29/2014  13:05:00      -18.881     -161.272       -5.320       72.784       88.847       41.413     5297.441     7893.877     1715.054        2.065        0.745      162.373       36.517        0.051      338.715       11.553      852.807
11/29/2014  13:06:00      -35.248      -44.315       -4.689       97.915       72.191       34.351     9587.323     5211.604     1179.980        0.960        0.799       56.623       37.273        0.433      338.910       11.883      852.767
11/29/2014  13:07:00      -83.884      -93.847       -7.125      145.517      159.880       57.709    21175.318    25561.642     3330.284        3.297        2.503      125.873       59.105        0.220      338.980       11.999      852.707
11/29/2014  13:08:00     -428.749     -303.363      -15.427      184.810      166.187       88.657    34154.829    27618.116     7860.017       17.285        3.482      525.218       89.505        0.029      338.966       11.975      852.675
11/29/2014  13:09:00     -475.944     -224.812      -15.918      250.013      197.332       98.368    62506.471    38939.722     9676.325       19.420        5.556      526.368      120.405        0.052      338.957       11.958      852.652
11/29/2014  13:10:00     -471.228     -277.493       -8.997      233.170      184.350       89.463    54368.162    33985.011     8003.658       19.773        4.818      546.862      103.266        0.036      338.886       11.839      852.582
11/29/2014  13:11:00      -33.366     -267.024        6.900      285.478      142.677       92.809    81497.476    20356.719     8613.489        9.144        5.523      269.100       79.400        0.087      339.037       12.094      852.660
11/29/2014  13:12:00       69.097      -90.036       97.932      179.741      279.979      183.836    32306.870    78388.165    33795.628        8.345        7.225      113.494      215.318        3.599      338.854       11.786      852.577
11/29/2014  13:13:00     -157.715       27.045        2.008      116.477       88.738       66.446    13566.890     7874.404     4415.127        2.573        1.293      160.017       23.881        0.022      339.202       12.372      852.602
11/29/2014  13:14:00       25.485       62.448       33.405       68.425       50.571       44.807     4681.960     2557.400     2007.686        0.745        0.462       67.448       31.414        0.217      339.270       12.488      852.659
11/29/2014  13:15:00       96.210     -144.286        2.443       80.251      137.935       50.899     6440.173    19025.940     2590.668        2.906        1.403      173.420       59.820        0.119      338.786       11.672      852.682
11/29/2014  13:16:00     -106.704     -150.043       -3.608      138.085       90.999       54.086    19067.553     8280.755     2925.246        3.209        1.514      184.116       43.878        0.057      338.842       11.767      852.812
11/29/2014  13:17:00     -112.320     -179.232      -23.572      160.824      103.858       41.186    25864.282    10786.478     1696.284        4.181        1.917      211.518       16.540        0.006      338.485       11.167      852.906
11/29/2014  13:18:00       78.885       49.633        7.211       63.953      104.882       51.228     4089.977    11000.336     2624.330        1.322        0.886       93.201       45.456        0.238      338.517       11.222      852.888
11/29/2014  13:19:00       17.159       30.286       -4.347       46.196       49.267       30.977     2134.114     2427.252      959.598        0.337        0.276       34.809       31.146        0.801      338.560       11.293      852.861
11/29/2014  13:20:00        6.945      104.341       20.129      121.211       68.625       77.416    14692.014     4709.399     5993.308        1.836        1.270      104.572       82.421        0.621      338.661       11.464      852.737
11/29/2014  13:21:00     -167.264      -72.547        5.553      130.024      128.049       60.309    16906.194    16396.495     3637.146        3.510        1.847      182.319       57.918        0.101      339.025       12.074      852.691
11/29/2014  13:22:00     -424.672      -43.123       -2.881      214.294      172.298       76.406    45921.949    29686.626     5837.833       13.181        4.072      426.856      101.186        0.056      338.945       11.938      852.649
11/29/2014  13:23:00     -299.738     -169.938      -10.177      177.078      142.375       77.830    31356.482    20270.729     6057.536        8.824        2.884      344.560       76.785        0.050      338.917       11.890      852.682
11/29/2014  13:24:00     -184.696     -163.544       14.722      132.962      118.741       66.373    17678.870    14099.537     4405.364        4.862        1.809      246.697       70.836        0.082      338.888       11.843      852.737
11/29/2014  13:25:00     -166.545     -174.769       -0.725      126.709      112.665       61.898    16055.232    12693.349     3831.325        4.542        1.629      241.416       65.182        0.073      338.852       11.781      852.743
11/29/2014  13:26:00     -192.413     -165.303       -9.986      140.483      115.523       49.788    19735.398    13345.462     2478.882        5.000        1.778      253.669       40.896        0.026      338.840       11.761      852.693
11/29/2014  13:27:00     -271.211     -175.031       -8.633      121.827      123.412       72.853    14841.773    15230.554     5307.552        6.982        1.769      322.787       61.172        0.036      338.820       11.729      852.681
11/29/2014  13:28:00     -290.685       -3.104      -19.950      131.246      107.377       62.779    17225.442    11529.819     3941.237        5.879        1.635      290.702       57.652        0.039      338.872       11.816      852.672
11/29/2014  13:29:00     -270.824     -166.864      -18.287      204.445      143.970       69.251    41797.866    20727.327     4795.744        8.441        3.366      318.103       94.832        0.089      338.828       11.743      852.632
11/29/2014  13:30:00     -265.820     -183.122       -4.185      132.468      119.370       72.848    17547.667    14249.170     5306.865        7.065        1.855      322.791       73.322        0.052      338.732       11.579      852.624
11/29/2014  13:31:00     -214.625     -182.386       11.085      164.631      107.785       82.204    27103.246    11617.674     6757.477        6.246        2.274      281.654       90.772        0.104      338.781       11.661      852.624
11/29/2014  13:32:00     -257.131      -53.511      -20.328      158.413       77.493       52.951    25094.715     6005.107     2803.821        5.164        1.695      262.640       62.815        0.057      339.066       12.141      852.623
11/29/2014  13:33:00     -352.539     -128.312      -23.684      139.023      151.188       80.945    19327.476    22857.681     6552.099        9.501        2.437      375.164       69.437        0.034      338.927       11.909      852.589
11/29/2014  13:34:00     -224.846      -22.729        1.417      213.386      162.183       97.340    45533.444    26303.441     9475.109        6.618        4.066      225.992      111.502        0.243      338.915       11.890      852.520
11/29/2014  13:35:00     -193.357     -110.025       -3.800      213.853      174.219       73.897    45732.895    30352.115     5460.771        6.551        4.077      222.469       72.445        0.106      339.067       12.144      852.506
11/29/2014  13:36:00     -383.437     -141.498      -41.692      264.027      138.202       87.666    69710.069    19099.849     7685.285       13.262        4.825      408.712       96.600        0.056      338.897       11.860      852.511
11/29/2014  13:37:00     -334.495     -101.569      -30.713      132.917      115.404       60.547    17666.969    13318.168     3665.892        7.889        1.733      349.576       62.631        0.032      339.070       12.149      852.459
11/29/2014  13:38:00     -392.834     -207.897      -30.690      176.305      138.058       72.097    31083.280    19059.926     5197.943       12.690        2.767      444.455       85.672        0.037      339.046       12.109      852.396
11/29/2014  13:39:00     -434.252     -239.865        7.076      216.500      167.588       95.521    46872.095    28085.719     9124.353       16.510        4.204      496.095      105.427        0.045      339.039       12.096      852.337
11/29/2014  13:40:00     -135.789     -156.509        4.419      157.318      125.813       69.075    24749.109    15828.870     4771.401        4.414        2.267      207.205       49.459        0.057      339.187       12.346      852.456
11/29/2014  13:41:00       14.705     -166.625        1.179       97.342       89.726       56.450     9475.508     8050.683     3186.548        2.434        1.036      167.272       33.494        0.040      339.258       12.466      852.626
11/29/2014  13:42:00      -38.579     -263.516      -22.858      111.214      129.379       66.716    12368.547    16738.892     4451.015        5.250        1.678      266.325       54.777        0.042      339.153       12.286      852.725
11/29/2014  13:43:00       24.096     -193.902        0.015      126.449      108.156       57.189    15989.271    11697.680     3270.624        3.456        1.548      195.393       53.519        0.075      339.143       12.273      852.726
11/29/2014  13:44:00       54.021     -183.319      -14.710       96.138      113.826       53.804     9242.475    12956.277     2894.842        3.091        1.255      191.113       44.731        0.055      338.994       12.021      852.728
11/29/2014  13:45:00     -169.798     -133.831       -8.394       83.906       71.300       46.409     7040.165     5083.729     2153.776        3.054        0.714      216.199       43.793        0.041      339.078       12.163      852.733
11/29/2014  13:46:00      -22.748      -40.585       33.331       66.595       86.703       41.545     4434.880     7517.473     1725.974        0.847        0.684       46.526       46.803        1.012      339.304       12.546      852.668
11/29/2014  13:47:00     -140.579      -80.281       14.083      110.904       95.958       46.828    12299.589     9207.920     2192.831        2.505        1.185      161.888       52.259        0.104      339.230       12.418      852.633
11/29/2014  13:48:00     -112.017     -184.493        3.651       74.858      127.344       48.251     5603.741    16216.458     2328.162        3.537        1.207      215.837       42.857        0.039      338.970       11.981      852.691
11/29/2014  13:49:00     -193.369     -121.637      -12.430      172.112      131.614       65.797    29622.508    17322.301     4329.227        5.180        2.564      228.445       67.280        0.087      338.813       11.716      852.649
11/29/2014  13:50:00     -167.522     -126.338        2.530      159.074      115.557       68.965    25304.467    13353.369     4756.161        4.371        2.171      209.821       73.440        0.123      339.028       12.078      852.605
11/29/2014  13:51:00     -199.834     -216.579        1.024      147.841      129.251       69.624    21857.025    16705.773     4847.536        6.512        2.171      294.687       60.633        0.042      338.923       11.901      852.618
11/29/2014  13:52:00     -179.152     -139.063        3.416       99.055      105.056       53.879     9811.820    11036.829     2902.940        3.759        1.188      226.790       55.948        0.061      338.946       11.941      852.616
11/29/2014  13:53:00     -174.705     -130.176        3.344      115.452      106.240       52.069    13329.184    11286.942     2711.167        3.740        1.366      217.871       52.283        0.058      339.066       12.142      852.597
11/29/2014  13:54:00     -188.055      -80.859       -9.420      118.026       82.434       47.012    13930.044     6795.355     2210.101        3.246        1.147      204.701       37.503        0.034      338.874       11.820      852.555
11/29/2014  13:55:00     -260.141     -243.841      -13.854      131.156      137.577       59.660    17201.894    18927.530     3559.257        8.350        1.984      356.555       61.465        0.030      339.014       12.055      852.533
11/29/2014  13:56:00     -169.319     -282.492       -4.010      177.157      167.659       85.420    31384.429    28109.384     7296.608        8.763        3.340      329.349       90.879        0.076      338.973       11.986      852.590
11/29/2014  13:57:00     -106.372     -131.058        9.350      119.730      114.847       73.984    14335.354    13189.745     5473.648        3.078        1.650      168.794       52.439        0.097      339.174       12.326      852.521
11/29/2014  13:58:00       71.521       21.340      177.849      160.608      267.840      168.366    25794.997    71738.069    28346.978        8.152        6.294       74.637      195.404        6.854      339.084       12.173      852.561
11/29/2014  13:59:00       97.633     -141.483       33.335       81.794      113.671       77.066     6690.308    12920.999     5939.133        2.810        1.278      171.900       77.364        0.203      339.139       12.265      852.668
11/29/2014  14:00:00        7.358     -125.582       -7.113      115.086       81.020       62.191    13244.778     6564.246     3867.709        1.977        1.184      125.798       40.453        0.103      339.220       12.402      852.709
11/29/2014  14:01:00      -95.469      -17.506       10.417       83.315       51.520       48.870     6941.471     2654.261     2388.229        1.075        0.599       97.061       52.783        0.296      339.507       12.888      852.727
11/29/2014  14:02:00      -72.833     -153.726        3.929      166.615      155.915       55.659    27760.542    24309.577     3097.947        4.205        2.758      170.107       90.771        0.285      339.207       12.380      852.636
11/29/2014  14:03:00     -369.931     -235.034      -14.142      164.068      147.392       75.255    26918.327    21724.426     5663.290       12.329        2.715      438.280       80.819        0.034      338.976       11.990      852.630
11/29/2014  14:04:00     -305.436     -113.959       -8.386      218.066      148.607       75.402    47552.714    22083.896     5685.405        9.082        3.766      326.003       78.510        0.058      339.106       12.209      852.615
11/29/2014  14:05:00     -314.846     -139.851       -1.543      172.144      121.756       73.936    29633.479    14824.633     5466.536        8.430        2.496      344.509       79.607        0.053      338.996       12.025      852.613
11/29/2014  14:06:00     -205.043      -75.702       25.445      181.293      121.225       70.178    32867.290    14695.486     4924.917        5.044        2.624      218.571       90.318        0.171      339.142       12.271      852.632
11/29/2014  14:07:00     -217.217     -108.423       14.916      171.090      139.272       79.555    29271.700    19396.626     6328.966        5.707        2.750      242.773       79.073        0.106      339.189       12.351      852.643
11/29/2014  14:08:00     -259.377     -123.394       -2.864      135.792      129.919       58.511    18439.576    16878.996     3423.480        6.062        1.937      287.233       71.952        0.063      339.204       12.376      852.650
11/29/2014  14:09:00     -344.167     -184.714      -22.259      116.483      144.470       63.222    13568.246    20871.633     3997.065        9.574        1.922      390.602       61.262        0.025      338.849       11.777      852.620
11/29/2014  14:10:00     -243.234      -94.214        4.182      196.761      124.559       75.976    38715.031    15514.952     5772.392        6.402        3.000      260.843       92.849        0.127      338.898       11.861      852.598
11/29/2014  14:11:00     -374.667     -163.874        2.050      174.438      147.952       76.101    30428.587    21889.673     5791.308       11.266        2.905      408.938       74.225        0.033      338.802       11.697      852.586
11/29/2014  14:12:00     -323.860     -211.178      -17.792      143.755      150.727       70.720    20665.439    22718.590     5001.366        9.908        2.419      386.628       63.004        0.027      338.661       11.461      852.587
11/29/2014  14:13:00     -384.827     -267.710      -15.835      232.975      210.482      104.089    54277.287    44302.841    10834.467       16.469        5.471      468.786      118.733        0.064      338.608       11.372      852.560
11/29/2014  14:14:00     -402.527     -158.515       -0.443      205.554      177.317       86.391    42252.510    31441.249     7463.439       13.414        4.058      432.614       96.546        0.050      338.622       11.397      852.565
11/29/2014  14:15:00     -361.644     -191.313        2.267      176.888      134.341       85.214    31289.214    18047.533     7261.349       11.198        2.830      409.130       90.537        0.049      338.567       11.302      852.582
11/29/2014  14:16:00     -175.123      -55.377        0.018      146.726      107.136       66.722    21528.606    11478.094     4451.826        3.559        1.873      183.670       60.561        0.109      338.849       11.779      852.593
11/29/2014  14:17:00     -256.742     -168.919       12.778      203.067      142.688       87.958    41236.307    20359.723     7736.668        8.196        3.467      307.327      111.078        0.131      338.715       11.552      852.569
11/29/2014  14:18:00     -430.834     -232.843      -18.306      268.010      158.196       93.163    71829.402    25025.903     8679.303       17.283        5.277      489.729      116.393        0.056      338.513       11.212      852.573
11/29/2014  14:19:00     -422.287     -158.220      -29.468      192.370      172.117       71.900    37006.140    29624.247     5169.597       13.800        3.590      450.954       68.061        0.023      338.565       11.299      852.592
11/29/2014  14:20:00     -316.353     -169.407       -6.399      148.018      121.866       73.083    21909.233    14851.338     5341.194        8.545        2.105      358.856       70.886        0.039      338.616       11.385      852.608
11/29/2014  14:21:00     -256.007     -151.420      -12.819      147.461      110.902       66.620    21744.805    12299.167     4438.178        6.355        1.924      297.435       56.271        0.036      338.758       11.625      852.626
11/29/2014  14:22:00     -436.186     -275.778      -16.017      275.278      235.986       96.877    75777.765    55689.494     9385.203       20.368        7.043      516.054      125.591        0.059      338.745       11.602      852.633
11/29/2014  14:23:00     -409.425     -394.996      -16.667      274.066      216.274      125.809    75112.017    46774.428    15827.875       23.079        6.886      568.903      153.757        0.073      338.766       11.639      852.600
11/29/2014  14:24:00     -595.150     -418.562      -10.352      314.585      246.779      127.071    98963.453    60899.772    16147.142       35.272        8.801      727.597      153.611        0.045      338.729       11.576      852.590
11/29/2014  14:25:00     -572.607     -335.590      -22.453      303.283      203.586      115.376    91980.613    41447.383    13311.638       29.384        7.337      663.702      112.431        0.029      338.716       11.553      852.591
11/29/2014  14:26:00     -276.871     -217.352       10.503      166.410      143.924       77.983    27692.132    20714.019     6081.414        8.924        2.724      351.993       74.073        0.044      338.821       11.732      852.608
11/29/2014  14:27:00     -406.863     -285.373        1.574      251.527      174.900      110.138    63265.830    30590.011    12130.396       17.646        5.299      496.967      129.609        0.068      338.838       11.759      852.632
11/29/2014  14:28:00     -324.379      -60.211       14.498      252.100      174.367      109.394    63554.604    30403.927    11967.025       10.747        5.296      329.920      132.751        0.162      338.911       11.883      852.568
11/29/2014  14:29:00     -353.713     -287.509       -3.449      271.002      191.517       93.205    73441.817    36678.614     8687.086       16.327        5.940      455.823      111.005        0.059      338.753       11.615      852.598
11/29/2014  14:30:00     -191.914     -222.846       14.980      151.847      172.386       66.142    23057.426    29716.960     4374.739        7.192        2.857      294.094       72.786        0.061      338.870       11.812      852.615
11/29/2014  14:31:00     -338.941     -204.682       -8.482      160.444      125.550       79.270    25742.252    15762.836     6283.715       10.231        2.389      395.949       85.868        0.047      338.843       11.766      852.627
11/29/2014  14:32:00     -386.372     -234.279       -5.694      219.845      222.975       87.645    48332.020    49717.650     7681.697       15.495        5.287      451.852      107.680        0.057      338.796       11.688      852.666
11/29/2014  14:33:00     -427.052      -93.275      -12.794      212.373      213.612      105.656    45102.423    45630.219    11163.207       14.655        5.095      437.120      106.908        0.060      338.851       11.781      852.657
11/29/2014  14:34:00     -494.963     -185.239      -11.372      180.071      131.670       91.615    32425.611    17336.891     8393.298       16.878        2.908      528.490       92.549        0.031      338.764       11.636      852.658
11/29/2014  14:35:00     -222.824     -129.206        5.684      174.422      136.883       90.358    30422.911    18736.917     8164.650        6.184        2.866      257.574       97.568        0.143      338.785       11.669      852.662
11/29/2014  14:36:00     -427.730     -261.674      -20.066      249.678      155.245       71.757    62338.862    24100.916     5149.059       17.169        4.579      501.424       68.198        0.018      338.697       11.521      852.670
11/29/2014  14:37:00     -491.566     -330.970      -13.698      220.064      142.454       96.861    48428.378    20293.253     9382.023       21.472        3.905      592.603      101.930        0.030      338.446       11.099      852.669
11/29/2014  14:38:00     -411.493     -247.980       -7.317      289.054      168.162      110.956    83552.488    28278.502    12311.314       17.748        6.207      480.438      143.176        0.089      338.424       11.064      852.670
11/29/2014  14:39:00     -404.070     -326.416       -4.775      210.755      195.137      102.161    44417.523    38078.607    10436.799       18.137        4.647      519.442      120.694        0.054      338.344       10.928      852.605
11/29/2014  14:40:00     -409.173     -153.657       -3.989      214.875      186.023      100.060    46171.460    34604.426    10012.077       14.090        4.539      437.073      107.660        0.061      338.495       11.181      852.563
11/29/2014  14:41:00     -361.980     -247.102      -23.442      166.231      106.285       75.725    27632.865    11296.598     5734.237       11.864        2.233      438.279       75.082        0.029      338.463       11.128      852.546
11/29/2014  14:42:00     -266.997      -94.304       -7.416      135.822      116.286       59.738    18447.543    13522.540     3568.630        5.788        1.777      283.162       69.085        0.060      338.578       11.322      852.545
11/29/2014  14:43:00     -278.956     -209.044        3.570      217.344      151.609       90.198    47238.562    22985.281     8135.692        9.993        3.918      348.591      101.920        0.085      338.521       11.227      852.556
11/29/2014  14:44:00     -361.915     -106.759      -34.652      159.349      152.549       75.459    25392.176    23271.101     5694.135        9.896        2.718      377.333       72.526        0.037      338.578       11.321      852.576
11/29/2014  14:45:00     -269.612     -168.595       11.413      194.809      168.245      100.965    37950.511    28306.378    10193.943        8.883        3.823      317.986      109.128        0.118      338.522       11.227      852.586
11/29/2014  14:46:00     -498.982     -182.250      -16.318      213.956      187.832       81.886    45777.329    35280.922     6705.335       18.510        4.388      531.223       94.232        0.031      338.424       11.063      852.628
11/29/2014  14:47:00     -362.737     -103.783       -6.619      187.326      135.682       90.422    35090.871    18409.661     8176.071       10.202        3.084      377.292      103.384        0.075      338.497       11.185      852.615
11/29/2014  14:48:00     -286.117      -92.510       -4.636      138.767      120.593       61.609    19256.405    14542.629     3795.691        6.401        1.880      300.701       56.003        0.035      338.525       11.233      852.638
11/29/2014  14:49:00     -265.552      -99.902        2.427      196.407       86.843       50.172    38575.610     7541.773     2517.246        6.456        2.432      283.723       64.108        0.051      338.613       11.383      852.665
11/29/2014  14:50:00     -239.740     -110.414       10.384      124.170      129.900       66.118    15418.093    16874.075     4371.641        5.321        1.833      263.944       66.449        0.063      338.612       11.379      852.645
11/29/2014  14:51:00     -289.423     -160.262      -13.540      164.926      144.647       62.561    27200.577    20922.757     3913.870        8.082        2.602      330.832       70.891        0.046      338.609       11.374      852.626
11/29/2014  14:52:00     -269.608     -377.987      -16.309      152.452      210.580       78.425    23241.721    44344.131     6150.532       14.477        3.687      464.287       84.906        0.033      338.637       11.421      852.660
11/29/2014  14:53:00     -226.594     -257.340        0.151      194.913      275.326       90.672    37991.087    75804.310     8221.374       11.977        6.101      342.883       88.277        0.066      338.801       11.697      852.701
11/29/2014  14:54:00     -371.835     -177.382       -8.757      214.274      142.157       85.067    45913.184    20208.547     7236.455       12.157        3.668      411.978       76.426        0.034      338.764       11.633      852.693
11/29/2014  14:55:00     -347.565     -186.737      -13.145      172.491      123.621       80.357    29753.151    15282.255     6457.208       10.366        2.575      394.553       85.542        0.047      338.779       11.661      852.675
11/29/2014  14:56:00     -274.338     -150.256       -8.193      138.840      152.674       65.736    19276.678    23309.454     4321.287        7.240        2.345      312.791       58.487        0.035      338.795       11.685      852.677
11/29/2014  14:57:00     -391.584     -293.766       -0.142      223.329      178.053       88.424    49875.690    31702.900     7818.887       16.450        4.470      489.527      101.687        0.043      338.634       11.416      852.612
11/29/2014  14:58:00     -153.164      -85.151       28.666      161.328      121.972       65.874    26026.742    14877.111     4339.448        3.838        2.262      175.242       64.751        0.137      338.905       11.871      852.615
11/29/2014  14:59:00     -459.795     -307.183      -11.811      265.540      245.083      109.223    70511.732    60065.758    11929.646       22.418        7.125      552.967      107.746        0.038      338.647       11.438      852.533
11/29/2014  15:00:00     -396.251     -218.662      -20.160      206.894      173.288       81.952    42805.094    30028.640     6716.139       14.238        3.977      452.580      106.818        0.056      338.699       11.525      852.533
11/29/2014  15:01:00     -160.973     -110.296       12.256      128.344      157.418       81.159    16472.086    24780.287     6586.830        4.302        2.392      195.135       87.498        0.201      338.822       11.733      852.511
11/29/2014  15:02:00     -302.393     -157.879       14.639      220.331      180.413       97.566    48545.703    32548.780     9519.168       10.358        4.531      341.127      103.361        0.092      338.816       11.721      852.532
11/29/2014  15:03:00     -106.061      -83.315       40.689      200.504      134.563      105.478    40201.659    18107.105    11125.514        4.463        3.472      134.871      120.268        0.795      338.856       11.789      852.543
11/29/2014  15:04:00     -279.381     -224.351      -13.549      236.434      221.042       93.379    55901.165    48859.392     8719.706       12.100        5.674      358.312       91.988        0.066      338.731       11.579      852.504
11/29/2014  15:05:00     -413.458     -147.364        3.090      210.834      228.397      110.831    44451.161    52165.169    12283.430       15.076        5.445      438.935      104.549        0.057      338.627       11.403      852.474
11/29/2014  15:06:00     -285.809     -141.934        9.291      221.963      167.447       94.859    49267.624    28038.369     8998.139        9.409        4.315      319.111      102.696        0.104      338.667       11.472      852.529
11/29/2014  15:07:00     -470.032     -325.646        0.966      236.948      235.627      105.890    56144.258    55520.037    11212.623       22.490        6.144      571.818      109.162        0.036      338.565       11.300      852.508
11/29/2014  15:08:00     -438.719     -221.648      -11.730      231.513      181.769      120.119    53598.045    33040.035    14428.549       17.138        5.053      491.531      133.019        0.073      338.577       11.320      852.530
11/29/2014  15:09:00     -677.164     -376.659      -37.575      277.603      203.899      121.865    77063.516    41574.663    14851.003       36.764        6.674      774.870      139.177        0.032      338.385       10.998      852.533
11/29/2014  15:10:00     -436.592     -262.124       -4.970      301.260      255.137      112.895    90757.517    65095.103    12745.255       21.394        8.430      509.236      146.070        0.082      338.450       11.106      852.528
11/29/2014  15:11:00     -426.611     -261.708       -9.733      209.812      180.211      106.295    44021.138    32476.053    11298.696       16.917        4.390      500.488      110.924        0.049      338.477       11.151      852.566
11/29/2014  15:12:00     -537.913     -332.545      -23.271      262.099      189.415       97.969    68696.052    35877.877     9597.910       25.730        5.709      632.405      123.318        0.038      338.385       10.996      852.594
11/29/2014  15:13:00     -618.059     -388.919      -21.228      330.042      228.024      120.117   108928.013    51995.121    14428.023       35.449        8.768      730.243      147.815        0.041      338.337       10.917      852.563
11/29/2014  15:14:00     -479.898     -307.256      -40.738      213.633      202.310      105.296    45638.900    40929.495    11087.171       21.199        4.883      569.832      103.163        0.033      338.388       11.002      852.591
11/29/2014  15:15:00     -476.511     -374.829       -1.864      264.719      194.112      134.811    70076.298    37679.301    18174.077       24.672        6.296      606.267      148.572        0.060      338.380       10.989      852.578
11/29/2014  15:16:00     -376.183     -293.342       10.222      226.659      209.517      114.194    51374.476    43897.410    13040.201       16.797        5.416      477.036      122.563        0.066      338.465       11.131      852.617
11/29/2014  15:17:00     -458.233     -254.047       -1.437      267.223      219.543      107.436    71407.932    48199.240    11542.412       20.281        6.557      523.944      113.891        0.047      338.456       11.116      852.647
11/29/2014  15:18:00     -270.075     -190.910        5.530      227.987      190.032       89.268    51978.107    36112.000     7968.793       10.272        4.803      330.737      114.083        0.119      338.515       11.217      852.670
11/29/2014  15:19:00     -322.559     -221.707        6.066      229.866      189.852      109.575    52838.269    36043.603    12006.611       12.704        5.044      391.405      116.703        0.089      338.458       11.120      852.699
11/29/2014  15:20:00     -522.601     -288.827      -31.040      224.577      192.765      101.679    50434.645    37158.391    10338.598       22.769        4.897      597.104      108.099        0.033      338.417       11.050      852.669
11/29/2014  15:21:00     -364.380     -167.164       -6.616      240.808      232.206      117.499    57988.475    53919.730    13806.121       14.321        6.286      400.895      140.346        0.123      338.524       11.232      852.679
11/29/2014  15:22:00     -371.925     -234.103       -4.638      265.361      181.395       95.656    70416.423    32904.121     9150.068       15.279        5.624      439.468      113.304        0.066      338.426       11.065      852.679
11/29/2014  15:23:00     -455.711     -226.084       15.832      358.367      253.026      132.161   128426.572    64022.202    17466.650       23.443       10.496      508.711      176.272        0.120      338.401       11.025      852.695
11/29/2014  15:24:00     -553.213     -194.575       -2.396      291.323      259.209      126.297    84869.099    67189.417    15951.027       25.593        8.400      586.434      153.535        0.069      338.358       10.953      852.657
11/29/2014  15:25:00     -389.766     -271.901       12.535      303.949      202.229      129.863    92385.062    40896.420    16864.279       18.805        7.507      475.234      149.940        0.100      338.317       10.883      852.665
11/29/2014  15:26:00     -495.141     -297.789      -18.648      293.659      242.829      129.037    86235.519    58965.779    16650.602       24.799        8.093      577.791      140.661        0.059      338.288       10.833      852.603
11/29/2014  15:27:00     -703.327     -196.963      -33.122      329.361      222.377      132.029   108478.776    49451.357    17431.556       35.493        8.768      730.385      160.911        0.049      338.219       10.718      852.732
11/29/2014  15:28:00     -588.238     -204.321      -37.942      287.045      217.511      102.910    82394.660    47310.966    10590.422       26.472        7.015      622.713      107.857        0.030      338.177       10.647      852.764
11/29/2014  15:29:00     -486.504     -158.282      -11.268      289.526      194.034      107.230    83825.570    37649.023    11498.195       19.739        6.649      511.605      129.083        0.064      338.199       10.685      852.771
11/29/2014  15:30:00     -518.562     -115.224       -2.950      274.358      225.231      115.958    75272.075    50729.137    13446.304       21.079        6.972      531.209      107.552        0.041      338.225       10.728      852.809
11/29/2014  15:31:00     -568.975     -263.815      -17.214      245.760      242.467      119.347    60398.081    58790.125    14243.765       26.350        6.672      627.161      131.830        0.044      338.136       10.578      852.865
11/29/2014  15:32:00     -423.394     -257.728        4.353      214.923      207.711      112.655    46191.961    43144.011    12691.106       17.385        5.101      495.668      112.290        0.051      338.128       10.566      852.898
11/29/2014  15:33:00     -518.522     -240.994       -6.649      266.189      243.920      107.837    70856.356    59496.942    11628.825       23.446        7.099      571.789      134.156        0.055      338.094       10.509      852.888
11/29/2014  15:34:00     -433.899     -126.701      -15.503      264.255      186.817      110.574    69830.539    34900.572    12226.553       16.074        5.848      452.019      124.094        0.075      338.138       10.581      852.929
11/29/2014  15:35:00     -324.660     -201.280      -11.551      209.008      180.921       88.026    43684.307    32732.286     7748.557       11.509        4.208      381.992       92.081        0.058      338.163       10.624      852.941
11/29/2014  15:36:00     -358.482     -152.064       -4.752      227.907      196.211      114.722    51941.732    38498.565    13161.175       12.761        5.180      389.400      127.848        0.108      338.108       10.531      852.908
11/29/2014  15:37:00     -125.568      -83.068        4.374      156.175      125.470       80.128    24390.648    15742.662     6420.468        3.461        2.328      150.558       87.327        0.336      338.165       10.631      852.892
11/29/2014  15:38:00     -368.340      -83.359      -10.650      221.850      163.978      109.614    49217.250    26888.799    12015.181       11.541        4.406      377.655      121.208        0.103      338.095       10.512      852.869
11/29/2014  15:39:00     -356.561     -141.524      -12.749      180.283      182.789       88.553    32501.967    33411.846     7841.631       11.053        3.688      383.620      102.123        0.071      338.115       10.544      852.865
11/29/2014  15:40:00     -439.476     -140.557      -17.646      220.582      180.565      105.890    48656.320    32603.725    11212.678       15.282        4.624      461.405      106.891        0.054      338.108       10.533      852.847
11/29/2014  15:41:00     -639.784      -92.152      -30.450      276.959      176.762       97.885    76706.016    31244.666     9581.474       26.811        5.877      646.386      110.679        0.029      338.143       10.591      852.842
11/29/2014  15:42:00     -353.545      -63.223       -6.159      161.047      157.872       84.928    25936.169    24923.650     7212.773        9.354        2.904      359.154       88.344        0.061      338.155       10.612      852.906
11/29/2014  15:43:00     -377.736     -193.711       -5.782      222.786      173.456       85.970    49633.727    30086.977     7390.925       13.366        4.356      424.510       80.582        0.036      338.199       10.686      852.913
11/29/2014  15:44:00     -404.142     -169.372       -2.450      243.419      190.878       94.219    59252.951    36434.463     8877.214       14.827        5.228      438.198       95.789        0.048      338.099       10.517      852.912
11/29/2014  15:45:00     -482.316     -172.080      -30.378      182.626      189.242       84.355    33352.143    35812.583     7115.760       16.971        3.814      512.094       85.475        0.028      338.059       10.450      852.926
11/29/2014  15:46:00     -311.202     -143.228       -0.163      224.189      149.986       87.896    50260.930    22495.850     7725.779        9.891        4.024      342.580       94.923        0.077      338.022       10.388      852.919
11/29/2014  15:47:00     -397.822     -104.050      -21.056      164.719      129.969       69.905    27132.459    16891.991     4886.648       10.921        2.446      411.204       75.301        0.034      337.971       10.302      852.927
11/29/2014  15:48:00     -335.152     -143.290      -14.848      182.314      154.217       78.000    33238.447    23782.955     6084.054        9.808        3.155      364.499       83.969        0.053      337.958       10.280      852.971
11/29/2014  15:49:00     -274.414     -165.107        5.033      208.424      151.821      104.764    43440.618    23049.676    10975.562        9.001        3.873      320.255       99.843        0.097      337.913       10.205      852.987
11/29/2014  15:50:00     -289.548     -101.847      -30.564      172.655      126.521       63.097    29809.644    16007.567     3981.248        7.246        2.490      306.938       68.735        0.050      337.956       10.278      852.956
11/29/2014  15:51:00     -312.612      -72.457      -11.568      175.318      150.056       82.402    30736.348    22516.727     6790.110        8.156        3.002      320.899       80.029        0.062      337.935       10.243      852.896
11/29/2014  15:52:00     -301.108     -162.005       14.082      202.903      229.745       89.486    41169.699    52782.748     8007.789       10.951        5.098      341.923      103.982        0.092      337.851       10.100      852.862
11/29/2014  15:53:00     -256.780     -215.680      -12.642      199.595      209.836       96.431    39838.037    44031.254     9298.912       10.287        4.658      335.341      108.984        0.106      337.761        9.950      852.826
11/29/2014  15:54:00     -280.396     -105.368       14.222      290.739      205.888      136.084    84529.110    42389.810    18518.893       11.765        7.272      299.540      132.772        0.196      337.750        9.932      852.779
11/29/2014  15:55:00     -455.913     -106.660      -31.766      196.492      149.229       92.816    38609.226    22269.190     8614.808       14.485        3.475      468.224      101.148        0.047      337.683        9.820      852.827
11/29/2014  15:56:00     -476.062     -128.448      -23.083      240.497      180.443       98.754    57838.661    32559.578     9752.273       17.189        5.008      493.086      105.242        0.046      337.654        9.770      852.745
11/29/2014  15:57:00     -690.455      -90.688      -23.864      309.392      196.594      120.274    95723.122    38649.255    14465.781       31.715        7.442      696.385      141.330        0.041      337.639        9.747      852.694
11/29/2014  15:58:00     -524.102     -102.065       -3.023      317.089      223.274      129.953   100545.557    49851.173    16887.841       22.616        8.364      533.948      160.680        0.091      337.624        9.721      852.713
11/29/2014  15:59:00     -472.445     -117.515      -27.882      187.779      155.671       94.075    35261.124    24233.415     8850.066       15.305        3.417      486.840       98.962        0.041      337.653        9.769      852.712
11/29/2014  16:00:00     -191.329      -98.861       18.093      208.129      187.944       90.374    43317.603    35322.887     8167.529        6.674        4.340      215.361      103.621        0.232      337.716        9.876      852.735
11/29/2014  16:01:00     -479.707     -143.990      -14.998      290.238      170.809      102.845    84238.222    29175.702    10577.022       18.751        6.200      500.851      128.430        0.066      337.622        9.718      852.688
11/29/2014  16:02:00     -624.227      -88.831      -30.151      289.527      198.036      116.067    83826.016    39218.123    13471.497       26.746        6.826      630.516      132.984        0.044      337.612        9.701      852.728
11/29/2014  16:03:00     -384.368     -109.634       -1.575      267.973      221.464      104.448    71809.279    49046.165    10909.461       14.574        6.588      399.698      130.399        0.106      337.646        9.758      852.720
11/29/2014  16:04:00     -436.936      -32.982       -8.071      187.960      206.336       95.322    35329.113    42574.466     9086.372       13.951        4.349      438.179      108.159        0.061      337.682        9.817      852.741
11/29/2014  16:05:00     -627.379      -77.493      -24.117      212.444      199.588       98.349    45132.290    39835.328     9672.556       24.740        4.732      632.147      108.303        0.029      337.574        9.637      852.740
11/29/2014  16:06:00     -469.539      -55.658      -22.600      199.066      140.575       90.222    39627.277    19761.194     8140.029       14.579        3.376      472.827       90.570        0.037      337.615        9.705      852.761
11/29/2014  16:07:00     -307.703      -72.078       -5.559      184.400      126.792       83.481    34003.385    16076.089     6969.081        7.847        2.852      316.033       82.990        0.069      337.657        9.777      852.738
11/29/2014  16:08:00     -299.400      -14.051       -1.847      257.739      148.740       79.217    66429.416    22123.543     6275.264        9.232        4.741      299.730       93.309        0.097      337.694        9.838      852.751
11/29/2014  16:09:00     -299.116        2.080        1.859      209.716      157.525       92.455    43980.625    24813.971     8547.891        8.339        3.867      299.123       87.992        0.087      337.666        9.792      852.783
11/29/2014  16:10:00     -542.054      -53.351      -20.983      203.231      184.193       96.815    41302.776    33927.095     9373.198       19.084        4.230      544.673      102.685        0.036      337.531        9.565      852.802
11/29/2014  16:11:00     -406.233     -133.435      -17.663      259.783      166.252       88.512    67487.148    27639.719     7834.431       14.303        5.148      427.586      108.114        0.064      337.495        9.505      852.780
11/29/2014  16:12:00     -316.412      -47.000      -21.863      242.217      141.046       95.728    58669.024    19894.070     9163.767        9.525        4.386      319.883      110.484        0.119      337.535        9.571      852.714
11/29/2014  16:13:00     -372.154      -87.817      -21.313      195.010      166.991       98.990    38028.774    27885.879     9798.930       11.117        3.786      382.374       82.365        0.046      337.528        9.559      852.668
11/29/2014  16:14:00     -541.703      -72.384      -25.410      310.900      201.425      109.933    96658.629    40571.936    12085.191       22.429        7.466      546.518      119.157        0.048      337.638        9.745      852.620
11/29/2014  16:15:00     -450.305     -136.720      -23.192      270.088      212.923      106.344    72947.451    45336.097    11308.946       17.577        6.480      470.602      115.535        0.060      337.627        9.726      852.731
11/29/2014  16:16:00     -453.318     -284.418       -6.199      230.589      170.813      107.277    53171.428    29177.043    11508.433       19.012        4.693      535.155      101.258        0.036      337.478        9.475      852.688
11/29/2014  16:17:00     -433.535      -98.020      -10.702      295.943      159.224      106.748    87582.422    25352.293    11395.030       16.098        6.216      444.477      121.784        0.075      337.583        9.653      852.655
11/29/2014  16:18:00     -483.731      -57.336      -35.203      215.909      184.435       99.439    46616.527    34016.159     9888.169       16.450        4.526      487.117       74.904        0.024      337.593        9.669      852.715
11/29/2014  16:19:00     -533.896      -89.081      -24.012      177.197      164.016       93.706    31398.884    26901.272     8780.854       18.031        3.354      541.276       91.793        0.029      337.545        9.589      852.722
11/29/2014  16:20:00     -455.910      -89.587      -31.663      221.971      203.760       95.441    49270.908    41517.989     9109.078       15.837        4.995      464.629       80.605        0.030      337.531        9.564      852.679
11/29/2014  16:21:00     -364.622     -153.885       -3.873      205.128      212.410      105.799    42077.665    45117.929    11193.480       12.750        4.919      395.765      107.884        0.074      337.544        9.586      852.683
11/29/2014  16:22:00     -330.034     -102.262      -17.538      191.689      139.741       71.916    36744.530    19527.534     5171.862        9.055        3.072      345.514       67.972        0.039      337.580        9.645      852.703
11/29/2014  16:23:00     -371.909     -209.296       -9.957      262.079      182.221       97.481    68685.369    33204.646     9502.474       14.678        5.570      426.757      110.799        0.067      337.528        9.559      852.690
11/29/2014  16:24:00     -431.992      -86.365      -25.467      223.785      160.739       94.080    50079.571    25837.005     8850.995       13.973        4.238      440.540       85.022        0.037      337.497        9.507      852.721
11/29/2014  16:25:00     -401.195      -13.771      -11.418      230.573      194.584       97.890    53163.914    37863.086     9582.434       13.092        5.030      401.431      106.645        0.071      337.524        9.553      852.726
11/29/2014  16:26:00     -323.664     -129.395        1.711      223.708      189.756      115.591    50045.108    36007.442    13361.260       11.044        4.971      348.570      120.076        0.119      337.470        9.463      852.713
11/29/2014  16:27:00     -336.729     -142.990       20.609      275.096      237.416      115.145    75677.967    56366.416    13258.429       13.975        7.265      365.832      124.982        0.117      337.416        9.373      852.698
11/29/2014  16:28:00     -380.827     -121.483      -17.436      286.190      195.913      114.485    81904.837    38381.783    13106.864       14.672        6.670      399.734      132.080        0.109      337.406        9.356      852.703
11/29/2014  16:29:00     -399.268     -144.853       -9.281      245.940      151.916      108.331    60486.708    23078.353    11735.646       13.787        4.765      424.732      125.545        0.087      337.426        9.389      852.721
11/29/2014  16:30:00     -395.498     -220.796      -10.511      183.823      166.419       91.446    33790.823    27695.287     8362.318       13.755        3.492      452.956      100.995        0.050      337.399        9.345      852.711
11/29/2014  16:31:00     -107.129      -81.115       23.952      187.426      168.943       97.164    35128.328    28541.806     9440.855        4.586        3.656      134.374      109.365        0.662      337.426        9.389      852.705
11/29/2014  16:32:00     -307.602     -116.864      -30.145      174.521      110.133       72.526    30457.666    12129.213     5259.972        7.851        2.392      329.053       60.358        0.034      337.406        9.356      852.730
11/29/2014  16:33:00     -483.011     -160.714      -15.815      199.445      204.615       91.481    39778.210    41867.294     8368.786       17.468        4.501      509.047       90.413        0.032      337.369        9.292      852.678
11/29/2014  16:34:00     -525.868     -112.496      -32.728      267.038      165.998      105.545    71309.495    27555.328    11139.760       20.011        5.500      537.766      116.102        0.047      337.399        9.344      852.635
11/29/2014  16:35:00     -442.600      -56.919      -30.074      203.303      190.954       91.738    41332.209    36463.608     8415.868       14.311        4.311      446.245       85.995        0.037      337.408        9.359      852.648
11/29/2014  16:36:00     -361.522      -71.120      -22.805      196.019      196.046       93.956    38423.484    38434.181     8827.744       11.096        4.284      368.451       85.672        0.054      337.452        9.433      852.596
11/29/2014  16:37:00     -365.605      -55.994       10.709      274.943      163.676      117.402    75593.439    26789.692    13783.292       12.652        5.808      369.868      140.416        0.144      337.384        9.320      852.721
11/29/2014  16:38:00     -296.537      -31.962       -5.437      147.914      139.817       82.956    21878.506    19548.900     6881.774        6.864        2.415      298.254       86.641        0.084      337.462        9.448      852.739
11/29/2014  16:39:00     -343.141      -31.202      -16.961      210.839      131.464       81.883    44452.927    17282.670     6704.830        9.371        3.422      344.557       97.133        0.079      337.380        9.312      852.749
11/29/2014  16:40:00     -349.290      -40.922      -36.827      166.507      142.017       82.363    27724.500    20168.862     6783.646        8.984        2.734      351.679       83.631        0.057      337.385        9.320      852.757
11/29/2014  16:41:00     -489.405     -185.408      -37.726      173.859      145.214       80.512    30227.122    21087.154     6482.175       16.654        2.890      523.348       80.210        0.023      337.287        9.157      852.760
11/29/2014  16:42:00     -261.079      -39.147       -9.587      154.780      116.637       72.072    23956.702    13604.145     5194.438        5.626        2.138      263.998       63.572        0.058      337.416        9.373      852.763
11/29/2014  16:43:00     -472.316      -99.017      -16.914      193.510      151.765       98.512    37445.981    23032.509     9704.635       15.166        3.509      482.583      104.877        0.047      337.323        9.216      852.794
11/29/2014  16:44:00     -235.089      -99.530        4.887      178.284      127.455       79.335    31785.321    16244.865     6294.056        5.975        2.716      255.290       95.309        0.139      337.314        9.203      852.812
11/29/2014  16:45:00     -416.863      -28.315      -16.813      209.441      175.573       82.712    43865.421    30825.761     6841.239       12.818        4.077      417.824       86.565        0.043      337.407        9.357      852.782
11/29/2014  16:46:00     -436.499     -266.286      -25.335      215.428      156.323       97.340    46409.231    24436.952     9474.979       17.119        4.016      511.312       97.225        0.036      337.371        9.297      852.783
11/29/2014  16:47:00     -517.421     -237.664      -45.411      311.929      216.217      116.842    97299.709    46749.869    13651.950       24.196        7.885      569.394      141.971        0.062      337.394        9.337      852.766
11/29/2014  16:48:00     -299.831     -121.193       11.623      281.195      214.852      131.317    79070.467    46161.429    17244.264       12.357        7.124      323.398      164.605        0.259      337.502        9.516      852.722
11/29/2014  16:49:00     -410.493     -279.632      -39.843      207.201      166.481      110.964    42932.063    27715.997    12312.963       16.561        4.148      496.687      107.498        0.047      337.502        9.515      852.755
11/29/2014  16:50:00     -267.642     -202.544       -0.584      174.931      154.767       94.691    30600.970    23952.814     8966.454        8.808        3.176      335.643       86.816        0.067      337.490        9.497      852.758
11/29/2014  16:51:00     -414.283     -167.423      -29.272      207.269      157.527       88.869    42960.535    24814.737     7897.704       13.808        3.784      446.834      110.099        0.061      337.482        9.482      852.813
11/29/2014  16:52:00     -287.415     -214.684       -1.786      151.833      134.340       80.213    23053.124    18047.229     6434.120        8.811        2.377      358.743       85.424        0.057      337.484        9.485      852.848
11/29/2014  16:53:00     -397.627     -144.072      -13.947      238.138      212.119      106.574    56709.670    44994.477    11358.059       14.604        5.653      422.923      126.296        0.089      337.517        9.541      852.844
11/29/2014  16:54:00     -307.617     -105.179       -2.516      194.851      149.715       87.279    37966.956    22414.622     7617.617        8.683        3.400      325.101       90.194        0.077      337.565        9.621      852.869
11/29/2014  16:55:00     -284.445     -111.527       -6.596      182.968      133.700       78.534    33477.167    17875.629     6167.590        7.544        2.876      305.528       84.695        0.077      337.520        9.546      852.879
11/29/2014  16:56:00     -264.213     -185.448      -11.296      160.176      127.564       79.598    25656.249    16272.504     6335.798        7.629        2.413      322.799       80.862        0.063      337.560        9.614      852.849
11/29/2014  16:57:00     -452.406      -86.524       -7.908      302.993      170.497      104.191    91804.793    29069.192    10855.682       17.195        6.586      460.606      139.562        0.092      337.601        9.682      852.841
11/29/2014  16:58:00     -371.965     -104.496      -17.015      206.938      152.506       81.053    42823.490    23258.044     6569.522       11.109        3.633      386.364       88.732        0.053      337.683        9.821      852.831
11/29/2014  16:59:00     -547.129     -183.358      -17.717      294.085      182.509       96.020    86486.147    33309.675     9219.842       23.112        6.451      577.036      109.580        0.036      337.592        9.667      852.827
11/29/2014  17:00:00     -382.159      -57.807       -2.340      198.129      173.272       89.501    39255.041    30023.289     8010.497       11.333        3.864      386.506       91.508        0.056      337.640        9.747      852.855
11/29/2014  17:01:00     -391.814      -10.987      -18.065      227.625      123.672       75.485    51813.146    15294.813     5697.960       11.337        3.640      391.968      103.786        0.070      337.586        9.658      852.866
11/29/2014  17:02:00     -370.650      -66.609       -1.345      174.654      158.357       87.805    30504.067    25076.917     7709.699       10.254        3.165      376.587       92.363        0.060      337.506        9.521      852.874
11/29/2014  17:03:00     -546.006     -110.334      -43.102      164.597      170.552       77.435    27092.074    29087.936     5996.118       18.715        3.109      557.043       67.437        0.015      337.490        9.496      852.906
11/29/2014  17:04:00     -399.318      -14.154      -31.082      163.288       91.874       70.752    26662.847     8440.783     5005.868       10.036        2.005      399.569       78.958        0.039      337.471        9.464      852.944
11/29/2014  17:05:00     -409.421      -23.948      -10.806      216.277      146.267       86.330    46775.658    21394.069     7452.939       12.195        3.781      410.121      103.676        0.064      337.506        9.523      852.938
11/29/2014  17:06:00     -422.048     -136.671       -8.822      208.105      179.155       84.348    43307.800    32096.385     7114.602       13.968        4.126      443.625      116.016        0.068      337.413        9.367      852.953
11/29/2014  17:07:00     -418.949      -58.852      -16.270      185.015      114.559       79.266    34230.411    13123.863     6283.173       11.643        2.682      423.062       74.618        0.031      337.358        9.275      852.993
11/29/2014  17:08:00     -195.511      -35.679       -0.127      126.292       93.448       64.406    15949.571     8732.444     4148.151        3.416        1.442      198.740       67.035        0.114      337.400        9.348      852.980
11/29/2014  17:09:00     -159.548     -128.705        9.088      117.118      117.061       63.788    13716.730    13703.185     4068.950        3.679        1.574      204.989       68.343        0.111      337.327        9.224      852.981
11/29/2014  17:10:00     -118.743      -51.518        7.769      108.228       87.905       51.872    11713.196     7727.251     2690.689        1.947        1.107      129.437       53.791        0.173      337.360        9.279      852.983
11/29/2014  17:11:00     -272.740      -68.399      -18.227      114.935       81.373       47.572    13210.126     6621.567     2263.098        5.074        1.105      281.186       47.704        0.029      337.307        9.190      852.976
11/29/2014  17:12:00     -181.415      -85.852      -11.285       95.410       66.993       30.856     9103.153     4488.026      952.079        2.747        0.727      200.704       26.785        0.018      337.294        9.169      852.943
11/29/2014  17:13:00     -166.600      -33.183      -11.976       99.071       87.971       51.362     9815.080     7738.949     2638.028        2.459        1.010      169.873       33.232        0.038      337.490        9.497      852.949
11/29/2014  17:14:00     -178.794      -66.969       -6.529      136.815       76.566       45.763    18718.327     5862.391     2094.232        3.158        1.334      190.924       63.030        0.109      337.337        9.242      852.955
11/29/2014  17:15:00     -146.574      -23.707       -7.001      109.712       96.656       50.252    12036.661     9342.396     2525.257        2.299        1.195      148.479       55.335        0.139      337.398        9.343      852.917
11/29/2014  17:16:00      -83.727      -47.396       12.146      120.992       80.713       70.122    14639.059     6514.601     4917.121        1.773        1.304       96.211       74.078        0.593      337.346        9.256      852.919
11/29/2014  17:17:00     -174.121      -22.471       -5.144      102.642       78.983       58.084    10535.384     6238.391     3373.708        2.549        1.007      175.565       47.079        0.072      337.398        9.344      852.977
11/29/2014  17:18:00     -279.560      -38.998      -12.701      144.237      150.749       71.238    20804.195    22725.170     5074.877        6.421        2.430      282.267       79.539        0.079      337.494        9.502      852.978
11/29/2014  17:19:00     -309.840     -160.086      -12.606      213.378      186.170       90.263    45530.354    34659.284     8147.380       10.504        4.417      348.753       98.755        0.080      337.399        9.343      852.972
11/29/2014  17:20:00     -207.011      -55.075        0.738      118.609      107.196       56.683    14068.129    11491.087     3212.956        3.732        1.439      214.212       53.293        0.062      337.467        9.458      853.028
11/29/2014  17:21:00     -389.238     -156.919      -22.865      154.617      166.242       84.200    23906.401    27636.274     7089.620       11.763        2.932      419.678       78.830        0.035      337.462        9.448      853.035
11/29/2014  17:22:00     -199.397     -150.932      -12.890      134.529      102.339       58.374    18097.975    10473.239     3407.508        4.734        1.599      250.079       60.304        0.058      337.440        9.412      853.034
11/29/2014  17:23:00     -189.295      -34.939       13.601      143.493      115.102       71.784    20590.350    13248.462     5152.922        3.811        1.950      192.492       75.397        0.153      337.608        9.694      853.026
11/29/2014  17:24:00     -406.556      -42.532      -30.582      175.183      103.022       72.401    30689.195    10613.581     5241.834       10.728        2.327      408.774       75.889        0.034      337.572        9.633      853.030
11/29/2014  17:25:00     -376.388      -53.253      -23.145      133.819      105.717       57.471    17907.565    11175.986     3302.896        8.871        1.619      380.137       57.752        0.023      337.611        9.698      853.054
11/29/2014  17:26:00     -310.045     -147.132      -19.940       91.979      115.288       55.846     8460.111    13291.285     3118.758        7.152        1.244      343.185       48.783        0.020      337.511        9.529      853.103
11/29/2014  17:27:00     -329.283     -124.409        1.554       93.378       74.233       46.580     8719.403     5510.501     2169.732        7.015        0.820      352.001       45.661        0.017      337.481        9.480      853.129
11/29/2014  17:28:00     -190.451      -54.285        0.872       76.590       69.178       43.487     5866.051     4785.571     1891.114        2.588        0.627      198.037       38.369        0.038      337.518        9.544      853.163
11/29/2014  17:29:00     -150.134      -49.952        4.909       68.507       64.026       37.425     4693.263     4099.383     1400.642        1.762        0.510      158.226       34.697        0.048      337.536        9.576      853.173
11/29/2014  17:30:00      -97.561        8.609       -8.656       46.933       57.791       25.890     2202.735     3339.803      670.297        0.794        0.311       97.940       26.346        0.072      337.705        9.860      853.161
11/29/2014  17:31:00     -179.865      -52.878      -10.007       50.162       51.444       27.315     2516.194     2646.464      746.106        2.058        0.295      187.476       22.881        0.015      337.520        9.548      853.151
11/29/2014  17:32:00      -99.864      -48.703       -7.524       40.902       47.996       18.767     1672.977     2303.643      352.188        0.836        0.216      111.107       11.161        0.010      337.433        9.404      853.159
11/29/2014  17:33:00      -78.746       27.827        2.415       69.454       38.795       33.791     4823.855     1505.076     1141.863        0.722        0.374       83.518       38.701        0.215      337.557        9.612      853.133
11/29/2014  17:34:00      -85.729      -14.332       -6.142       65.045       59.694       35.883     4230.814     3563.430     1287.585        0.834        0.454       86.918       28.037        0.104      337.801       10.021      853.099
11/29/2014  17:35:00     -113.272      -41.727       -6.402       60.481       63.817       30.281     3657.983     4072.652      916.947        1.163        0.432      120.713       22.639        0.035      337.578        9.647      853.072
11/29/2014  17:36:00      -47.753      -17.210      -16.013       56.528       42.931       30.970     3195.371     1843.062      959.115        0.441        0.300       50.759       19.242        0.144      337.498        9.510      853.058
11/29/2014  17:37:00      -94.555      -39.830       -1.155       53.219       37.745       34.693     2832.307     1424.668     1203.601        0.799        0.273      102.601       33.135        0.104      337.498        9.513      853.079
11/29/2014  17:38:00       10.294       -4.137       15.906       25.115       16.439       23.191      630.747      270.229      537.815        0.091        0.072       11.094       15.824        2.034      337.474        9.472      853.092
11/29/2014  17:39:00       17.800        1.695        4.031       16.134       17.340       15.185      260.322      300.659      230.571        0.056        0.040       17.880        6.981        0.152      337.562        9.620      853.118
11/29/2014  17:40:00       11.111      -66.719       16.638       23.852       41.550       16.162      568.912     1726.403      261.196        0.370        0.128       67.638        8.270        0.015      337.596        9.677      853.125
11/29/2014  17:41:00       17.410      -79.833       20.473       47.859       59.238       25.401     2290.486     3509.158      645.235        0.677        0.322       81.709       27.966        0.117      337.518        9.545      853.144
11/29/2014  17:42:00       -5.407      -67.918        2.407       29.344       64.267       27.292      861.045     4130.218      744.850        0.519        0.287       68.133       29.070        0.182      337.548        9.596      853.171
11/29/2014  17:43:00      -63.423     -105.418      -12.314       54.461       57.890       37.282     2966.045     3351.278     1389.933        1.150        0.385      123.026       33.195        0.073      337.641        9.752      853.185
11/29/2014  17:44:00      -22.465       -4.537        5.796       31.082       29.863       18.100      966.078      891.784      327.624        0.137        0.109       22.919       17.837        0.606      337.565        9.624      853.194
11/29/2014  17:45:00      -31.044     -106.442       -0.932       25.714       51.625       24.435      661.229     2665.168      597.073        0.811        0.196      110.877       15.929        0.021      337.553        9.605      853.197
11/29/2014  17:46:00      -27.621      -53.137        0.583       34.132       45.555       19.225     1164.980     2075.238      369.601        0.360        0.180       59.887       22.082        0.136      337.573        9.636      853.174
11/29/2014  17:47:00      -75.142      -17.521        4.836       25.138       25.033       22.976      631.937      626.632      527.912        0.388        0.089       77.158        7.205        0.009      337.605        9.694      853.162
11/29/2014  17:48:00      -36.786      -29.471       -8.050       50.113       27.832       20.977     2511.286      774.600      440.038        0.301        0.186       47.135       17.349        0.135      337.613        9.705      853.152
11/29/2014  17:49:00      -13.820      -25.621       -9.373       20.392       47.787       24.043      415.833     2283.577      578.045        0.211        0.164       29.111       16.428        0.318      337.623        9.722      853.128
11/29/2014  17:50:00      -54.348       84.969      -13.777       30.251       23.435       15.704      915.153      549.196      246.629        0.604        0.086      100.863       12.710        0.016      337.622        9.720      853.105
11/29/2014  17:51:00      -57.449      115.184      -22.136       28.030       35.890       15.719      785.671     1288.110      247.097        0.969        0.116      128.716       13.137        0.010      337.692        9.838      853.097
11/29/2014  17:52:00     -124.100       24.818      -10.428       57.541       48.044       22.731     3310.978     2308.249      516.705        1.113        0.307      126.557       17.329        0.019      337.960       10.286      853.124
11/29/2014  17:53:00     -184.458      -20.559      -23.537       44.019       82.147       28.777     1937.687     6748.100      828.115        2.226        0.476      185.600       25.272        0.019      337.675        9.808      853.158
11/29/2014  17:54:00     -205.314      -36.476      -16.324       51.945       37.661       31.033     2698.257     1418.356      963.036        2.441        0.254      208.529       32.007        0.024      337.737        9.912      853.143
11/29/2014  17:55:00     -141.135       13.724      -13.644       32.649       44.015       25.684     1065.934     1937.325      659.683        1.198        0.183      141.801       16.873        0.014      337.880       10.153      853.148
11/29/2014  17:56:00     -113.160       56.449      -22.869       36.819       68.943       21.302     1355.623     4753.109      453.795        1.154        0.328      126.458       22.741        0.032      337.642        9.754      853.166
11/29/2014  17:57:00      -90.785      121.733      -19.860       41.288       39.533       26.087     1704.718     1562.820      680.506        1.370        0.197      151.858       26.670        0.031      337.582        9.655      853.180
11/29/2014  17:58:00      -74.113      128.317      -18.786       32.037       36.348       26.613     1026.370     1321.146      708.230        1.268        0.153      148.182       22.999        0.024      337.512        9.535      853.201
11/29/2014  17:59:00       15.067       80.352       -2.062       48.300       39.997       24.888     2332.910     1599.771      619.436        0.562        0.228       81.752       15.081        0.034      337.554        9.607      853.184
11/29/2014  18:00:00       -2.965       34.806      -11.452       15.437       23.447        9.860      238.300      549.745       97.227        0.112        0.044       34.932        9.299        0.071      337.499        9.513      853.174
11/29/2014  18:01:00       -7.855       -0.430        3.672       25.696       15.770       12.530      660.295      248.679      157.012        0.057        0.053        7.866        7.505        0.910      337.587        9.661      853.158
11/29/2014  18:02:00       26.240       49.687       35.046       21.390       25.598       21.403      457.547      655.266      458.074        0.298        0.079       56.190       13.855        0.061      337.474        9.471      853.144
11/29/2014  18:03:00        1.831       69.638       69.333       19.595       29.076       21.489      383.957      845.422      461.783        0.568        0.085       69.662       14.674        0.044      337.453        9.436      853.143
11/29/2014  18:04:00       13.752       75.904       74.808       29.475       28.216       30.532      868.774      796.146      932.177        0.707        0.130       77.140       14.506        0.035      337.417        9.376      853.146
11/29/2014  18:05:00       13.095        5.316       48.234       32.912       73.450       38.085     1083.205     5394.838     1450.448        0.523        0.396       14.133       46.134       10.655      337.421        9.383      853.167
11/29/2014  18:06:00       15.792      -22.122        5.127       17.547       34.799       20.984      307.889     1210.984      440.315        0.136        0.098       27.180       11.815        0.189      337.411        9.367      853.151
11/29/2014  18:07:00       44.073       28.969        4.398       23.716       15.820       15.868      562.447      250.264      251.789        0.193        0.053       52.741       14.517        0.076      337.385        9.325      853.127
11/29/2014  18:08:00       16.083       30.629       -2.100       28.515       13.748       14.628      813.118      189.007      213.987        0.121        0.061       34.594       13.297        0.148      337.405        9.354      853.104
11/29/2014  18:09:00      -80.501       -1.880      -14.220       48.133       30.776       16.230     2316.813      947.158      263.406        0.511        0.176       80.523       15.039        0.035      337.531        9.568      853.081
11/29/2014  18:10:00     -127.600      -18.854      -10.911       41.651       42.395       26.309     1734.833     1797.354      692.166        1.049        0.211      128.986       29.768        0.053      337.570        9.633      853.079
11/29/2014  18:11:00     -163.331      -56.045       -3.863      100.080       75.729       38.266    10015.952     5734.956     1464.313        2.352        0.861      172.679       41.017        0.056      337.639        9.747      853.114
11/29/2014  18:12:00      -68.141      -89.542       -1.926       98.906       76.593       44.046     9782.415     5866.509     1940.082        1.512        0.879      112.521       37.513        0.111      337.727        9.895      853.161
11/29/2014  18:13:00     -110.687     -285.019       -5.455       98.102       97.596       56.133     9624.098     9525.024     3150.953        5.790        1.115      305.757       50.685        0.027      337.762        9.952      853.240
11/29/2014  18:14:00     -158.917     -260.187      -11.036       86.458      114.993       62.901     7475.071    13223.325     3956.546        5.886        1.233      304.880       65.056        0.046      337.775        9.973      853.254
11/29/2014  18:15:00     -136.567     -107.830       -0.141       91.291       73.310       44.177     8334.018     5374.402     1951.619        2.297        0.783      174.005       47.653        0.075      337.746        9.928      853.252
11/29/2014  18:16:00      -90.636      -85.584        3.059       58.450       66.132       32.693     3416.353     4373.393     1068.817        1.220        0.443      124.658       29.036        0.054      337.721        9.888      853.230
11/29/2014  18:17:00      -96.270      -84.151        7.950       86.146       53.198       40.377     7421.134     2830.026     1630.271        1.414        0.594      127.864       34.213        0.072      337.771        9.969      853.272
11/29/2014  18:18:00      -96.234     -166.541        4.747       71.222       67.806       36.449     5072.567     4597.687     1328.511        2.401        0.550      192.345       35.670        0.034      337.767        9.961      853.291
11/29/2014  18:19:00      -31.927      -90.356        2.171       31.309       81.435       28.195      980.252     6631.633      794.984        0.880        0.420       95.831       25.854        0.073      337.781        9.986      853.233
11/29/2014  18:20:00      -67.321      -13.141       12.733       41.226       56.659       32.297     1699.555     3210.252     1043.067        0.541        0.298       68.591       32.881        0.230      337.818       10.049      853.145
11/29/2014  18:21:00     -141.395     -121.142       -5.884       45.070       72.463       21.710     2031.288     5250.949      471.307        2.123        0.388      186.193       18.376        0.010      337.770        9.967      853.137
11/29/2014  18:22:00     -162.223     -117.881       -1.256       84.319       93.405       43.124     7109.686     8724.492     1859.675        2.895        0.885      200.531       42.779        0.046      337.717        9.878      853.141
11/29/2014  18:23:00     -177.426     -106.042      -15.028       90.818       78.572       42.335     8247.987     6173.607     1792.218        2.958        0.811      206.700       46.148        0.050      337.722        9.884      853.184
11/29/2014  18:24:00     -138.179     -156.395        2.073       87.593       88.757       55.304     7672.582     7877.804     3058.571        3.108        0.930      208.693       45.573        0.048      337.681        9.816      853.231
11/29/2014  18:25:00     -129.362      -76.089       -0.259       86.268       65.563       41.490     7442.090     4298.450     1721.393        1.799        0.673      150.080       34.324        0.052      337.707        9.861      853.254
11/29/2014  18:26:00     -158.120      -90.539       -7.659      138.380       97.691       46.116    19149.093     9543.499     2126.649        3.203        1.541      182.206       49.037        0.072      337.727        9.895      853.276
11/29/2014  18:27:00      -12.031        6.573       26.088       86.668       47.703       37.689     7511.396     2275.624     1420.453        0.604        0.560       13.710       48.496       12.513      337.647        9.761      853.215
11/29/2014  18:28:00      -31.340       18.358        7.482       47.053       45.898       30.431     2213.999     2106.648      926.041        0.331        0.262       36.321       17.429        0.230      337.884       10.161      853.156
11/29/2014  18:29:00     -128.414      -81.859        3.858       92.833       66.898       43.464     8617.910     4475.367     1889.129        1.909        0.749      152.286       38.532        0.064      337.866       10.128      853.280
11/29/2014  18:30:00     -250.701     -107.413        5.506       94.419       93.323       46.408     8914.881     8709.248     2153.724        4.709        0.989      272.742       47.482        0.030      337.694        9.838      853.366
11/29/2014  18:31:00     -176.225      -58.155       15.167      131.772      101.690       65.175    17363.869    10340.846     4247.791        3.330        1.598      185.573       72.321        0.152      337.628        9.730      853.354
11/29/2014  18:32:00     -211.605        5.387       -8.887       89.740       86.262       35.890     8053.227     7441.132     1288.123        3.083        0.839      211.674       34.423        0.026      337.668        9.796      853.304
11/29/2014  18:33:00     -127.802      -18.050        3.702       67.441       43.393       30.246     4548.294     1882.964      914.842        1.201        0.367      129.070       25.988        0.041      337.598        9.679      853.259
11/29/2014  18:34:00     -101.644      -35.291       -9.450       28.884       33.619       21.205      834.263     1130.213      449.641        0.704        0.121      107.596        9.292        0.007      337.629        9.732      853.198
11/29/2014  18:35:00      -52.688      -39.031       -3.009       13.389       20.334       12.907      179.278      413.459      166.583        0.253        0.038       65.570        7.869        0.014      337.632        9.740      853.186
11/29/2014  18:36:00      -54.494      -56.703       -2.764       32.420       29.201       18.233     1051.075      852.688      332.448        0.421        0.112       78.644       16.882        0.046      337.655        9.776      853.213
11/29/2014  18:37:00     -107.768      -57.157       -2.998       49.300       36.667       21.021     2430.476     1344.488      441.883        0.955        0.211      121.987       17.097        0.020      337.656        9.777      853.260
11/29/2014  18:38:00     -101.357      -74.973       -4.224       60.526       45.827       30.576     3663.419     2100.096      934.885        1.130        0.335      126.072       18.882        0.022      337.554        9.606      853.288
11/29/2014  18:39:00      -90.294      -83.773        9.166       68.198       40.930       31.580     4651.008     1675.260      997.274        1.129        0.366      123.171       39.500        0.103      337.529        9.564      853.303
11/29/2014  18:40:00      -56.710      -61.986        5.407       41.597       42.048       32.233     1730.286     1768.007     1038.935        0.581        0.227       84.014       28.684        0.117      337.574        9.641      853.312
11/29/2014  18:41:00     -130.186     -107.215       -6.928       50.091       33.689       27.493     2509.139     1134.935      755.879        1.644        0.220      168.652       26.440        0.025      337.550        9.598      853.305
11/29/2014  18:42:00     -108.961      -42.950       -8.558       41.395       27.244       24.611     1713.579      742.246      605.721        0.843        0.153      117.120       14.371        0.015      337.524        9.554      853.280
11/29/2014  18:43:00     -108.873      -43.168       -8.166       20.340       30.781       20.853      413.715      947.461      434.853        0.779        0.090      117.119       15.433        0.017      337.511        9.535      853.252
11/29/2014  18:44:00      -90.573      -22.251       -4.547       39.394       29.697       21.699     1551.855      881.896      470.843        0.581        0.145       93.266       20.071        0.046      337.554        9.606      853.260
11/29/2014  18:45:00      -94.997      -26.344      -11.158       51.560       26.920       21.680     2658.390      724.697      470.011        0.685        0.193       98.582       19.508        0.039      337.482        9.485      853.290
11/29/2014  18:46:00      -69.573      -40.161        7.064       43.751       28.455       18.381     1914.171      809.702      337.852        0.478        0.153       80.332       21.602        0.072      337.415        9.373      853.321
11/29/2014  18:47:00     -100.140      -29.655       -3.701       30.211       24.321       16.005      912.710      591.534      256.169        0.634        0.088      104.439       14.611        0.020      337.482        9.486      853.332
11/29/2014  18:48:00      -48.101      -27.982        0.094       21.478       15.155       15.835      461.320      229.668      250.733        0.202        0.047       55.648       11.357        0.042      337.504        9.522      853.308
11/29/2014  18:49:00      -11.629      -36.935        4.986       15.438       30.010       15.212      238.344      900.625      231.401        0.145        0.069       38.723       13.707        0.125      337.568        9.629      853.281
11/29/2014  18:50:00      -17.434       -8.129        4.232       15.404        9.506        8.574      237.278       90.366       73.513        0.039        0.020       19.236        5.404        0.079      337.594        9.673      853.303
11/29/2014  18:51:00      -58.992      -19.703       -1.197       19.255       13.573       11.892      370.754      184.232      141.411        0.228        0.035       62.195       10.720        0.030      337.586        9.661      853.339
11/29/2014  18:52:00      -59.230      -33.616       -1.627       30.210       18.265       14.136      912.655      333.604      199.824        0.304        0.072       68.105       16.337        0.058      337.509        9.531      853.371
11/29/2014  18:53:00      -11.812       11.343        9.948       34.314       41.175       16.505     1177.469     1695.341      272.410        0.176        0.157       16.377       11.200        0.468      337.437        9.410      853.386
11/29/2014  18:54:00       62.399       40.089       11.282       31.808       12.783       15.707     1011.755      163.398      246.714        0.352        0.071       74.167       13.363        0.032      337.388        9.327      853.367
11/29/2014  18:55:00       67.029       34.901        3.522       29.664       25.812       23.661      879.939      666.255      559.819        0.391        0.105       75.571       19.899        0.069      337.238        9.078      853.335
11/29/2014  18:56:00       92.820       51.548        0.995       42.768       27.588       27.063     1829.096      761.107      732.388        0.730        0.166      106.173       10.533        0.010      337.229        9.063      853.304
11/29/2014  18:57:00       59.167       40.873        1.971       36.186       37.068       20.458     1309.422     1374.030      418.519        0.414        0.155       71.912       20.336        0.080      337.173        8.969      853.309
11/29/2014  18:58:00       12.665       43.391       -7.933       26.701       16.021       17.311      712.923      256.665      299.674        0.169        0.063       45.201       14.983        0.110      337.328        9.230      853.324
11/29/2014  18:59:00      -21.669       48.558      -16.551       17.692       22.323        8.162      313.007      498.312       66.617        0.199        0.044       53.174        9.044        0.029      337.507        9.526      853.366
11/29/2014  19:00:00      -70.317      -28.614       -2.706       13.838       14.045       10.553      191.503      197.257      111.358        0.314        0.025       75.916        5.580        0.005      337.363        9.287      853.412
11/29/2014  19:01:00      -35.263      -26.965        5.571       42.811       18.598       13.918     1832.758      345.877      193.700        0.219        0.119       44.391       14.262        0.103      337.221        9.048      853.438
11/29/2014  19:02:00        1.559      -45.960       -9.195       14.039       13.332       10.670      197.101      177.754      113.846        0.134        0.024       45.987        7.667        0.028      337.312        9.201      853.441
11/29/2014  19:03:00       -0.889      -12.869       -2.775       15.402       22.559        9.919      237.227      508.898       98.381        0.051        0.042       12.900        3.631        0.079      337.327        9.227      853.423
11/29/2014  19:04:00      -26.614      -32.939       15.642       65.922       36.625       24.406     4345.674     1341.384      595.653        0.416        0.314       42.347       18.811        0.197      337.518        9.546      853.412
11/29/2014  19:05:00       12.648       10.681       17.128       19.511       18.987       18.363      380.695      360.513      337.194        0.082        0.054       16.554       13.690        0.684      337.228        9.061      853.417
11/29/2014  19:06:00       51.032       35.354       13.899       27.873       16.093       21.567      776.921      258.991      465.151        0.277        0.075       62.082       18.290        0.087      337.206        9.025      853.423
11/29/2014  19:07:00       40.582       30.623       21.683       31.128       24.413       23.884      968.958      596.000      570.429        0.259        0.107       50.840       16.096        0.100      337.145        8.923      853.424
11/29/2014  19:08:00        7.942       68.105       80.069       36.593       44.758       30.266     1339.051     2003.253      916.037        0.768        0.213       68.566       27.999        0.167      337.217        9.043      853.431
11/29/2014  19:09:00       22.178       76.180       88.929       34.715       42.723       26.013     1205.110     1825.283      676.658        0.895        0.185       79.342       27.690        0.122      337.251        9.101      853.450
11/29/2014  19:10:00       38.143       76.179       73.735       43.269       31.136       30.544     1872.171      969.452      932.961        0.823        0.189       85.195       29.549        0.120      337.174        8.971      853.471
11/29/2014  19:11:00       73.486       33.371       46.902       43.757       40.047       35.621     1914.647     1603.759     1268.832        0.675        0.239       80.709       32.139        0.159      337.118        8.876      853.493
11/29/2014  19:12:00       92.235       38.582       14.092       37.373       29.838       35.865     1396.724      890.283     1286.323        0.688        0.179       99.980       25.658        0.066      337.098        8.842      853.502
11/29/2014  19:13:00      114.148       41.597       -1.239       39.854       29.045       28.443     1588.312      843.638      809.024        0.900        0.162      121.491        6.361        0.003      337.097        8.841      853.509
11/29/2014  19:14:00       83.372       42.432        3.073       34.926       28.713       20.980     1219.843      824.462      440.147        0.562        0.124       93.549       20.097        0.046      337.056        8.772      853.513
11/29/2014  19:15:00       86.420       48.949        8.253       23.554       21.952       17.090      554.812      481.879      292.054        0.563        0.066       99.320        8.699        0.008      337.072        8.799      853.524
11/29/2014  19:16:00       85.303       52.079        6.513       27.700       20.602       16.499      767.291      424.427      272.202        0.575        0.073       99.944       16.308        0.027      337.133        8.901      853.539
11/29/2014  19:17:00       65.221       45.867        3.033       35.576       26.713       19.561     1265.669      713.582      382.643        0.436        0.118       79.734       11.697        0.022      337.165        8.956      853.552
11/29/2014  19:18:00       84.080       51.912        4.301       22.687       15.007       13.718      514.692      225.218      188.188        0.536        0.046       98.815        9.298        0.009      337.279        9.146      853.553
11/29/2014  19:19:00       47.886       36.455        8.749       25.627       24.000       13.871      656.722      576.021      192.415        0.256        0.071       60.183       14.034        0.054      337.264        9.122      853.536
11/29/2014  19:20:00       33.056       17.612        8.477       17.053       13.503        8.687      290.806      182.325       75.471        0.101        0.027       37.454        9.202        0.060      337.180        8.980      853.526
11/29/2014  19:21:00       46.784       13.207        4.764       18.174       14.816       11.222      330.299      219.513      125.924        0.153        0.034       48.613       11.077        0.052      337.350        9.264      853.523
11/29/2014  19:22:00       29.444        6.885        2.396       27.635       12.205        8.139      763.681      148.955       66.235        0.095        0.049       30.239        4.900        0.026      337.297        9.177      853.521
11/29/2014  19:23:00       13.563        5.268       -0.299       12.209        7.530       12.131      149.061       56.706      147.159        0.028        0.018       14.550        9.839        0.457      337.254        9.105      853.523
11/29/2014  19:24:00       13.484      -13.045        5.372        5.540        5.588        5.335       30.686       31.222       28.466        0.024        0.005       18.761        2.783        0.022      337.271        9.134      853.521
11/29/2014  19:25:00       27.424       -9.541        4.879        9.930        9.201        7.341       98.596       84.657       53.889        0.055        0.012       29.037        7.830        0.073      337.240        9.081      853.509
11/29/2014  19:26:00       41.990      -12.374       -0.506       14.548       13.077       10.598      211.648      171.002      112.319        0.121        0.025       43.775       11.479        0.069      337.296        9.175      853.512
11/29/2014  19:27:00       43.995       -7.410       15.990       19.348       15.561       14.504      374.328      242.133      210.364        0.154        0.041       44.614        8.412        0.036      337.352        9.268      853.533
11/29/2014  19:28:00       32.145      -35.362       12.463       24.652       33.841       16.479      607.743     1145.181      271.550        0.223        0.101       47.789       21.724        0.207      337.255        9.105      853.542
11/29/2014  19:29:00       30.006       32.516       31.007       28.408       16.307       15.027      807.027      265.907      225.808        0.211        0.065       44.246        2.992        0.005      337.038        8.742      853.541
11/29/2014  19:30:00       79.150       35.069       14.750       18.725       15.148       13.216      350.627      229.458      174.653        0.423        0.038       86.571        7.525        0.008      337.153        8.935      853.542
11/29/2014  19:31:00       55.405       46.910       40.358       39.438       23.882       24.995     1555.342      570.349      624.753        0.482        0.138       72.597       23.582        0.106      337.135        8.903      853.560
11/29/2014  19:32:00       11.657       38.515       51.539       28.680       28.371       21.887      822.519      804.921      479.023        0.319        0.105       40.240       23.034        0.328      337.161        8.948      853.598
11/29/2014  19:33:00       -0.185       57.858       73.765       16.009       23.693       15.257      256.294      561.363      232.789        0.492        0.053       57.859       14.291        0.061      337.270        9.132      853.640
11/29/2014  19:34:00        1.174       55.670       74.537       27.293       34.894       21.637      744.890     1217.581      468.153        0.554        0.122       55.683       20.422        0.135      337.223        9.052      853.656
11/29/2014  19:35:00       12.450       48.865       88.930       36.878       43.269       25.944     1359.978     1872.182      673.081        0.718        0.195       50.426       21.964        0.190      337.198        9.010      853.648
11/29/2014  19:36:00       -4.645       83.647      105.679       29.228       47.047       29.761      854.293     2213.396      885.713        1.107        0.198       83.776       26.895        0.103      337.326        9.225      853.635
11/29/2014  19:37:00       -8.298       63.979       93.350       21.850       44.090       27.393      477.438     1943.896      750.357        0.802        0.159       64.515       25.683        0.158      337.366        9.291      853.613
11/29/2014  19:38:00       32.239       56.072       75.637       49.998       65.181       48.892     2499.784     4248.599     2390.468        0.952        0.457       64.680       50.124        0.601      337.548        9.595      853.598
11/29/2014  19:39:00       47.262       59.844       66.357       45.507       52.650       31.930     2070.932     2771.982     1019.508        0.804        0.293       76.256       32.142        0.178      337.527        9.563      853.576
11/29/2014  19:40:00       61.198       44.783       45.822       53.067       30.467       32.246     2816.145      928.224     1039.819        0.632        0.239       75.833       34.897        0.212      337.425        9.389      853.537
11/29/2014  19:41:00       66.719       18.121       42.377       36.375       23.379       29.441     1323.127      546.578      866.799        0.466        0.137       69.136       18.409        0.071      337.389        9.330      853.487
11/29/2014  19:42:00       66.647       47.944       23.962       48.293       32.246       31.090     2332.261     1039.792      966.614        0.583        0.217       82.101       21.279        0.067      337.302        9.183      853.464
11/29/2014  19:43:00      -27.187      -44.234        3.944       23.235       31.113       15.843      539.881      968.008      251.015        0.223        0.088       51.921       12.899        0.062      337.368        9.294      853.547
11/29/2014  19:44:00      -48.971      -32.164        3.345       28.827       26.853       15.661      830.974      721.059      245.269        0.262        0.090       58.589       14.853        0.064      337.264        9.120      853.622
11/29/2014  19:45:00      -57.515      -66.625       -1.329       45.197       47.863       22.974     2042.776     2290.897      527.804        0.630        0.243       88.016       26.391        0.090      337.612        9.704      853.643
11/29/2014  19:46:00       47.510      -68.963       -9.121       46.905       38.282       23.217     2200.120     1465.519      539.016        0.565        0.210       83.744       19.231        0.053      337.557        9.611      853.626
11/29/2014  19:47:00       30.130      -37.861       10.627       34.733       29.061       24.945     1206.353      844.527      622.271        0.256        0.134       48.387       20.929        0.187      337.512        9.535      853.617
11/29/2014  19:48:00      -27.620      -30.025      -24.412       24.373       18.414       12.706      594.067      339.085      161.433        0.168        0.055       40.796        8.145        0.040      337.553        9.604      853.642
11/29/2014  19:49:00       -4.000      -25.312       -0.066       20.291       11.101       11.630      411.733      123.226      135.254        0.066        0.034       25.626        6.289        0.060      337.477        9.477      853.665
11/29/2014  19:50:00       -7.812      -18.463      -11.021       11.150       12.803       10.118      124.333      163.909      102.368        0.046        0.020       20.048        5.823        0.084      337.456        9.442      853.681
11/29/2014  19:51:00      -41.103      -27.016        9.097       38.959       26.141       14.476     1517.817      683.357      209.545        0.246        0.121       49.187       15.593        0.101      337.380        9.317      853.695
11/29/2014  19:52:00      -43.972      -34.514        8.254       49.300       36.736       22.760     2430.530     1349.506      518.001        0.374        0.215       55.900       21.954        0.154      337.309        9.196      853.709
11/29/2014  19:53:00      -91.195     -103.021       -6.298       34.626       53.525       25.004     1198.975     2864.932      625.182        1.183        0.234      137.586       29.146        0.045      337.403        9.352      853.724
11/29/2014  19:54:00     -124.676      -61.817        2.844       49.972       42.386       21.733     2497.204     1796.557      472.331        1.207        0.238      139.160       18.286        0.017      337.404        9.355      853.734
11/29/2014  19:55:00     -105.239      -56.554        6.905       56.622       38.707       26.111     3205.998     1498.221      681.764        0.985        0.269      119.472       25.175        0.044      337.339        9.247      853.744
11/29/2014  19:56:00     -107.500      -48.215       -6.078       42.189       23.767       19.402     1779.891      564.856      376.448        0.832        0.136      117.818       19.932        0.029      337.371        9.299      853.739
11/29/2014  19:57:00      -88.350      -68.584       -4.563       29.610       23.425       16.778      876.777      548.727      281.493        0.712        0.085      111.846       16.503        0.022      337.492        9.503      853.732
11/29/2014  19:58:00      -97.203      -44.548       -9.222       17.124       17.762        9.364      293.220      315.473       87.692        0.611        0.035      106.925        5.806        0.003      337.476        9.476      853.725
11/29/2014  19:59:00     -110.552      -23.281      -16.157       22.770       18.637       15.399      518.489      347.335      237.121        0.706        0.055      112.977       12.835        0.013      337.508        9.529      853.716
11/29/2014  20:00:00     -108.811      -34.807      -14.299       10.934       11.414        9.007      119.548      130.269       81.131        0.679        0.017      114.242        6.024        0.003      337.561        9.617      853.717
11/29/2014  20:01:00     -125.578      -57.863       -6.450       23.506       26.899       15.954      552.513      723.553      254.522        1.034        0.077      138.268       11.636        0.007      337.603        9.689      853.712
11/29/2014  20:02:00     -155.681      -63.766       -2.042       40.648       38.787       25.719     1652.228     1504.443      661.472        1.606        0.191      168.234       19.593        0.014      337.315        9.206      853.724
11/29/2014  20:03:00     -169.942      -75.683       -9.685       38.196       42.559       23.943     1458.938     1811.239      573.255        1.927        0.192      186.033       16.868        0.008      337.305        9.189      853.745
11/29/2014  20:04:00     -117.481      -24.640        0.026       48.833       32.768       24.388     2384.628     1073.765      594.760        0.923        0.203      120.037       24.424        0.041      337.210        9.031      853.761
11/29/2014  20:05:00     -131.630      -48.129       -4.523       24.298       37.649       18.763      590.392     1417.479      352.040        1.101        0.118      140.153       13.579        0.009      337.328        9.229      853.770
11/29/2014  20:06:00     -104.221      -78.792       -1.603       46.274       30.844       24.792     2141.284      951.323      614.663        1.039        0.185      130.653       26.306        0.041      337.397        9.343      853.778
11/29/2014  20:07:00     -106.655      -33.333      -11.876       14.548       19.726       12.905      211.652      389.111      166.540        0.670        0.038      111.742        5.277        0.002      337.408        9.365      853.794
11/29/2014  20:08:00     -129.195      -30.518       -5.117       39.902       23.981       21.391     1592.135      575.100      457.595        1.014        0.131      132.751       19.289        0.021      337.379        9.313      853.810
11/29/2014  20:09:00      -86.698      -68.238       -0.221       27.296       43.802       19.591      745.072     1918.631      383.804        0.761        0.152      110.331       16.932        0.024      337.483        9.488      853.826
11/29/2014  20:10:00      -38.518      -10.135       -1.100       51.489       32.568       21.488     2651.141     1060.661      461.713        0.288        0.209       39.829       24.134        0.367      337.402        9.352      853.833
11/29/2014  20:11:00      -54.946      -21.439        1.933       34.230       23.592       15.115     1171.682      556.566      228.450        0.272        0.098       58.980       13.683        0.054      337.432        9.402      853.825
11/29/2014  20:12:00      -73.897      -49.093        0.249       21.802       24.595       14.595      475.317      604.907      213.019        0.458        0.065       88.718       12.922        0.021      337.399        9.346      853.817
11/29/2014  20:13:00      -97.326      -52.956       -3.678       36.865       34.603       19.696     1359.002     1197.388      387.917        0.762        0.147      110.800       19.977        0.033      337.425        9.390      853.821
11/29/2014  20:14:00      -35.553      -67.056       -2.812       62.769       35.577       23.555     3939.935     1265.689      554.843        0.576        0.288       75.898       25.013        0.109      337.515        9.540      853.827
11/29/2014  20:15:00     -122.733      -88.107       -6.154       60.465       38.861       24.858     3656.030     1510.171      617.921        1.432        0.289      151.083       28.515        0.036      337.491        9.499      853.850
11/29/2014  20:16:00     -176.432      -88.130      -13.362       58.572       42.119       27.268     3430.683     1774.038      743.517        2.251        0.297      197.219       28.672        0.021      337.456        9.440      853.868
11/29/2014  20:17:00      -58.060       -8.461        9.459       62.387       40.878       25.631     3892.135     1670.990      656.925        0.487        0.311       58.673       28.736        0.240      337.353        9.269      853.881
11/29/2014  20:18:00      -49.988      -15.739       -5.852       44.712       31.750       20.356     1999.206     1008.076      414.374        0.310        0.171       52.408       24.787        0.224      337.568        9.630      853.865
11/29/2014  20:19:00      -25.887      -30.426       -1.461       32.700       31.406       23.872     1069.307      986.307      569.893        0.211        0.131       39.949       15.723        0.155      337.382        9.317      853.847
11/29/2014  20:20:00      -96.769      -41.082        3.631       54.342       40.248       21.405     2953.090     1619.936      458.185        0.805        0.252      105.129       22.924        0.048      337.417        9.376      853.846
11/29/2014  20:21:00     -164.743      -26.016        0.582       75.067       79.035       43.963     5635.049     6246.458     1932.781        2.081        0.691      166.785       42.072        0.064      337.587        9.659      853.847
11/29/2014  20:22:00     -132.649       -3.544       -0.604       51.662       48.477       32.605     2668.980     2349.999     1063.108        1.184        0.304      132.696       30.878        0.054      337.545        9.591      853.819
11/29/2014  20:23:00      -61.336      -14.931        1.165       38.295       29.456       19.990     1466.471      867.653      399.599        0.336        0.137       63.127       23.733        0.141      337.528        9.563      853.777
11/29/2014  20:24:00       -8.524      -26.040       -3.309       28.082       20.560       10.721      788.600      422.706      114.949        0.104        0.066       27.399       10.065        0.135      337.507        9.528      853.762
11/29/2014  20:25:00       60.058       32.959       23.822       27.488       20.972       17.621      755.584      439.842      310.497        0.338        0.075       68.507       16.243        0.056      337.353        9.269      853.733
11/29/2014  20:26:00       38.519        7.681       11.241       32.836       17.383       17.755     1078.190      302.166      315.250        0.168        0.085       39.277       11.271        0.082      337.473        9.469      853.719
11/29/2014  20:27:00      -16.228      -21.093       10.664       25.662       18.816       16.532      658.548      354.036      273.292        0.105        0.064       26.613        9.585        0.130      337.438        9.412      853.736
11/29/2014  20:28:00      -13.233      -24.550      -15.039       23.521       18.919       14.030      553.256      357.921      196.829        0.106        0.055       27.889       15.481        0.308      337.524        9.556      853.743
11/29/2014  20:29:00      -51.834      -28.033       -1.316       25.353       18.991       11.937      642.785      360.674      142.502        0.231        0.057       58.929        9.596        0.027      337.541        9.584      853.746
11/29/2014  20:30:00      -53.834      -26.834       -3.786       27.720       19.357       12.078      768.417      374.706      145.873        0.246        0.064       60.151        4.993        0.007      337.438        9.410      853.740
11/29/2014  20:31:00      -79.857      -18.695       -3.439       16.533       14.737       11.705      273.348      217.178      137.012        0.368        0.031       82.016        8.148        0.010      337.486        9.492      853.731
11/29/2014  20:32:00      -63.832      -13.450       -7.940       27.894       18.308       17.915      778.058      335.192      320.944        0.288        0.072       65.234       16.314        0.063      337.522        9.553      853.723
11/29/2014  20:33:00      -40.573      -28.907        1.702       29.803       31.525       18.196      888.214      993.820      331.098        0.235        0.111       49.818       15.471        0.096      337.442        9.418      853.721
11/29/2014  20:34:00      -12.217      -40.175       -0.938       20.873       23.156       15.311      435.667      536.190      234.419        0.148        0.060       41.991       13.853        0.109      337.423        9.388      853.732
11/29/2014  20:35:00       -2.568      -44.196        0.178       26.353       24.155       13.209      694.479      583.442      174.475        0.171        0.073       44.271       13.222        0.089      337.388        9.329      853.748
11/29/2014  20:36:00      -17.192      -51.937       -7.309       11.345        9.670        7.167      128.717       93.512       51.370        0.166        0.014       54.708        6.261        0.013      337.394        9.337      853.765
11/29/2014  20:37:00      -41.703      -27.502       -0.251       23.591       17.069       12.778      556.533      291.358      163.267        0.175        0.051       49.955        6.833        0.019      337.222        9.051      853.780
11/29/2014  20:38:00      -70.246      -20.534       -3.998       11.487        9.691        6.891      131.961       93.923       47.483        0.282        0.014       73.186        5.136        0.005      337.080        8.811      853.795
11/29/2014  20:39:00       -4.226      -13.977        7.289       15.846       17.975        7.756      251.093      323.087       60.154        0.045        0.032       14.602        8.304        0.323      337.137        8.905      853.795
11/29/2014  20:40:00       38.581       17.452        2.860       13.033       10.091       14.060      169.854      101.831      197.693        0.114        0.023       42.345        8.762        0.043      337.159        8.945      853.780
11/29/2014  20:41:00       41.510       27.782       16.363       13.338       12.847       17.343      177.901      165.052      300.794        0.170        0.032       49.950       11.449        0.053      337.055        8.771      853.755
11/29/2014  20:42:00       51.302       21.324       21.054       24.188       25.355       20.654      585.041      642.876      426.598        0.259        0.083       55.557       17.713        0.102      337.131        8.898      853.757
11/29/2014  20:43:00       61.312       30.839       33.684       25.984       23.998       22.479      675.181      575.905      505.303        0.380        0.088       68.631       19.547        0.081      337.152        8.933      853.756
11/29/2014  20:44:00       44.644       66.632       56.017       21.843       23.512       13.136      477.130      552.820      172.554        0.539        0.060       80.205        7.395        0.009      337.097        8.839      853.765
11/29/2014  20:45:00        8.739       40.768       58.897       22.147       22.415       15.179      490.498      502.414      230.388        0.322        0.061       41.694       13.683        0.108      337.086        8.821      853.786
11/29/2014  20:46:00       18.955       39.936       57.680       24.052       24.140       12.068      578.513      582.733      145.646        0.329        0.065       44.206        9.957        0.051      337.079        8.809      853.791
11/29/2014  20:47:00       13.556       45.189       56.288       22.612       29.284       20.148      511.294      857.526      405.949        0.358        0.089       47.179       17.140        0.132      337.062        8.781      853.800
11/29/2014  20:48:00       18.731       47.463       67.287       34.843       30.617       16.972     1214.012      937.430      288.040        0.478        0.122       51.025       13.243        0.067      337.214        9.038      853.812
11/29/2014  20:49:00       27.212       47.742       56.780       31.448       28.230       22.503      988.952      796.931      506.380        0.427        0.115       54.952       18.114        0.109      337.280        9.147      853.813
11/29/2014  20:50:00       22.440       28.546       29.881       27.733       18.718       20.843      769.143      350.355      434.431        0.188        0.078       36.311       13.835        0.145      337.276        9.141      853.801
11/29/2014  20:51:00       38.289       18.449        8.402       38.025       41.192       25.390     1445.880     1696.745      644.632        0.283        0.189       42.502       13.795        0.105      337.232        9.068      853.776
11/29/2014  20:52:00       50.773       70.380       -6.535       30.593       28.655       15.020      935.929      821.120      225.599        0.478        0.099       86.783        6.946        0.006      337.393        9.338      853.752
11/29/2014  20:53:00        7.274       33.819       -2.290       26.067       29.493       14.492      679.507      869.843      210.004        0.148        0.088       34.592       10.911        0.099      337.475        9.472      853.748
11/29/2014  20:54:00     -144.969      -19.413      -22.237       38.780       32.885       20.249     1503.882     1081.421      410.038        1.244        0.150      146.263       19.510        0.018      336.886        8.486      853.777
11/29/2014  20:55:00     -106.645       -8.918      -14.178       56.676       32.157       18.027     3212.224     1034.051      324.977        0.811        0.229      107.017       19.234        0.032      337.216        9.041      853.818
11/29/2014  20:56:00      -58.634       -0.128       -3.630       58.223       40.740       28.070     3389.948     1659.765      787.938        0.464        0.292       58.634       35.772        0.372      337.557        9.613      853.843
11/29/2014  20:57:00     -100.227      -46.929       -2.973       35.945       21.622       18.136     1292.076      467.517      328.912        0.717        0.104      110.669       14.343        0.017      337.206        9.025      853.866
11/29/2014  20:58:00     -136.369      -77.263        2.419       56.337       43.647       22.890     3173.871     1905.046      523.956        1.509        0.280      156.736       14.914        0.009      337.169        8.962      853.869
11/29/2014  20:59:00     -103.851      -38.446       -0.050       49.371       66.213       30.893     2437.533     4384.101      954.353        1.002        0.389      110.739       29.118        0.069      336.978        8.642      853.848
11/29/2014  21:00:00     -105.507      -17.257       -4.444       49.770       26.113       18.194     2477.081      681.914      331.020        0.747        0.175      106.909       21.874        0.042      337.008        8.690      853.828
11/29/2014  21:01:00     -123.331       -8.773      -15.226       37.335       30.959       23.117     1393.875      958.484      534.394        0.920        0.144      123.643       21.480        0.030      337.255        9.105      853.818
11/29/2014  21:02:00     -144.438      -22.046      -15.473       26.376       32.054       20.233      695.695     1027.480      409.376        1.186        0.107      146.111       18.991        0.017      337.054        8.768      853.816
11/29/2014  21:03:00     -143.570       -6.426      -25.275       39.692       20.875       13.716     1575.418      435.768      188.120        1.175        0.110      143.714        6.708        0.002      337.307        9.193      853.814
11/29/2014  21:04:00      -59.128       34.026       -5.915       25.552       32.106       16.988      652.927     1030.783      288.598        0.333        0.099       68.219        8.088        0.014      337.583        9.654      853.807
11/29/2014  21:05:00     -136.490       20.994       -7.679       67.536       35.695       27.017     4561.146     1274.163      729.901        1.285        0.328      138.095       30.037        0.047      337.593        9.671      853.809
11/29/2014  21:06:00     -209.735        8.173      -30.102       52.846       38.240       24.449     2792.654     1462.283      597.735        2.491        0.243      209.894       23.038        0.012      337.654        9.771      853.800
11/29/2014  21:07:00     -132.417      -25.096       -9.554       57.888       48.078       30.312     3351.025     2311.541      918.843        1.242        0.329      134.775       35.035        0.068      337.232        9.067      853.805
11/29/2014  21:08:00      -84.582      -41.644        2.902       39.241       30.393       24.928     1539.864      923.737      621.426        0.599        0.154       94.278       18.349        0.038      336.994        8.667      853.807
11/29/2014  21:09:00      -89.553       31.306      -10.113       24.532       34.654       17.374      601.807     1200.875      301.842        0.560        0.105       94.867        6.877        0.005      337.340        9.248      853.799
11/29/2014  21:10:00     -121.193       12.128       -9.325       61.244       53.478       36.401     3750.779     2859.943     1325.006        1.143        0.397      121.798       31.862        0.068      337.476        9.475      853.786
11/29/2014  21:11:00     -127.095      -28.074       -5.686       43.227       37.465       21.344     1868.538     1403.649      455.570        1.035        0.186      130.159       21.624        0.028      337.460        9.450      853.793
11/29/2014  21:12:00     -126.755       -2.338      -11.098       38.201       34.671       22.178     1459.305     1202.061      491.849        0.967        0.158      126.776       19.349        0.023      337.333        9.236      853.842
11/29/2014  21:13:00      -93.087      -23.921       -2.087       31.312       24.887       18.212      980.471      619.340      331.675        0.559        0.097       96.112       12.589        0.017      337.131        8.899      853.866
11/29/2014  21:14:00       -0.487      -86.910       17.291       18.405       32.488       17.367      338.756     1055.457      301.597        0.477        0.085       86.911        8.509        0.010      337.244        9.085      853.858
11/29/2014  21:15:00      -61.473      -38.042        5.703       55.045       49.636       28.063     3029.988     2463.749      787.524        0.577        0.314       72.292       28.105        0.151      337.472        9.469      853.859
11/29/2014  21:16:00      -12.042      -10.778       10.126       23.528       22.366       17.846      553.553      500.238      318.469        0.087        0.069       16.160       14.471        0.802      337.410        9.365      853.885
11/29/2014  21:17:00      -59.646     -112.954       -3.157       57.934       54.328       26.115     3356.394     2951.571      681.977        1.166        0.349      127.736       18.893        0.022      337.445        9.423      853.925
11/29/2014  21:18:00      -67.925      -82.848        2.908       71.297       41.196       28.617     5083.228     1697.117      818.958        0.954        0.380      107.134       20.594        0.037      337.444        9.421      853.945
11/29/2014  21:19:00        8.823      -37.123       25.648       32.988       43.585       24.134     1088.206     1899.650      582.429        0.284        0.179       38.157       29.907        0.614      337.370        9.299      853.931
11/29/2014  21:20:00       35.246       28.655       28.171       17.762       10.858       14.333      315.501      117.899      205.425        0.175        0.032       45.425        6.782        0.022      337.327        9.227      853.863
11/29/2014  21:21:00      -53.502       62.053      -11.546       43.591       18.714       18.364     1900.173      350.199      337.238        0.472        0.129       81.933       20.965        0.065      337.446        9.426      853.825
11/29/2014  21:22:00     -105.831       66.939      -14.217       30.928       37.911       19.469      956.529     1437.272      379.053        0.933        0.139      125.224       14.182        0.013      337.501        9.514      853.858
11/29/2014  21:23:00     -121.174      -18.135      -13.857       38.951       40.682       23.465     1517.218     1655.040      550.608        0.946        0.186      122.524       18.819        0.024      337.599        9.681      853.896
11/29/2014  21:24:00     -169.663      -47.055      -12.137       37.091       45.970       25.149     1375.721     2113.266      632.473        1.763        0.206      176.068       23.085        0.017      337.225        9.055      853.930
11/29/2014  21:25:00     -120.258       31.619       -6.169       47.863       54.374       29.043     2290.914     2956.491      843.518        1.079        0.305      124.346       27.243        0.048      337.286        9.156      853.936
11/29/2014  21:26:00      -89.069       60.435      -24.229       36.062       42.006       21.264     1300.496     1764.493      452.160        0.784        0.176      107.637       23.343        0.047      337.405        9.356      853.916
11/29/2014  21:27:00      -99.558       10.275       -2.910       59.757       43.624       22.007     3570.842     1903.086      484.322        0.799        0.298      100.086       17.793        0.032      337.561        9.619      853.919
11/29/2014  21:28:00      -83.513      -79.202        1.005       77.942       61.198       35.778     6075.010     3745.197     1280.097        1.217        0.555      115.098       33.265        0.084      337.372        9.301      853.904
11/29/2014  21:29:00     -178.292      -91.093       -3.385       72.169       66.789       33.534     5208.348     4460.740     1124.540        2.544        0.540      200.215       30.764        0.024      337.395        9.338      853.928
11/29/2014  21:30:00      -60.405      -58.557       11.849       53.624       40.815       34.964     2875.561     1665.888     1222.448        0.649        0.288       84.128       30.950        0.135      337.367        9.293      853.995
11/29/2014  21:31:00     -124.159     -124.702       -3.923       66.432       48.917       37.558     4413.197     2392.852     1410.621        1.960        0.411      175.972       40.323        0.053      337.355        9.272      854.020
11/29/2014  21:32:00     -136.131      -78.913       -3.078       54.266       30.529       25.971     2944.793      931.996      674.486        1.466        0.228      157.350       30.014        0.036      337.357        9.275      854.013
11/29/2014  21:33:00     -111.996      -55.873       -2.789       39.699       31.668       17.137     1575.975     1002.885      293.671        0.927        0.144      125.160       13.424        0.012      337.312        9.201      854.004
11/29/2014  21:34:00      -80.630      -38.846       -2.588       45.391       39.162       25.075     2060.358     1533.631      628.753        0.612        0.211       89.500       24.451        0.075      337.218        9.043      853.993
11/29/2014  21:35:00      -97.470      -54.583       -8.645       29.090       17.939       11.480      846.226      321.804      131.785        0.693        0.065      111.712        7.245        0.004      337.239        9.079      854.004
11/29/2014  21:36:00      -30.774      -75.938       -4.623       21.584       22.492       13.990      465.867      505.873      195.733        0.395        0.058       81.936        7.807        0.009      337.264        9.118      854.011
11/29/2014  21:37:00      -41.507      -42.350        2.880       21.549       35.952       12.440      464.338     1292.547      154.745        0.272        0.096       59.298       11.276        0.036      337.236        9.073      853.998
11/29/2014  21:38:00      -65.112      -27.736       -3.788       35.590       21.035       14.876     1266.642      442.474      221.283        0.348        0.097       70.774       17.281        0.060      337.156        8.941      853.994
11/29/2014  21:39:00      -93.287      -65.978       -3.495       25.887       26.253       17.793      670.160      689.214      316.576        0.737        0.084      114.261       15.716        0.019      337.186        8.990      854.009
11/29/2014  21:40:00      -99.255      -63.489        4.765       34.518       23.411       18.682     1191.510      548.087      349.015        0.800        0.104      117.823       10.720        0.008      337.073        8.801      854.036
11/29/2014  21:41:00     -111.007      -16.379        0.772       37.198       29.034       17.518     1383.677      842.992      306.885        0.756        0.127      112.209       18.954        0.029      336.975        8.636      854.032
11/29/2014  21:42:00      -34.140      -47.727        7.739       26.870       24.317       19.397      722.005      591.306      376.251        0.260        0.084       58.681       12.678        0.047      337.012        8.699      854.022
11/29/2014  21:43:00      -60.415      -66.594       -5.611       29.809       17.387       12.862      888.595      302.306      165.440        0.474        0.068       89.915       12.776        0.020      337.066        8.787      854.043
11/29/2014  21:44:00      -60.295      -89.203        1.737       26.147       23.987       16.693      683.673      575.372      278.671        0.657        0.077      107.669       15.156        0.020      337.110        8.860      854.067
11/29/2014  21:45:00      -43.637      -69.246        3.583       22.157       40.493       14.374      490.921     1639.646      206.621        0.452        0.117       81.848       14.657        0.032      337.226        9.059      854.072
11/29/2014  21:46:00      -48.972      -38.116       -1.701       25.056       17.692       13.814      627.822      312.989      190.835        0.249        0.057       62.057       14.661        0.056      337.184        8.988      854.065
11/29/2014  21:47:00      -83.671      -32.749        2.556       23.912       20.667       16.496      571.797      427.143      272.125        0.468        0.064       89.852       10.466        0.014      337.055        8.770      854.065
11/29/2014  21:48:00      -66.881      -59.885       -0.060       34.012       31.853       20.192     1156.785     1014.587      407.702        0.532        0.129       89.774       15.057        0.028      337.036        8.738      854.076
11/29/2014  21:49:00      -87.975      -64.875       -2.541       27.026       21.346       16.452      730.406      455.665      270.653        0.671        0.073      109.309       15.330        0.020      337.062        8.781      854.065
11/29/2014  21:50:00     -111.722      -56.523       -8.431       24.467       24.715       14.623      598.626      610.844      213.833        0.859        0.071      125.206        9.439        0.006      337.016        8.705      854.037
11/29/2014  21:51:00      -27.545      -42.386       -1.091       30.232       20.952        7.221      913.955      438.969       52.148        0.198        0.070       50.550        8.444        0.028      337.155        8.937      854.003
11/29/2014  21:52:00       49.071        5.220       -0.055       28.330       12.751       10.546      802.606      162.596      111.228        0.176        0.054       49.348        8.128        0.027      337.026        8.723      853.996
11/29/2014  21:53:00        2.593      -34.681       -0.242       30.127       35.661       24.088      907.618     1271.694      580.231        0.198        0.138       34.778       23.401        0.453      336.983        8.648      854.018
11/29/2014  21:54:00      -32.873       -3.661        1.710       31.440       17.418       14.978      988.470      303.387      224.342        0.131        0.076       33.076       17.072        0.266      337.152        8.933      854.042
11/29/2014  21:55:00      -68.442      -46.229        2.300       48.920       32.216       16.367     2393.132     1037.868      267.870        0.526        0.185       82.592       14.762        0.032      337.250        9.097      854.053
11/29/2014  21:56:00      -32.216      -58.137       -6.240       27.412       27.905       15.778      751.418      778.704      248.956        0.312        0.089       66.466       13.364        0.040      337.329        9.229      854.064
11/29/2014  21:57:00      -72.412      -14.690       -4.255       24.300       17.974       17.331      590.497      323.067      300.369        0.335        0.061       73.887       15.951        0.047      337.186        8.990      854.074
11/29/2014  21:58:00       -6.505       -3.682       20.556       32.429       36.270       19.231     1051.623     1315.539      369.822        0.161        0.137        7.474       21.857        8.551      336.928        8.558      854.091
11/29/2014  21:59:00       -9.036       37.130       13.839       23.505       28.332       18.158      552.496      802.725      329.720        0.167        0.084       38.214       20.933        0.300      336.802        8.348      854.098
11/29/2014  22:00:00      -22.999       39.269        2.470       23.288       30.396       18.163      542.354      923.937      329.894        0.194        0.090       45.509       16.206        0.127      336.947        8.588      854.100
11/29/2014  22:01:00      -82.287      -21.643       -3.017       57.527       38.097       24.451     3309.326     1451.389      597.858        0.630        0.268       85.085       29.587        0.121      336.804        8.352      854.102
11/29/2014  22:02:00      -40.267       26.603        2.630       40.915       30.627       22.163     1674.013      938.012      491.211        0.272        0.155       48.262       21.841        0.205      336.787        8.324      854.095
11/29/2014  22:03:00      -37.134       51.243       -7.578       21.345       19.262       11.485      455.609      371.039      131.902        0.251        0.048       63.283        5.362        0.007      336.726        8.221      854.074
11/29/2014  22:04:00      -50.299       57.168       -7.465       24.730       27.665       17.561      611.556      765.337      308.390        0.377        0.084       76.146       14.486        0.036      336.700        8.178      854.046
11/29/2014  22:05:00      -36.601       73.179       -3.262       24.251       27.598       18.310      588.123      761.628      335.254        0.419        0.084       81.821       17.321        0.045      336.877        8.474      854.025
11/29/2014  22:06:00      -46.806       83.205       -6.664       30.892       35.679       19.795      954.294     1272.978      391.824        0.589        0.131       95.466       23.093        0.059      336.812        8.365      854.012
11/29/2014  22:07:00      -72.584       69.709      -24.437       14.917       31.563       13.018      222.530      996.249      169.460        0.606        0.069      100.637       11.644        0.013      336.696        8.171      854.010
11/29/2014  22:08:00      -72.939       38.896      -18.102       20.944       14.870       16.855      438.638      221.109      284.101        0.405        0.047       82.662       14.132        0.029      336.769        8.294      854.017
11/29/2014  22:09:00      -58.482       45.793       -8.997       22.955       26.147       16.907      526.942      683.691      285.836        0.355        0.075       74.278       17.702        0.057      337.032        8.733      854.007
11/29/2014  22:10:00      -79.523       40.798      -15.385       28.865       18.376       20.668      833.201      337.692      427.167        0.491        0.080       89.377       16.772        0.035      336.951        8.597      853.992
11/29/2014  22:11:00      -65.125       10.991      -13.024       28.555       25.844       15.594      815.412      667.915      243.163        0.313        0.086       66.045       16.605        0.063      336.984        8.652      853.995
11/29/2014  22:12:00      -56.897       26.714       -8.847       30.800       49.766       20.883      948.623     2476.646      436.087        0.394        0.193       62.857       19.617        0.097      336.794        8.334      854.021
11/29/2014  22:13:00      -86.198      -40.452      -12.192       35.333       26.049       17.490     1248.441      678.562      305.897        0.572        0.112       95.218       16.286        0.029      336.589        7.994      854.055
11/29/2014  22:14:00     -108.259      -51.794      -10.213       25.544       19.717       13.834      652.497      388.776      191.388        0.787        0.062      120.010       12.944        0.012      336.524        7.884      854.096
11/29/2014  22:15:00      -90.290      -42.853       -9.186       29.925       24.448       16.517      895.514      597.693      272.819        0.592        0.088       99.943       14.053        0.020      336.495        7.835      854.114
11/29/2014  22:16:00      -82.860      -24.103       -8.133       18.647       16.116       12.319      347.714      259.712      151.757        0.414        0.038       86.295        8.683        0.010      336.530        7.895      854.109
11/29/2014  22:17:00      -32.371        3.746       -3.053       31.196       23.249       13.493      973.188      540.523      182.055        0.138        0.085       32.588       13.719        0.177      336.553        7.933      854.095
11/29/2014  22:18:00      -75.127      -15.194       -6.670       23.702       29.979       23.401      561.775      898.734      547.630        0.396        0.100       76.648       22.559        0.087      336.692        8.165      854.088
11/29/2014  22:19:00      -70.337      -43.957       -1.280       26.771       16.986       20.309      716.695      288.508      412.451        0.415        0.071       82.943       18.776        0.051      336.431        7.727      854.103
11/29/2014  22:20:00      -39.054      -35.088       -3.893       37.778       18.087       18.942     1427.192      327.148      358.791        0.244        0.106       52.501       19.045        0.132      336.469        7.792      854.118
11/29/2014  22:21:00      -40.836      -43.573        0.427       27.198       19.209       19.788      739.709      369.002      391.566        0.253        0.075       59.717       17.303        0.084      336.408        7.690      854.144
11/29/2014  22:22:00      -39.009      -43.172       -3.066       16.280       16.058        9.686      265.043      257.858       93.812        0.201        0.031       58.185        3.701        0.004      336.421        7.712      854.181
11/29/2014  22:23:00      -52.814      -39.016        6.674       36.466       24.283       16.877     1329.788      589.675      284.838        0.328        0.110       65.662       18.824        0.082      336.463        7.780      854.193
11/29/2014  22:24:00      -59.446      -51.667       -2.543       33.479       21.330       15.991     1120.863      454.975      255.715        0.402        0.092       78.761       15.842        0.040      336.497        7.840      854.204
11/29/2014  22:25:00      -36.459      -35.554        5.916       32.477       19.764       13.754     1054.740      390.604      189.166        0.213        0.082       50.924       12.657        0.062      336.525        7.886      854.211
11/29/2014  22:26:00      -78.434      -14.432       -8.153       37.723       14.007       14.787     1422.997      196.203      218.653        0.413        0.092       79.751       16.132        0.041      336.542        7.914      854.206
11/29/2014  22:27:00      -56.559      -27.213       -3.167       29.782       18.609       14.659      886.983      346.284      214.872        0.270        0.072       62.765       15.544        0.061      336.556        7.936      854.190
11/29/2014  22:28:00      -56.791       -2.107       -0.358       25.646       23.923       14.756      657.705      572.305      217.746        0.234        0.072       56.830       13.628        0.058      336.567        7.957      854.163
11/29/2014  22:29:00      -73.489       37.749       -9.283       19.027       18.327       17.754      362.042      335.875      315.220        0.396        0.051       82.618       11.595        0.020      336.542        7.913      854.150
11/29/2014  22:30:00      -74.972       55.438      -20.520       22.823       22.082       15.563      520.900      487.624      242.220        0.518        0.063       93.243       11.614        0.016      336.519        7.876      854.146
11/29/2014  22:31:00      -40.910       17.243       -6.038       20.229       23.620       17.095      409.213      557.913      292.254        0.163        0.063       44.396        8.912        0.040      336.552        7.930      854.159
11/29/2014  22:32:00      -71.577      -23.184       -3.024       24.919       18.155       13.250      620.965      329.615      175.567        0.340        0.056       75.238       11.731        0.024      336.424        7.715      854.166
11/29/2014  22:33:00      -42.645      -26.023        3.403       29.395       22.923       20.684      864.095      525.477      427.839        0.216        0.091       49.958       21.860        0.191      336.375        7.634      854.175
11/29/2014  22:34:00      -21.748      -31.055        4.341       22.793       17.044       12.184      519.532      290.510      148.442        0.121        0.048       37.913       13.318        0.123      336.395        7.669      854.183
11/29/2014  22:35:00      -14.887      -21.722        5.192       15.007       19.023       12.616      225.209      361.869      159.151        0.073        0.037       26.334        8.879        0.114      336.451        7.762      854.208
11/29/2014  22:36:00       25.933      -14.748        9.216       13.173       28.291        9.319      173.516      800.362       86.842        0.102        0.053       29.834        9.535        0.102      336.509        7.859      854.225
11/29/2014  22:37:00       25.655      -24.024       20.559       27.465       45.185       26.021      754.303     2041.694      677.110        0.256        0.174       35.147       28.224        0.645      336.443        7.749      854.250
11/29/2014  22:38:00       27.261      -12.319       41.625       28.872       43.978       38.525      833.594     1934.065     1484.214        0.344        0.213       29.915       30.425        1.034      336.178        7.303      854.276
11/29/2014  22:39:00       19.246       -8.693       47.585       35.656       42.903       34.854     1271.340     1840.643     1214.772        0.352        0.216       21.118       17.846        0.714      336.291        7.495      854.290
11/29/2014  22:40:00      138.047     -172.911      -48.030      100.471       77.666       52.496    10094.378     6032.057     2755.801        3.507        0.944      221.258       68.907        0.097      336.511        7.858      854.310
11/29/2014  22:41:00       70.628      -50.609       -3.929       54.008       69.802       69.642     2916.834     4872.293     4850.020        1.010        0.632       86.889       42.660        0.241      336.663        8.117      854.320
11/29/2014  22:42:00       73.019      -59.832       17.455       49.906       66.388       52.445     2490.641     4407.398     2750.495        0.943        0.482       94.401       45.022        0.227      336.680        8.145      854.325
11/29/2014  22:43:00        9.294       11.884       67.979       37.556       48.586       29.970     1410.467     2360.574      898.199        0.476        0.233       15.087       15.585        1.067      336.846        8.421      854.325
11/29/2014  22:44:00        3.738       61.196       90.857       31.311       48.613       25.735      980.391     2363.209      662.267        0.801        0.200       61.310       26.641        0.189      336.703        8.184      854.323
11/29/2014  22:45:00        9.560       39.775       44.041       33.662       38.525       36.140     1133.118     1484.143     1306.105        0.377        0.196       40.908       29.363        0.515      336.564        7.952      854.306
11/29/2014  22:46:00       25.258       36.622       56.043       37.168       35.649       24.147     1381.487     1270.829      583.100        0.418        0.162       44.488       26.705        0.360      336.708        8.193      854.278
11/29/2014  22:47:00       13.364       29.887      -13.169       49.813       25.680       18.640     2481.307      659.457      347.439        0.237        0.174       32.739       13.741        0.176      336.775        8.303      854.251
11/29/2014  22:48:00       21.633       44.846       -0.312       28.996       21.514       18.630      840.747      462.854      347.075        0.206        0.083       49.791       13.492        0.073      336.771        8.297      854.227
11/29/2014  22:49:00      -85.890       12.699      -16.758       89.247       80.210       23.847     7965.006     6433.685      568.699        1.139        0.748       86.824       21.587        0.062      336.603        8.016      854.247
11/29/2014  22:50:00     -195.222      -83.021       -4.980       72.017       62.772       34.772     5186.389     3940.330     1209.110        2.768        0.517      212.142       35.408        0.028      336.353        7.594      854.290
11/29/2014  22:51:00     -175.945      -28.124      -14.572       54.603       47.925       26.111     2981.434     2296.763      681.759        1.896        0.298      178.179       31.411        0.031      336.401        7.675      854.330
11/29/2014  22:52:00     -107.750      -31.288       -0.166       45.013       31.906       23.990     2026.131     1018.006      575.540        0.810        0.181      112.201       20.950        0.035      336.438        7.740      854.362
11/29/2014  22:53:00     -100.260      -66.673       -7.631       31.073       48.060       21.355      965.526     2309.802      456.030        0.914        0.187      120.405       16.256        0.018      336.765        8.287      854.403
11/29/2014  22:54:00      -48.426     -104.460       -2.257       44.772       25.705       20.080     2004.519      660.772      403.192        0.816        0.153      115.139       18.197        0.025      337.318        9.210      854.422
11/29/2014  22:55:00      -48.552      -49.758        0.519       26.765       49.268       16.448      716.339     2427.324      270.526        0.412        0.171       69.521       16.376        0.055      337.192        8.999      854.428
11/29/2014  22:56:00     -125.712      -67.084       -3.503       50.452       58.427       23.426     2545.364     3413.674      548.778        1.341        0.325      142.492       29.059        0.042      336.775        8.303      854.425
11/29/2014  22:57:00     -142.091     -112.939      -13.980       60.060      115.172       32.289     3607.216    13264.627     1042.608        2.552        0.896      181.508       28.974        0.025      337.303        9.184      854.365
11/29/2014  22:58:00      -84.369     -103.165        0.795       62.338       63.301       27.399     3886.073     4007.045      750.711        1.320        0.432      133.271       15.515        0.014      337.107        8.856      854.285
11/29/2014  22:59:00      -10.112     -103.628       -8.491       29.604       44.575       28.063      876.409     1986.913      787.509        0.728        0.183      104.120       16.107        0.024      337.451        9.432      854.256
11/29/2014  23:00:00        6.036      -49.825       10.479       33.717       24.255       24.935     1136.849      588.314      621.765        0.249        0.117       50.189        8.221        0.027      337.311        9.199      854.296
11/29/2014  23:01:00      -20.119      -80.026      -16.507       40.797       22.101       21.131     1664.381      488.456      446.529        0.484        0.130       82.517       18.576        0.051      337.169        8.961      854.360
11/29/2014  23:02:00      -56.803     -162.892      -18.158       41.333       57.749       32.477     1708.391     3334.997     1054.781        1.809        0.305      172.512       11.507        0.004      337.127        8.891      854.403
11/29/2014  23:03:00       -4.284        4.316       29.037       25.821       59.746       25.444      666.735     3569.592      647.374        0.288        0.244        6.081       29.892       24.166      336.913        8.532      854.388
11/29/2014  23:04:00        0.731       37.459       61.960       35.714       30.613       25.229     1275.508      937.181      636.485        0.405        0.142       37.466       22.449        0.359      336.769        8.294      854.327
11/29/2014  23:05:00       57.309       54.681       28.741       35.969       26.927       31.365     1293.798      725.072      983.785        0.505        0.150       79.211       22.330        0.079      336.655        8.103      854.268
11/29/2014  23:06:00       71.319       13.362        0.175       16.435       41.274       16.077      270.104     1703.561      258.463        0.375        0.112       72.560       13.002        0.032      336.677        8.142      854.235
11/29/2014  23:07:00       63.315       19.373       17.476       33.302       28.822       15.205     1109.052      830.693      231.183        0.343        0.109       66.213       12.168        0.034      336.681        8.147      854.234
11/29/2014  23:08:00      102.136       66.266       45.472       53.432       33.568       36.968     2854.971     1126.837     1366.669        1.112        0.267      121.749       35.292        0.084      336.820        8.377      854.216
11/29/2014  23:09:00       10.714       45.626       72.618       26.673       48.402       31.889      711.467     2342.754     1016.906        0.577        0.204       46.867       34.527        0.543      336.896        8.504      854.239
11/29/2014  23:10:00      -42.635     -122.672       -1.536       55.270       54.021       27.210     3054.735     2918.289      740.386        1.179        0.336      129.870        7.333        0.003      337.346        9.257      854.247
11/29/2014  23:11:00      -34.798       17.904       29.284       20.366       21.299       30.278      414.762      453.647      916.787        0.209        0.089       39.133       18.284        0.218      337.117        8.874      854.179
11/29/2014  23:12:00      -34.469       21.137        0.352       17.487       22.655       16.782      305.796      513.236      281.634        0.137        0.055       40.434        5.179        0.016      337.224        9.055      854.175
11/29/2014  23:13:00      -29.955       28.573       -6.973       24.020       20.182       16.130      576.943      407.324      260.174        0.150        0.062       41.397        6.213        0.023      336.935        8.571      854.218
11/29/2014  23:14:00       -5.830       24.415       -7.474       17.010       11.269        9.670      289.325      126.996       93.507        0.060        0.025       25.101        4.459        0.032      336.857        8.440      854.230
11/29/2014  23:15:00       -1.685       22.330      -14.248       14.055       19.988        8.402      197.537      399.504       70.585        0.069        0.033       22.394        8.947        0.160      336.849        8.426      854.220
11/29/2014  23:16:00       11.659       21.539       -5.465       16.491       16.869        9.791      271.956      284.555       95.858        0.064        0.033       24.492       12.790        0.273      336.940        8.577      854.222
11/29/2014  23:17:00        1.381       23.710        3.721       23.902       15.216       11.968      571.286      231.529      143.240        0.076        0.047       23.750       11.982        0.255      336.974        8.635      854.235
11/29/2014  23:18:00       89.513       39.531        6.750       24.232       22.902       15.257      587.170      524.507      232.787        0.548        0.067       97.854       10.453        0.011      336.977        8.642      854.236
11/29/2014  23:19:00       64.095       16.792       24.159       50.618       25.911       25.464     2562.144      671.389      648.408        0.443        0.194       66.258       25.718        0.151      336.898        8.509      854.204
11/29/2014  23:20:00        4.123       30.769       42.100       24.542       20.751       24.001      602.308      430.607      576.032        0.217        0.080       31.044       20.113        0.420      336.857        8.440      854.169
11/29/2014  23:21:00       35.359       16.800        9.884       16.618       11.999       18.264      276.172      143.976      333.588        0.119        0.038       39.147       10.941        0.078      336.901        8.512      854.159
11/29/2014  23:22:00       -0.965       31.287       42.258       27.020       26.051       25.101      730.086      678.673      630.036        0.240        0.102       31.302       20.757        0.440      336.979        8.644      854.134
11/29/2014  23:23:00      -25.766       -7.764        5.840       27.179       21.692       13.482      738.712      470.556      181.770        0.107        0.070       26.911       10.976        0.166      336.995        8.671      854.127
11/29/2014  23:24:00      -53.327        4.497       -4.082       21.533       23.484       15.643      463.683      551.484      244.716        0.207        0.063       53.516       12.922        0.058      337.132        8.900      854.127
11/29/2014  23:25:00      -41.518      -17.425       -1.457       18.195       19.501       11.778      331.071      380.274      138.723        0.144        0.043       45.026        5.687        0.016      336.958        8.609      854.116
11/29/2014  23:26:00      -13.356      -24.221       15.881       37.773       33.223       18.070     1426.766     1103.795      326.531        0.194        0.143       27.660       24.166        0.763      337.049        8.761      854.096
11/29/2014  23:27:00       -8.021       20.473        0.364       19.993       23.505       22.023      399.734      552.502      485.007        0.096        0.072       21.988       15.712        0.511      337.006        8.689      854.098
11/29/2014  23:28:00      -23.904       -6.508        5.842       33.669       20.218       10.383     1133.629      408.773      107.807        0.115        0.083       24.774       11.540        0.217      337.022        8.715      854.138
11/29/2014  23:29:00       68.131       38.347       10.915       16.586       15.994       13.811      275.104      255.822      190.757        0.348        0.036       78.181       10.481        0.018      336.975        8.636      854.166
11/29/2014  23:30:00       61.151       69.073       48.424       36.151       33.289       35.080     1306.883     1108.136     1230.641        0.725        0.182       92.252       29.133        0.100      336.817        8.372      854.181
11/29/2014  23:31:00        9.377       13.710       55.217       31.891       66.050       38.157     1017.029     4362.629     1455.991        0.508        0.342       16.611       44.038        7.029      336.778        8.310      854.209
11/29/2014  23:32:00       55.699      -11.795       46.970       52.894       64.816       50.600     2797.765     4201.143     2560.331        0.750        0.478       56.934       36.026        0.400      336.476        7.802      854.236
11/29/2014  23:33:00       49.493      -12.798       51.841       61.926       68.054       45.747     3834.852     4631.312     2092.764        0.793        0.528       51.121       41.206        0.650      336.183        7.312      854.248
11/29/2014  23:34:00       73.386      -70.549        7.089       57.824       49.862       43.831     3343.644     2486.225     1921.163        0.908        0.388      101.797       30.969        0.093      336.202        7.346      854.276
11/29/2014  23:35:00       49.128      -38.425       16.265       48.300       83.088       41.429     2332.892     6903.586     1716.392        0.755        0.548       62.371       56.588        0.823      336.137        7.236      854.311
11/29/2014  23:36:00       49.565      -30.476        8.065       35.797       43.673       36.107     1281.407     1907.330     1303.744        0.397        0.225       58.185       27.939        0.231      336.164        7.281      854.324
11/29/2014  23:37:00       32.313      -20.785       17.173       36.324       53.972       37.082     1319.404     2912.992     1375.051        0.369        0.280       38.421       31.720        0.682      336.231        7.393      854.305
11/29/2014  23:38:00       15.738        8.989       46.446       41.429       64.055       42.861     1716.357     4103.045     1837.068        0.507        0.383       18.124       50.439        7.745      336.280        7.475      854.271
11/29/2014  23:39:00        2.433       42.655       76.875       22.755       32.676       23.635      517.781     1067.716      558.607        0.494        0.107       42.724       18.738        0.192      336.186        7.318      854.226
11/29/2014  23:40:00       19.933       35.430       44.434       22.697       22.340       21.338      515.144      499.091      455.318        0.255        0.073       40.652        8.306        0.042      336.130        7.224      854.192
11/29/2014  23:41:00       46.887       23.517       28.857       23.410       25.859       24.288      548.023      668.666      589.902        0.269        0.090       52.454       16.345        0.097      336.167        7.287      854.170
11/29/2014  23:42:00       39.745       40.753       27.684       30.726       19.758       29.478      944.096      390.373      868.954        0.310        0.110       56.925       22.283        0.153      336.099        7.174      854.155
11/29/2014  23:43:00       38.090       22.750       18.107       30.089       21.125       17.843      905.335      446.260      318.357        0.198        0.083       44.367       17.634        0.158      336.112        7.193      854.148
11/29/2014  23:44:00       47.280       30.385       22.431       34.543       22.582       16.635     1193.195      509.951      276.734        0.282        0.099       56.202        8.063        0.021      335.987        6.986      854.147
11/29/2014  23:45:00       47.011       42.124       30.776       34.884       16.813       25.825     1216.887      282.675      666.925        0.355        0.108       63.123       24.158        0.146      335.900        6.841      854.157
11/29/2014  23:46:00       30.491       35.703       36.955       26.203       17.443       14.743      686.607      304.275      217.364        0.239        0.060       46.951       11.517        0.060      335.900        6.842      854.179
11/29/2014  23:47:00       36.810       29.204       10.605       16.525       15.253       19.891      273.091      232.646      395.651        0.161        0.045       46.988       14.672        0.098      335.952        6.928      854.186
11/29/2014  23:48:00       34.873       10.756       20.408       18.727       15.783       17.937      350.695      249.109      321.723        0.133        0.046       36.494        8.694        0.057      335.955        6.932      854.186
11/29/2014  23:49:00       58.186      -25.315       12.595       38.375       35.167       28.445     1472.616     1236.725      809.128        0.385        0.176       63.454       29.368        0.214      335.988        6.987      854.192
11/29/2014  23:50:00        1.701       68.315       72.913       31.737       32.043       31.305     1007.229     1026.743      980.009        0.650        0.151       68.336       26.571        0.151      335.972        6.962      854.211
11/29/2014  23:51:00        8.647        5.898       41.998       36.914       36.913       39.187     1362.643     1362.562     1535.601        0.307        0.213       10.467       28.475        7.400      336.089        7.157      854.239
11/29/2014  23:52:00       30.166      -80.913        9.128       28.139       29.603       19.716      791.794      876.312      388.708        0.480        0.103       86.353       20.145        0.054      336.194        7.331      854.250
11/29/2014  23:53:00       34.005      -41.032       11.982       21.052       42.958       20.557      443.172     1845.399      422.592        0.285        0.136       53.292       20.616        0.150      336.165        7.284      854.229
11/29/2014  23:54:00       78.828       35.146       20.341       41.846       28.685       20.476     1751.099      822.856      419.260        0.543        0.150       86.308       15.517        0.032      336.033        7.063      854.174
11/29/2014  23:55:00       94.316       35.069        2.419       37.814       26.208       26.075     1429.898      686.843      679.894        0.646        0.140      100.625       22.001        0.048      336.058        7.106      854.131
11/29/2014  23:56:00       60.709       38.421        5.943       20.626       17.178       14.987      425.415      295.093      224.620        0.307        0.047       71.845        9.265        0.017      335.978        6.970      854.126
11/29/2014  23:57:00       -0.660       15.565        5.188       24.878       16.523        9.948      618.919      273.021       98.968        0.063        0.050       15.579        5.140        0.109      335.907        6.852      854.152
11/29/2014  23:58:00       13.831       41.884        2.260       14.721       19.592       10.718      216.698      383.847      114.878        0.133        0.036       44.109       11.386        0.067      335.876        6.801      854.156
11/29/2014  23:59:00       26.748       47.317       -2.499       19.714       28.169       16.897      388.661      793.492      285.523        0.221        0.073       54.354       14.176        0.068      335.785        6.651      854.129
